[[{"header":{"parameterUnit":"m.s-1","parameterCategory":1,"la1":30.6,"la2":29.2853,"lo1":-89.7004,"lo2":-87.6739,"dy":0.0162,"dx":0.0183,"nx":112,"ny":82,"refTime":"2026-04-22T12:00:00:Z","depth":0,"parameterNumber":2,"parameterNumberName":"U-component_of_WINDS"},"data":[0.0,0.0,0.0,0.0,0.0,0.0,0.0,0.0,0.0,0.0,0.0,0.0,0.0,0.0,0.0,0.0,0.0,0.0,0.0,0.0,0.0,0.0,0.0,0.0,0.0,0.0,0.0,0.0,0.0,0.0,0.0,0.0,0.0,0.0,0.0,0.0,0.0,0.0,0.0,0.0,0.0,0.0,0.0,0.0,0.0,0.0,0.0,0.0,0.0,0.0,0.0,0.0,0.0,0.0,0.0,0.0,0.0,0.0,0.0,0.0,0.0,0.0,0.0,0.0,0.0,0.0,0.0,0.0,0.0,0.0,0.0,0.0,0.0,0.0,0.0,0.0,0.0,0.0,0.0,0.0,0.0,0.0,0.0,0.0,0.0,0.0,0.0,0.0,0.0,0.0,-3.5912,-3.5719,-3.6306,-3.6351,-3.5496,-3.5472,-3.5066,-3.3999,0.0,0.0,0.0,0.0,0.0,0.0,0.0,0.0,0.0,0.0,0.0,0.0,0.0,0.0,0.0,0.0,0.0,0.0,0.0,0.0,0.0,0.0,0.0,0.0,0.0,0.0,0.0,0.0,0.0,0.0,0.0,0.0,0.0,0.0,0.0,0.0,0.0,0.0,0.0,0.0,0.0,0.0,0.0,0.0,0.0,0.0,0.0,0.0,0.0,0.0,0.0,0.0,0.0,0.0,0.0,0.0,0.0,0.0,0.0,0.0,0.0,0.0,0.0,0.0,0.0,0.0,0.0,0.0,0.0,0.0,0.0,0.0,0.0,0.0,0.0,0.0,0.0,0.0,0.0,0.0,0.0,0.0,0.0,0.0,0.0,0.0,0.0,0.0,0.0,0.0,0.0,0.0,0.0,0.0,0.0,0.0,0.0,0.0,0.0,0.0,0.0,0.0,0.0,0.0,-3.5919,-3.5715,-3.6291,-3.6365,-3.5551,-3.6101,-3.6055,-3.504,0.0,0.0,0.0,0.0,0.0,0.0,0.0,0.0,0.0,0.0,0.0,0.0,0.0,0.0,0.0,0.0,0.0,0.0,0.0,0.0,0.0,0.0,0.0,0.0,0.0,0.0,0.0,0.0,0.0,0.0,0.0,0.0,0.0,0.0,0.0,0.0,0.0,0.0,0.0,0.0,0.0,0.0,0.0,0.0,0.0,0.0,0.0,0.0,0.0,0.0,0.0,0.0,0.0,0.0,0.0,0.0,0.0,0.0,0.0,0.0,0.0,0.0,0.0,0.0,0.0,0.0,0.0,0.0,0.0,0.0,0.0,0.0,0.0,0.0,0.0,0.0,0.0,0.0,0.0,0.0,0.0,0.0,0.0,0.0,0.0,0.0,0.0,0.0,0.0,0.0,0.0,0.0,0.0,0.0,0.0,0.0,0.0,0.0,0.0,0.0,0.0,0.0,0.0,-3.7012,-3.7209,-3.7065,-3.727,-3.7065,-3.6212,-3.6481,-3.6262,-3.5256,-3.4112,0.0,0.0,0.0,0.0,0.0,0.0,0.0,0.0,0.0,0.0,0.0,0.0,0.0,0.0,0.0,0.0,0.0,0.0,0.0,0.0,0.0,0.0,0.0,0.0,0.0,0.0,0.0,0.0,0.0,0.0,0.0,0.0,0.0,0.0,0.0,0.0,0.0,0.0,0.0,0.0,0.0,0.0,0.0,0.0,0.0,0.0,0.0,0.0,0.0,0.0,0.0,0.0,0.0,0.0,0.0,0.0,0.0,0.0,0.0,0.0,0.0,0.0,0.0,0.0,0.0,0.0,0.0,0.0,0.0,0.0,0.0,0.0,0.0,0.0,0.0,0.0,0.0,0.0,0.0,0.0,0.0,0.0,0.0,0.0,0.0,0.0,0.0,0.0,0.0,0.0,0.0,0.0,0.0,0.0,0.0,0.0,0.0,0.0,0.0,0.0,0.0,0.0,-3.7887,-3.826,-3.82,-3.808,-3.7738,-3.7058,-3.6808,-3.6365,-3.5562,-3.5003,0.0,0.0,0.0,0.0,0.0,0.0,0.0,0.0,0.0,0.0,0.0,0.0,0.0,0.0,0.0,0.0,0.0,0.0,0.0,0.0,0.0,0.0,0.0,0.0,0.0,0.0,0.0,0.0,0.0,0.0,0.0,0.0,0.0,0.0,0.0,0.0,0.0,0.0,0.0,0.0,0.0,0.0,0.0,0.0,0.0,0.0,0.0,0.0,0.0,0.0,0.0,0.0,0.0,0.0,0.0,0.0,0.0,0.0,0.0,0.0,0.0,0.0,0.0,0.0,0.0,0.0,0.0,0.0,0.0,0.0,0.0,0.0,0.0,0.0,0.0,0.0,0.0,0.0,0.0,0.0,0.0,0.0,0.0,0.0,0.0,0.0,0.0,0.0,0.0,0.0,0.0,0.0,0.0,0.0,0.0,0.0,0.0,0.0,0.0,0.0,0.0,0.0,-3.7846,-3.8276,-3.8219,-3.808,-3.7988,-3.7911,-3.718,-3.6615,-3.6419,-3.5334,0.0,0.0,0.0,0.0,0.0,0.0,0.0,0.0,0.0,0.0,0.0,0.0,0.0,0.0,0.0,0.0,0.0,0.0,0.0,0.0,0.0,0.0,0.0,0.0,0.0,0.0,0.0,0.0,0.0,0.0,0.0,0.0,0.0,0.0,0.0,0.0,0.0,0.0,0.0,0.0,0.0,0.0,0.0,0.0,0.0,0.0,0.0,0.0,0.0,0.0,0.0,0.0,0.0,0.0,0.0,0.0,0.0,0.0,0.0,0.0,0.0,0.0,0.0,0.0,0.0,0.0,0.0,0.0,0.0,0.0,0.0,0.0,0.0,0.0,0.0,0.0,0.0,0.0,0.0,0.0,0.0,0.0,0.0,0.0,0.0,0.0,0.0,0.0,0.0,0.0,0.0,0.0,0.0,0.0,0.0,0.0,0.0,0.0,0.0,0.0,0.0,0.0,-3.9151,-3.991,-3.9879,-3.9734,-3.9401,-3.8852,-3.8003,-3.7218,-3.6548,0.0,0.0,0.0,0.0,0.0,0.0,0.0,0.0,0.0,0.0,0.0,0.0,0.0,0.0,0.0,0.0,0.0,0.0,0.0,0.0,0.0,0.0,0.0,0.0,0.0,0.0,0.0,0.0,0.0,0.0,0.0,0.0,0.0,0.0,0.0,0.0,0.0,0.0,0.0,0.0,0.0,0.0,0.0,0.0,0.0,0.0,0.0,0.0,0.0,0.0,0.0,0.0,0.0,0.0,0.0,0.0,0.0,0.0,0.0,0.0,0.0,0.0,0.0,0.0,0.0,0.0,0.0,0.0,0.0,0.0,0.0,0.0,0.0,0.0,0.0,0.0,0.0,0.0,0.0,0.0,0.0,0.0,0.0,0.0,0.0,0.0,0.0,0.0,0.0,0.0,0.0,0.0,0.0,0.0,0.0,0.0,0.0,0.0,0.0,0.0,0.0,0.0,-3.8955,-4.0112,-4.0912,-4.0894,-4.074,-4.039,-3.9795,-3.8679,-3.7694,-3.699,0.0,0.0,0.0,0.0,0.0,0.0,0.0,0.0,0.0,0.0,0.0,0.0,0.0,0.0,0.0,0.0,0.0,0.0,0.0,0.0,0.0,0.0,0.0,0.0,0.0,0.0,0.0,0.0,0.0,0.0,0.0,0.0,0.0,0.0,0.0,0.0,0.0,0.0,0.0,0.0,0.0,0.0,0.0,0.0,0.0,0.0,0.0,0.0,0.0,0.0,0.0,0.0,0.0,0.0,0.0,0.0,0.0,0.0,0.0,0.0,0.0,0.0,0.0,0.0,0.0,0.0,0.0,0.0,0.0,0.0,0.0,0.0,0.0,0.0,0.0,0.0,0.0,0.0,0.0,0.0,0.0,0.0,0.0,0.0,0.0,0.0,0.0,0.0,0.0,0.0,0.0,0.0,0.0,0.0,0.0,0.0,0.0,0.0,0.0,0.0,0.0,0.0,-3.9682,-4.0506,-4.0979,-4.0919,-4.0786,-4.0693,-4.0688,-3.9042,-3.7978,0.0,0.0,0.0,0.0,0.0,0.0,0.0,0.0,0.0,0.0,0.0,0.0,0.0,0.0,0.0,0.0,0.0,0.0,0.0,0.0,0.0,0.0,0.0,0.0,0.0,0.0,0.0,0.0,0.0,0.0,0.0,0.0,0.0,0.0,0.0,0.0,0.0,0.0,0.0,0.0,0.0,0.0,0.0,0.0,0.0,0.0,0.0,0.0,0.0,0.0,0.0,0.0,0.0,0.0,0.0,0.0,0.0,0.0,0.0,0.0,0.0,0.0,0.0,0.0,0.0,0.0,0.0,0.0,0.0,0.0,0.0,0.0,0.0,0.0,0.0,0.0,0.0,0.0,0.0,0.0,0.0,0.0,0.0,0.0,0.0,0.0,0.0,0.0,0.0,0.0,0.0,0.0,0.0,0.0,0.0,0.0,0.0,0.0,0.0,0.0,0.0,0.0,0.0,-3.8923,-4.0184,-4.1042,-4.0983,-4.0894,-4.0563,-3.9907,-3.8769,-3.7788,-3.7094,0.0,0.0,0.0,0.0,0.0,0.0,0.0,0.0,0.0,0.0,0.0,0.0,0.0,0.0,0.0,0.0,0.0,0.0,0.0,0.0,0.0,0.0,0.0,0.0,0.0,0.0,0.0,0.0,0.0,0.0,0.0,0.0,0.0,0.0,0.0,0.0,0.0,0.0,0.0,0.0,0.0,0.0,0.0,0.0,0.0,0.0,0.0,0.0,0.0,0.0,0.0,0.0,0.0,0.0,0.0,0.0,0.0,0.0,0.0,0.0,0.0,0.0,0.0,0.0,0.0,0.0,0.0,0.0,0.0,0.0,0.0,0.0,0.0,0.0,0.0,0.0,0.0,0.0,0.0,0.0,0.0,0.0,0.0,0.0,0.0,0.0,0.0,0.0,0.0,0.0,0.0,0.0,0.0,0.0,0.0,0.0,0.0,0.0,0.0,0.0,0.0,0.0,-3.9062,-4.031,-4.1103,-4.1046,-4.0981,-4.0563,-3.9654,-3.8681,-3.7732,-3.6806,0.0,0.0,0.0,0.0,0.0,0.0,0.0,0.0,0.0,0.0,0.0,0.0,0.0,0.0,0.0,0.0,0.0,0.0,0.0,0.0,0.0,0.0,0.0,0.0,0.0,0.0,0.0,0.0,0.0,0.0,0.0,0.0,0.0,0.0,0.0,0.0,0.0,0.0,0.0,0.0,0.0,0.0,0.0,0.0,0.0,0.0,0.0,0.0,0.0,0.0,0.0,0.0,0.0,0.0,0.0,0.0,0.0,0.0,0.0,0.0,0.0,0.0,0.0,0.0,0.0,0.0,0.0,0.0,0.0,0.0,0.0,0.0,0.0,0.0,0.0,0.0,0.0,0.0,0.0,0.0,0.0,0.0,0.0,0.0,0.0,0.0,0.0,0.0,0.0,0.0,0.0,0.0,0.0,0.0,0.0,0.0,0.0,0.0,0.0,0.0,0.0,0.0,-3.9551,-4.043,-4.0937,-4.0874,-4.0819,-4.0415,-3.9539,-3.863,-3.7663,-3.6642,0.0,0.0,0.0,0.0,0.0,0.0,0.0,0.0,0.0,0.0,0.0,0.0,0.0,0.0,0.0,0.0,0.0,0.0,0.0,0.0,0.0,0.0,0.0,0.0,0.0,0.0,0.0,0.0,0.0,0.0,0.0,0.0,0.0,0.0,0.0,0.0,0.0,0.0,0.0,0.0,0.0,0.0,0.0,0.0,0.0,0.0,0.0,0.0,0.0,0.0,0.0,0.0,0.0,0.0,0.0,0.0,0.0,0.0,0.0,0.0,-4.2522,-4.2348,0.0,0.0,0.0,0.0,0.0,0.0,0.0,0.0,0.0,0.0,0.0,0.0,0.0,0.0,0.0,0.0,0.0,0.0,0.0,0.0,0.0,0.0,0.0,0.0,0.0,0.0,0.0,0.0,0.0,0.0,0.0,0.0,0.0,0.0,0.0,0.0,0.0,0.0,0.0,0.0,-3.7832,-3.8613,-3.914,-3.9138,-3.9071,-3.8683,-3.7812,-3.75,-3.6632,-3.5011,-3.3868,0.0,0.0,0.0,0.0,0.0,0.0,0.0,0.0,0.0,0.0,0.0,0.0,0.0,0.0,0.0,0.0,0.0,0.0,0.0,0.0,0.0,0.0,0.0,0.0,0.0,0.0,0.0,0.0,0.0,0.0,0.0,0.0,0.0,0.0,0.0,0.0,0.0,0.0,0.0,0.0,0.0,0.0,0.0,0.0,0.0,0.0,0.0,0.0,0.0,0.0,0.0,0.0,0.0,0.0,0.0,0.0,0.0,0.0,0.0,-4.321,-4.3136,0.0,0.0,0.0,0.0,0.0,0.0,0.0,0.0,0.0,0.0,0.0,0.0,0.0,0.0,0.0,0.0,0.0,0.0,0.0,0.0,0.0,0.0,0.0,0.0,0.0,0.0,0.0,0.0,0.0,0.0,0.0,0.0,0.0,0.0,0.0,0.0,0.0,0.0,0.0,0.0,-3.7246,-3.8066,-3.8594,-3.8593,-3.8572,-3.8196,-3.7324,-3.7186,-3.6372,-3.4556,-3.3577,0.0,0.0,0.0,0.0,0.0,0.0,0.0,0.0,0.0,0.0,0.0,0.0,0.0,0.0,0.0,0.0,0.0,0.0,0.0,0.0,0.0,0.0,0.0,0.0,0.0,0.0,0.0,0.0,0.0,0.0,0.0,0.0,0.0,0.0,0.0,0.0,0.0,0.0,0.0,0.0,0.0,0.0,0.0,0.0,0.0,0.0,0.0,0.0,0.0,0.0,0.0,0.0,0.0,-4.3547,-4.4347,-4.5218,-4.458,-4.4389,-4.4557,-4.3933,-4.4096,-4.4857,-4.5705,0.0,0.0,0.0,0.0,0.0,0.0,0.0,0.0,0.0,0.0,0.0,0.0,0.0,0.0,0.0,0.0,0.0,0.0,0.0,0.0,0.0,0.0,0.0,0.0,-3.6283,-3.5669,-3.5674,0.0,0.0,0.0,0.0,0.0,0.0,0.0,0.0,0.0,0.0,0.0,-3.6973,-3.7695,-3.8144,-3.8144,-3.8144,-3.7851,-3.7125,-3.7014,-3.6226,-3.4422,-3.3553,-3.2662,0.0,0.0,0.0,0.0,0.0,0.0,0.0,0.0,0.0,0.0,0.0,0.0,0.0,0.0,0.0,0.0,0.0,0.0,0.0,0.0,0.0,0.0,0.0,0.0,0.0,0.0,0.0,0.0,0.0,0.0,0.0,0.0,-3.7904,-3.8286,0.0,0.0,0.0,0.0,0.0,0.0,0.0,0.0,0.0,0.0,0.0,0.0,0.0,-4.0669,-4.0669,-4.0669,-4.1104,-4.1962,-4.2077,-4.259,-4.3435,-4.3395,-4.3784,-4.4515,-4.4418,0.0,-4.4777,-4.5594,0.0,0.0,0.0,0.0,0.0,0.0,0.0,0.0,0.0,0.0,0.0,0.0,0.0,0.0,0.0,0.0,0.0,0.0,0.0,0.0,0.0,0.0,-3.6876,-3.676,-3.6118,-3.5528,0.0,-3.5626,-3.5721,-3.5783,-3.5,0.0,0.0,0.0,0.0,0.0,0.0,0.0,-3.6152,-3.6269,-3.6348,-3.6348,-3.6348,-3.6308,-3.617,-3.6164,-3.5408,-3.3663,-3.3326,-3.2462,-3.0839,-3.0577,0.0,0.0,0.0,0.0,0.0,0.0,0.0,0.0,0.0,0.0,0.0,0.0,0.0,0.0,0.0,0.0,0.0,0.0,0.0,0.0,0.0,0.0,0.0,0.0,0.0,0.0,0.0,0.0,0.0,-3.7636,-3.8489,-3.8622,-3.9492,-3.9971,0.0,0.0,0.0,0.0,0.0,0.0,0.0,0.0,0.0,-4.0388,-4.0468,-4.0496,-4.0496,-4.0989,-4.1431,-4.1808,-4.2297,-4.2728,-4.3099,-4.3131,-4.3601,-4.4402,-4.4391,-4.472,-4.5305,-4.5728,-4.5183,-4.4124,0.0,0.0,0.0,0.0,-4.1458,-4.1144,-4.1144,-4.089,-4.0578,-4.0578,0.0,0.0,0.0,0.0,0.0,0.0,0.0,0.0,0.0,0.0,-3.6692,-3.6692,-3.5718,-3.4776,-3.4776,-3.4423,-3.4293,0.0,-3.4254,-3.3685,-3.3793,0.0,0.0,0.0,0.0,-3.5449,-3.5937,-3.5996,-3.5996,-3.5996,-3.5566,-3.5273,-3.5273,-3.4823,-3.3999,-3.2758,-3.2572,-3.1953,-3.0712,-3.0584,-3.0552,0.0,0.0,0.0,0.0,0.0,0.0,0.0,0.0,0.0,0.0,0.0,0.0,0.0,0.0,0.0,0.0,0.0,0.0,0.0,0.0,0.0,0.0,0.0,0.0,0.0,0.0,0.0,0.0,-3.8099,-3.8689,-3.8837,-3.9503,-3.9811,0.0,0.0,0.0,0.0,0.0,0.0,-3.9728,-3.991,-4.009,-4.0225,-4.0358,-4.0433,-4.0449,-4.1102,-4.1437,-4.1492,-4.2115,-4.2431,-4.2431,-4.2662,-4.3085,-4.3662,-4.3893,-4.4386,-4.5052,-4.5395,-4.4705,-4.3432,-4.3326,-4.2356,-4.1027,-4.1027,-4.1027,-4.1027,-4.1027,-4.1027,-4.1027,-4.1027,-3.9856,-3.8413,-3.8179,0.0,0.0,0.0,0.0,-3.6774,-3.739,-3.698,-3.6346,-3.6122,-3.5103,-3.4148,-3.3917,-3.3199,-3.2871,0.0,-3.3437,-3.3035,-3.3169,0.0,0.0,0.0,0.0,-3.4608,-3.5253,-3.5332,-3.5332,-3.5332,-3.4746,-3.4375,-3.4375,-3.3769,-3.3027,-3.2165,-3.2057,-3.1633,-3.0755,-3.0687,-3.0647,-3.0647,0.0,0.0,0.0,0.0,0.0,0.0,0.0,0.0,0.0,0.0,0.0,0.0,0.0,0.0,0.0,0.0,0.0,0.0,0.0,0.0,0.0,0.0,0.0,0.0,0.0,0.0,0.0,0.0,0.0,-3.8692,-3.8914,0.0,0.0,0.0,0.0,-3.9324,-3.9324,-3.937,-3.9508,-3.9705,-3.9881,-4.0007,-4.0148,-4.0243,-4.0316,-4.0426,-4.0507,-4.0567,-4.0608,-4.0631,-4.0669,-4.1489,-4.1885,-4.1962,-4.2797,-4.3187,-4.33,-4.4201,-4.4064,-4.3227,-4.2481,-4.1611,-4.0828,-4.0828,-4.0828,-4.0828,-4.0828,-4.0828,-4.0828,-4.0828,-3.968,-3.8159,-3.7322,-3.645,0.0,0.0,-3.5712,-3.5678,-3.572,-3.5644,-3.5346,-3.4526,-3.4263,-3.3975,-3.3141,-3.2333,-3.2018,0.0,-3.3037,-3.3049,-3.3188,0.0,-3.3317,-3.3364,-3.3428,-3.3481,-3.3526,-3.353,-3.3532,-3.3534,-3.3496,-3.3476,-3.3476,-3.3437,-3.3027,-3.2167,-3.2103,-3.1705,-3.0838,-3.0785,-3.0796,-3.0796,-3.0796,0.0,0.0,0.0,0.0,0.0,0.0,0.0,0.0,0.0,0.0,0.0,0.0,0.0,0.0,0.0,0.0,0.0,0.0,0.0,0.0,0.0,0.0,0.0,0.0,0.0,0.0,0.0,0.0,-3.8476,-3.9114,0.0,-3.8892,-3.8896,-3.8906,-3.8906,-3.8906,-3.8979,-3.9115,-3.9255,-3.9421,-3.9611,-3.9728,-3.987,-3.9992,-4.0129,-4.0261,-4.0379,-4.0468,-4.0496,-4.0516,-4.0823,-4.1277,-4.1808,-4.2143,-4.2574,-4.3079,-4.2873,-4.2639,-4.2439,-4.2207,-4.1568,-4.0806,-4.0806,-4.0806,-4.0806,-4.0806,-4.0422,-3.9782,-3.8714,-3.7957,-3.7296,-3.6438,-3.5952,-3.5691,-3.5641,-3.5614,-3.5585,-3.554,-3.5515,-3.5269,-3.4417,-3.3782,-3.3141,-3.2314,-3.1462,-3.0968,-3.1268,-3.1773,-3.2179,-3.2274,-3.2777,-3.32,-3.3239,-3.3265,-3.3299,-3.3337,-3.3335,-3.3347,-3.3392,-3.2948,-3.2637,-3.2637,-3.2109,-3.166,-3.1347,-3.1327,-3.119,-3.0876,-3.0855,-3.1127,-3.1694,-3.1694,-3.1694,0.0,0.0,0.0,0.0,0.0,0.0,0.0,0.0,0.0,0.0,0.0,0.0,0.0,0.0,0.0,0.0,0.0,0.0,0.0,0.0,0.0,0.0,0.0,0.0,0.0,-3.8007,-3.8437,-3.8158,-3.8875,-3.9195,-3.8679,-3.8673,-3.8707,-3.8707,-3.8707,-3.875,-3.8866,-3.8994,-3.9141,-3.9285,-3.9439,-3.9559,-3.9705,-3.9889,-4.006,-4.0206,-4.0341,-4.0408,-4.0433,-4.0468,-4.0784,-4.1368,-4.1365,-4.1681,-4.2181,-4.1604,-4.1404,-4.1466,-4.1248,-4.0797,-4.0249,-3.9965,-3.9868,-3.9868,-3.9868,-3.9481,-3.8804,-3.7696,-3.7135,-3.6787,-3.6201,-3.5853,-3.5615,-3.5575,-3.5565,-3.556,-3.5515,-3.5277,-3.4834,-3.3968,-3.3103,-3.2275,-3.1448,-3.0808,-3.0404,-3.0404,-3.0865,-3.1274,-3.1325,-3.183,-3.2246,-3.2286,-3.2302,-3.2347,-3.2402,-3.2418,-3.2445,-3.252,-3.2046,-3.1738,-3.1758,-3.123,-3.0898,-3.0898,-3.0898,-3.0898,-3.0898,-3.0898,-3.1309,-3.2187,-3.2207,-3.2207,-3.2207,0.0,0.0,0.0,0.0,0.0,0.0,0.0,0.0,0.0,0.0,0.0,0.0,0.0,0.0,0.0,0.0,0.0,0.0,0.0,0.0,0.0,0.0,0.0,-3.6761,-3.7169,-3.7468,-3.7756,-3.8135,-3.8415,-3.8494,-3.8609,-3.8707,-3.8707,-3.8707,-3.8719,-3.8792,-3.8935,-3.9017,-3.9087,-3.9205,-3.935,-3.9489,-3.9682,-3.9848,-3.9986,-4.0119,-4.0224,-4.0298,-4.0351,-4.0422,-4.0482,-4.0492,-4.0496,-4.0496,-4.0477,-4.0458,-4.04,-3.9611,-3.9304,-3.9188,-3.8315,-3.8007,-3.8007,-3.7969,-3.7969,-3.7969,-3.793,-3.7353,-3.6654,-3.6654,-3.6115,-3.55,-3.55,-3.55,-3.55,-3.55,-3.4853,-3.3975,-3.3103,-3.2295,-3.1468,-3.0596,-3.0404,-3.0385,-3.0365,-3.0365,-3.0377,-3.0406,-3.0455,-3.0501,-3.0511,-3.0552,0.0,-3.0683,-3.0694,-3.0718,-3.0792,-3.0766,-3.0797,-3.0897,-3.0879,-3.0879,-3.0898,-3.0898,-3.0898,-3.0898,-3.0898,-3.1328,-3.2226,-3.2266,-3.2266,-3.2246,0.0,0.0,0.0,0.0,0.0,0.0,0.0,0.0,0.0,0.0,0.0,0.0,0.0,0.0,0.0,0.0,0.0,0.0,0.0,0.0,0.0,-3.7006,-3.7029,-3.6333,-3.6495,-3.6821,-3.7226,-3.7738,-3.8117,-3.832,-3.8564,-3.8707,-3.8707,-3.8707,-3.8707,-3.8719,-3.8765,-3.8777,-3.881,-3.8851,-3.8921,-3.9059,-3.9221,-3.9383,-3.9563,-3.9694,-3.9838,-3.9943,-4.011,-4.0252,-4.0351,-4.0468,-4.0496,-4.0458,-3.9881,-3.9631,-3.9611,-3.94,-3.9304,-3.9188,-3.8315,-3.8007,-3.7911,-3.7276,-3.7065,-3.6962,-3.6385,-3.6019,-3.5827,-3.5827,-3.5673,-3.55,-3.55,-3.55,-3.55,-3.55,-3.4853,-3.3975,-3.3103,-3.2295,-3.1468,-3.0596,-3.0404,-3.0212,-2.9583,-2.9467,-2.9665,-3.0281,-3.0414,-3.0425,-3.0436,-3.0447,0.0,-3.0545,-3.0554,-3.0602,-3.0722,-3.0207,-3.0122,-3.0774,-3.0292,-3.0234,-3.0859,-3.0898,-3.0898,-3.0898,-3.0898,-3.1582,-3.3047,-3.3691,-3.3691,0.0,0.0,0.0,0.0,0.0,0.0,0.0,0.0,0.0,0.0,0.0,0.0,0.0,0.0,0.0,0.0,0.0,0.0,0.0,0.0,0.0,0.0,-3.7445,-3.7648,-3.6911,-3.6757,-3.6776,-3.6871,-3.7358,-3.7773,-3.8019,-3.8287,-3.8467,-3.8517,-3.8564,-3.8578,-3.8609,-3.8658,-3.8707,-3.8707,-3.8707,-3.875,-3.8866,-3.866,-3.8625,-3.8768,-3.8908,-3.887,-3.8693,-3.9195,-3.9337,-3.9183,-3.9347,-3.9419,-3.9377,-3.895,-3.8757,0.0,0.0,0.0,0.0,0.0,-3.6949,-3.6892,-3.6365,-3.6192,-3.6115,-3.5654,-3.55,-3.55,-3.55,-3.55,-3.55,-3.55,-3.55,-3.55,-3.55,-3.4584,-3.3526,-3.3026,-3.2006,-3.1019,-3.0519,-3.0115,-2.9717,-2.9204,-2.8838,0.0,-2.9275,-2.964,-2.9737,-2.941,-2.964,-2.9754,-2.9442,-2.9429,-2.9481,-2.9608,-2.9211,-2.9161,-2.9665,-2.9309,0.0,0.0,0.0,-3.0485,-3.0836,-3.1207,0.0,0.0,0.0,0.0,0.0,0.0,0.0,0.0,-3.1268,-3.1697,0.0,0.0,0.0,0.0,0.0,0.0,0.0,0.0,0.0,0.0,0.0,0.0,0.0,0.0,0.0,0.0,-3.7669,-3.8091,-3.7922,-3.7535,-3.7114,-3.6697,-3.7029,-3.7357,-3.7577,-3.7844,-3.8051,-3.8206,-3.8285,-3.8382,-3.8478,-3.8517,0.0,0.0,0.0,-3.8444,-3.8516,-3.7941,-3.7655,-3.7723,-3.7838,-3.7586,-3.7057,-3.7913,-3.8012,-3.7557,-3.7774,-3.7862,-3.7882,-3.7851,-3.7796,-3.7642,-3.6962,-3.6635,-3.6481,-3.5769,-3.55,-3.55,-3.55,0.0,0.0,-3.55,-3.55,-3.55,-3.55,-3.55,-3.55,-3.55,-3.55,-3.5481,-3.5385,-3.4141,-3.2872,-3.2795,-3.1538,-3.0404,-3.0404,-2.9717,-2.9069,-2.8973,-2.8319,-2.7717,-2.7621,-2.8357,-2.8723,-2.8011,-2.8511,-2.8714,-2.799,-2.7943,-2.8012,-2.8074,0.0,0.0,-2.8186,-2.8153,-2.8164,-2.8262,-2.9041,-2.9839,-3.0618,-3.1576,-3.2083,-3.2083,-3.219,-3.2196,-3.2084,-3.1383,-3.0995,-3.0918,-3.1699,-3.2148,0.0,0.0,0.0,0.0,0.0,0.0,0.0,0.0,0.0,0.0,0.0,0.0,0.0,0.0,0.0,-3.8447,-3.9174,-3.9242,-3.8075,-3.7818,-3.7568,-3.7055,-3.6751,-3.6664,-3.6865,-3.7173,-3.7451,-3.765,-3.7878,-3.81,-3.8322,-3.7958,-3.7731,-3.7731,-3.7092,-3.6776,-3.6772,-3.6654,-3.6609,-3.6605,0.0,0.0,-3.6634,-3.692,-3.7094,-3.7198,-3.7509,-3.7717,-3.7773,-3.7194,-3.6577,-3.6019,-3.65,-3.6308,-3.5712,-3.5558,-3.55,-3.55,-3.55,-3.55,-3.55,-3.55,-3.55,-3.55,-3.55,-3.55,0.0,-3.55,-3.55,-3.5346,-3.4622,-3.368,-3.2737,-3.2083,-3.1154,-3.0404,-3.0404,-2.9717,-2.8915,-2.8261,-2.7448,-2.664,-2.5923,-2.7101,-2.8088,-2.7915,-2.803,-2.8088,-2.792,-2.7911,-2.7923,-2.7942,-2.7373,-2.73,-2.8048,-2.7486,-2.7392,-2.8095,-2.8946,-2.9487,-2.9662,-3.1123,-3.1943,-3.1943,-3.2671,-3.2714,-3.201,-3.1923,-3.154,-3.0898,-3.1074,-3.1875,0.0,0.0,0.0,0.0,0.0,0.0,0.0,0.0,0.0,0.0,0.0,-3.5301,-3.6062,0.0,-3.8565,-3.8937,-3.9622,-3.9723,-3.8616,-3.8142,-3.753,-3.6559,-3.6333,-3.6329,-3.6478,-3.6741,-3.6978,-3.7171,-3.7112,-3.7181,-3.7439,-3.7002,-3.6765,-3.6809,-3.6472,-3.6303,-3.6303,-3.5881,-3.5646,-3.5646,-3.5646,-3.5496,-3.5214,-3.5755,-3.5913,-3.5773,-3.6072,-3.6272,-3.6389,-3.6074,-3.5718,-3.5392,-3.5837,-3.5797,-3.55,-3.55,-3.55,-3.55,-3.55,-3.55,-3.55,-3.55,-3.55,-3.55,-3.55,-3.55,-3.55,-3.55,-3.5192,-3.4757,-3.4321,-3.3256,-3.2199,-3.1795,-3.1019,-3.0404,-3.0404,-2.941,-2.8376,-2.7972,-2.6832,-2.5808,-2.5385,-2.6019,-2.6601,-2.6601,-2.6967,-2.7082,-2.6659,-2.6601,-2.6616,-2.6641,-2.629,-2.6238,-2.671,-2.6385,-2.6526,-2.7387,-2.7867,-2.8291,-2.8722,-2.9946,-3.0603,-3.0603,-3.1517,-3.1785,-3.1352,-3.1429,-3.1231,-3.0855,-3.0855,-3.1775,0.0,0.0,0.0,0.0,0.0,0.0,0.0,0.0,-3.172,-3.2586,-3.4314,-3.5902,-3.67,-3.7947,-3.8874,-3.9067,-3.9623,-3.9716,-3.8879,-3.8253,-3.7371,-3.592,-3.5915,-3.6049,-3.6152,-3.6184,-3.6287,-3.6492,-3.6083,-3.5936,-3.6235,-3.5878,-3.5742,-3.5831,-3.5823,-3.5807,-3.5807,-3.5114,-3.4766,-3.4766,-3.4766,-3.4444,-3.39,-3.4489,-3.4525,-3.4097,-3.4206,-3.4339,-3.4471,-3.4566,-3.4628,-3.4636,-3.4705,-3.4818,-3.4978,-3.5345,-3.5493,-3.55,-3.55,-3.55,-3.5462,-3.5308,-3.525,-3.5212,-3.5058,-3.4981,-3.4981,-3.4981,-3.4487,-3.3917,-3.3744,-3.2718,-3.166,-3.1487,-3.0769,-3.0154,-3.0154,-2.8832,-2.764,-2.764,-2.639,-2.5308,-2.5308,-2.5308,-2.5308,-2.5308,-2.5904,-2.6096,-2.5385,-2.5308,-2.5317,-2.5365,-2.5378,-2.5389,-2.5382,-2.5422,-2.5754,-2.6455,-2.6668,-2.7079,-2.778,-2.859,-2.9035,-2.9035,-2.9943,-3.0418,-3.0411,-3.065,-3.0759,-3.0768,-3.0768,-3.1626,-2.7628,-2.7832,-2.8035,-2.8623,-2.8779,-2.885,0.0,0.0,-3.1841,-3.2226,-3.4188,-3.6091,-3.6912,-3.7692,-3.8465,-3.932,-3.9601,-3.9294,-3.8016,-3.7884,-3.733,-3.5808,-3.5644,-3.565,-3.5689,-3.5123,-3.484,-3.509,-3.4696,-3.4593,-3.4977,-3.4725,-3.4676,-3.4844,-3.4352,-3.4082,-3.4082,-3.3972,-3.3935,-3.3935,-3.3935,-3.388,-3.3784,-3.3191,-3.2919,-3.2951,-3.2513,-3.2382,-3.2505,-3.2523,-3.2532,-3.2541,-3.2659,-3.2806,-3.3123,-3.4793,-3.5453,-3.55,-3.55,-3.55,-3.5365,-3.4603,-3.4359,-3.4205,-3.343,-3.3199,-3.3199,-3.3199,-3.3122,-3.2872,-3.2179,-3.1833,-3.1506,-3.0731,-2.989,-2.9242,-2.9242,-2.7928,-2.6755,-2.6755,-2.5962,-2.5308,-2.5308,-2.5308,-2.5308,-2.5308,-2.5385,-2.5404,-2.5308,-2.5308,-2.5308,-2.5313,-2.5317,-2.5303,-2.5303,-2.5327,-2.5351,-2.5452,-2.6184,-2.667,-2.6766,-2.7594,-2.8056,-2.8056,-2.8922,-2.937,-2.9365,-3.0215,-3.061,-3.062,-3.062,-3.1207,-2.6405,-2.6481,-2.6649,-2.7305,-2.7487,-2.7651,-2.8321,-2.9522,-3.0711,-3.1382,-3.316,-3.495,-3.6068,-3.6874,-3.7671,-3.8641,-3.8681,-3.8316,-3.7502,-3.7309,-3.684,-3.5718,-3.56,-3.56,-3.56,-3.4928,-3.4592,-3.4759,-3.3882,-3.3486,-3.3841,-3.3575,-3.3521,-3.3756,-3.3708,-3.3698,-3.3739,-3.378,-3.3807,-3.3807,-3.3807,-3.355,-3.3091,-3.2748,-3.2427,-3.2142,-3.1953,-3.1965,-3.2078,-3.2078,-3.2078,-3.2088,-3.2194,-3.2305,-3.2613,-3.4041,-3.4656,-3.4737,-3.4737,-3.4737,-3.4603,-3.3737,-3.343,-3.3372,-3.3006,-3.2891,-3.2891,-3.2891,-3.2564,-3.2122,-3.1795,-3.1308,-3.0712,-2.9852,-2.9377,-2.8973,-2.8492,-2.7448,-2.6601,-2.6601,-2.5904,-2.5308,-2.5308,-2.5308,-2.5308,-2.5308,-2.5308,-2.5308,-2.5308,-2.5308,-2.5308,-2.5308,-2.5308,-2.5308,-2.5308,-2.5308,-2.5308,-2.5308,-2.5635,-2.5846,-2.5846,-2.6678,-2.714,-2.714,-2.7995,-2.8454,-2.8494,-2.8895,-2.9342,-2.9832,-2.9832,-3.0341,-2.5307,-2.5307,-2.5495,-2.6153,-2.6318,-2.657,-2.7467,-2.8474,-2.9521,-3.0607,-3.2244,-3.3836,-3.4997,-3.5948,-3.6825,-3.7637,-3.7838,-3.7695,-3.7118,-3.6999,-3.6612,-3.5673,-3.5577,-3.56,-3.56,-3.4759,-3.4244,-3.433,-3.3062,-3.2423,-3.2724,-3.2547,-3.2586,-3.2896,-3.3063,-3.3326,-3.3629,-3.3533,-3.3587,-3.3807,-3.3587,-3.3151,-3.2583,-3.2142,-3.1581,-3.096,-3.1006,-3.1084,-3.1171,-3.1171,-3.1171,-3.1182,-3.1269,-3.1372,-3.1637,-3.2727,-3.3394,-3.3787,-3.3813,-3.3807,-3.3679,-3.2821,-3.2558,-3.2526,-3.2275,-3.2218,-3.2218,-3.2218,-3.1795,-3.1346,-3.1346,-3.0692,-2.989,-2.9261,-2.8742,-2.8261,-2.7659,-2.6851,-2.6231,-2.6231,-2.5731,-2.5308,-2.5308,-2.5308,-2.5308,-2.5308,-2.5115,-2.4962,-2.4962,-2.475,-2.4615,-2.4615,-2.4615,-2.4615,-2.4615,-2.4615,-2.4615,-2.4615,-2.4846,-2.4962,-2.4962,-2.5788,-2.6231,-2.6231,-2.7108,-2.7562,-2.7605,-2.7855,-2.8307,-2.8922,-2.913,-2.9571,-2.4634,-2.4634,-2.4784,-2.5457,-2.563,-2.5833,-2.6651,-2.7567,-2.8652,-3.0115,-3.1747,-3.3146,-3.3826,-3.5044,-3.6052,-3.6387,-3.739,-3.7769,-3.6751,-3.707,-3.6913,-3.566,-3.5549,-3.56,-3.56,-3.4303,-3.344,-3.344,-3.209,-3.1342,-3.1551,-3.1731,-3.2004,-3.2419,-3.2189,-3.2517,-3.3491,-3.2935,-3.3036,-3.3788,-3.3005,-3.2619,-3.2546,-3.098,-2.9843,-2.909,-2.909,-2.909,-2.909,-2.909,-2.909,-2.9095,-2.923,-2.9363,-2.961,-3.0553,-3.1689,-3.2748,-3.2831,-3.2847,-3.2709,-3.1898,-3.1674,-3.1583,-3.0731,-3.0481,-3.0481,-3.0481,-3.0462,-3.0442,-3.0442,-2.9794,-2.9127,-2.9107,-2.7852,-2.6678,-2.664,-2.5942,-2.5346,-2.5346,-2.5327,-2.5308,-2.5308,-2.5308,-2.5308,-2.5308,-2.4639,-2.4149,-2.4149,-2.3394,-2.2874,-2.2874,-2.2874,-2.2874,-2.2874,-2.2874,-2.2874,-2.2874,-2.3663,-2.4149,-2.4149,-2.4909,-2.5346,-2.5346,-2.6197,-2.664,-2.6645,-2.7491,-2.792,-2.7958,-2.8747,-2.9113,-2.3939,-2.3939,-2.4103,-2.4769,-2.4933,-2.5241,-2.6396,-2.6898,-2.7659,-2.9482,-3.0315,-3.1171,-3.268,-3.3681,-3.4546,-3.5353,-3.599,-3.6243,-3.5929,-3.6065,-3.595,-3.5315,-3.5441,-3.56,-3.56,-3.4286,-3.3406,-3.3406,-3.2036,-3.1249,-3.1351,-3.1562,-3.1805,-3.2109,-3.184,-3.1885,-3.237,-3.1819,-3.17,-3.1996,-3.1283,-3.0962,-3.098,-2.9886,-2.9262,-2.9005,-2.9005,-2.9005,-2.9005,-2.9005,-2.9005,-2.9017,-2.9089,-2.9181,-2.931,-2.9682,-3.0123,-3.0685,-3.1431,-3.1722,-3.1678,-3.0918,-3.0753,-3.0788,-3.05,-3.0,-2.9544,-2.9544,-2.914,-2.8736,-2.8736,-2.8525,-2.8165,-2.7582,-2.7005,-2.6447,-2.5865,-2.5519,-2.5308,-2.5308,-2.5308,-2.5308,-2.5308,-2.5308,-2.4923,-2.3812,-2.3894,-2.3898,-2.3317,-2.299,-2.2797,-2.2797,-2.2797,-2.2797,-2.2797,-2.2797,-2.2797,-2.2797,-2.3086,-2.324,-2.324,-2.4048,-2.4509,-2.4509,-2.5313,-2.5731,-2.5731,-2.6038,-2.6467,-2.7044,-2.7313,-2.8044,-2.3595,-2.3595,-2.3699,-2.4126,-2.4231,-2.459,-2.5944,-2.6243,-2.6871,-2.9142,-2.9606,-3.0178,-3.2153,-3.3051,-3.3801,-3.4727,-3.5385,-3.5703,-3.5631,-3.5648,-3.5576,-3.529,-3.5402,-3.5503,-3.5571,-3.4242,-3.3406,-3.3406,-3.2036,-3.123,-3.1254,-3.1406,-3.1579,-3.1804,-3.1147,-3.1022,-3.1511,-3.0714,-3.0401,-3.0567,-3.0201,-2.9948,-2.9739,-2.9244,-2.9005,-2.9005,-2.9005,-2.9005,-2.9005,-2.9005,-2.9005,-2.9005,-2.9051,-2.91,-2.913,-2.9174,-2.9071,-2.9047,-3.0188,-3.0644,-3.0696,-3.0271,-3.0017,-2.9907,-2.9894,-2.9304,-2.8631,-2.8631,-2.8266,-2.7863,-2.786,-2.7654,-2.7294,-2.6736,-2.6365,-2.5981,-2.5423,-2.5308,-2.5308,-2.5308,-2.5308,-2.5212,-2.4928,-2.462,-2.3947,-2.2543,-2.2816,-2.2855,-2.2023,-2.1908,-2.1908,-2.1908,-2.1908,-2.1908,-2.1908,-2.1908,-2.1908,-2.1908,-2.2177,-2.2331,-2.2331,-2.3163,-2.3644,-2.3644,-2.4447,-2.487,-2.487,-2.5154,-2.5596,-2.6135,-2.6447,-2.7178,-2.3595,-2.3595,-2.3595,-2.3595,-2.3595,-2.3954,-2.53,-2.5615,-2.6363,-2.9052,-2.9606,-3.0178,0.0,0.0,-3.377,-3.4556,-3.5518,-3.6075,-3.5792,-3.5811,-3.5728,0.0,0.0,-3.5314,-3.5469,-3.4216,0.0,-3.3406,0.0,-3.119,-3.119,-3.119,-3.1288,-3.1479,-3.0195,-2.9936,-3.0921,-2.9664,-2.9191,-2.9534,-2.9733,-2.9551,-2.9005,-2.9005,-2.9005,-2.9005,-2.9005,-2.9005,-2.9005,-2.8968,-2.8932,-2.8932,-2.8895,-2.8877,-2.8877,-2.8877,-2.8393,-2.7889,-2.9053,-2.9568,-2.9733,-2.9863,-2.9508,-2.897,-2.8944,-2.8356,-2.7717,-2.7737,-2.7698,-2.7672,-2.7668,-2.7099,-2.6524,-2.6524,-2.5904,-2.5308,-2.5308,-2.5308,-2.5308,-2.5308,-2.5269,-2.4981,-2.4163,-2.3355,-2.2509,-2.1639,-2.1504,-2.1212,-2.0404,-2.0308,-2.0308,-2.0308,-2.0308,-2.0308,-2.0308,-2.0308,-2.0308,-2.0308,-2.1019,-2.1446,-2.1446,-2.2274,-2.274,-2.274,-2.3624,-2.411,-2.411,-2.4909,-2.5308,-2.5327,-2.6154,-2.6563,-2.3595,-2.3595,-2.3595,-2.3595,-2.3595,-2.3954,-2.53,-2.5615,-2.6363,-2.9052,-2.9606,-3.0178,-3.2153,-3.3051,-3.374,-3.443,-3.52,0.0,-3.5171,-3.4976,0.0,-3.4686,0.0,-3.488,-3.5158,-3.4112,0.0,-3.3406,-3.2036,-3.119,-3.119,-3.119,-3.1249,-3.1351,-3.0052,-2.9524,-2.9885,-2.8724,-2.8266,-2.8569,-2.882,-2.8961,-2.9005,-2.9005,-2.9005,-2.9005,-2.9005,-2.9005,-2.895,-2.8356,-2.8117,-2.8044,-2.7446,-2.7207,-2.7207,-2.7207,-2.7079,-2.6964,-2.7325,-2.7922,-2.8568,-2.8755,-2.8833,-2.8739,-2.8147,-2.7358,-2.6683,-2.6746,-2.6249,-2.5746,-2.5836,-2.5742,-2.5635,-2.5635,-2.5462,-2.5308,-2.5308,-2.5308,-2.5308,-2.5308,-2.4812,-2.4125,-2.3278,-2.2951,-2.2509,-2.1639,-2.1504,-2.1212,-2.0404,-2.0308,-2.0308,-2.0308,-2.0308,-2.0308,-2.0308,-2.0308,-2.0308,-2.0308,-2.0481,-2.0615,-2.0615,-2.1389,-2.1831,-2.1831,-2.3336,-2.411,-2.411,-2.4909,-2.5308,-2.5308,-2.5538,-2.5981,-2.3595,-2.3595,-2.3595,-2.3595,-2.3819,-2.4328,-2.5375,-2.5839,-2.6722,-2.9112,-2.9606,-3.0178,-3.2153,-3.3051,-3.3709,-3.4399,0.0,0.0,-3.5269,-3.4729,-3.4417,0.0,-3.4533,0.0,-3.497,-3.4046,-3.3406,-3.3406,-3.2036,-3.119,-3.119,-3.119,-3.123,-3.1235,-2.9904,-2.8886,-2.8288,-2.7769,-2.7537,-2.7549,-2.7854,-2.7967,-2.7959,-2.7959,-2.7959,-2.7959,-2.7959,-2.7959,-2.7904,-2.7457,-2.7273,-2.7236,-2.6778,-2.6602,-2.6602,-2.6602,-2.6374,-2.6127,-2.6526,-2.6776,-2.7017,-2.7604,-2.7711,-2.7521,-2.7084,-2.6343,-2.5697,-2.5702,-2.5348,-2.4975,-2.5087,-2.5185,-2.5259,-2.5288,-2.5298,-2.5192,-2.4851,-2.4774,-2.4659,-2.4274,-2.3524,-2.2797,-2.2312,-2.1947,-2.1543,-2.1038,-2.0962,-2.0808,-2.0365,-2.0308,-2.0308,-2.0308,-2.0308,-2.0308,-2.0308,-2.0308,-2.0308,-2.0308,-2.0308,-2.0308,-2.0308,-2.0731,-2.0962,-2.0962,-2.2663,-2.3528,-2.3528,-2.4712,-2.5308,-2.5308,-2.5308,-2.5558,-2.3595,-2.3595,-2.3595,-2.3595,-2.4096,-2.4784,-2.5442,-2.6123,-2.7141,-2.9082,-2.9547,-3.0163,-3.2048,-3.2916,-3.3604,-3.4384,0.0,-3.5449,-3.5655,-3.4713,-3.4236,-3.4849,-3.4468,-3.4276,-3.4655,-3.3912,-3.3372,-3.3271,-3.1985,-3.119,-3.119,-3.119,-3.1106,-3.0903,-2.9568,-2.8163,-2.6708,-2.7021,-2.7,-2.6682,-2.7009,-2.6953,-2.657,-2.6551,-2.6562,-2.6573,-2.6573,-2.6583,-2.6583,-2.6484,-2.6447,-2.6429,-2.6319,-2.6282,-2.6282,-2.6282,-2.5841,-2.5338,-2.6043,-2.5823,-2.5406,-2.6451,-2.6456,-2.6031,-2.5914,-2.5393,-2.4823,-2.4768,-2.4801,-2.4851,-2.4942,-2.4997,-2.5028,-2.5098,-2.5033,-2.4769,-2.4086,-2.3937,-2.3663,-2.2797,-2.2023,-2.1466,-2.137,-2.075,-2.0308,-2.0308,-2.0308,-2.0308,-2.0308,-2.0308,-2.0308,-2.0308,-2.0308,-2.0308,-2.0308,-2.0308,-2.0308,-2.0308,-2.0308,-2.0308,-2.0308,-2.0308,-2.0308,-2.0308,-2.1831,-2.2682,-2.2797,-2.4389,-2.5192,-2.5308,-2.5308,-2.5308,-2.3595,-2.3595,-2.3595,-2.3595,-2.4096,-2.4784,-2.5442,-2.6123,0.0,0.0,-2.9205,-3.0013,-3.1421,-3.2213,-3.308,-3.4309,-3.4608,-3.4878,-3.5447,-3.4431,-3.3849,0.0,-3.4024,-3.3693,-3.3669,-3.3506,0.0,0.0,-3.1701,-3.119,-3.119,-3.119,-3.0632,-2.9416,-2.8501,-2.7587,-2.6708,-2.6972,-2.6909,-2.6539,-2.6809,-2.6744,-2.6361,-2.6358,-2.6385,-2.6447,-2.649,0.0,-2.6557,-2.5888,-2.5613,-2.554,-2.4869,-2.4612,-2.4612,-2.4612,-2.452,-2.4428,-2.4575,-2.452,-2.4567,-2.5476,-2.5773,-2.5646,-2.4972,-2.4682,-2.4569,-2.4561,-2.4569,-2.461,-2.4712,-2.4397,-2.406,-2.4129,-2.3683,-2.3201,-2.3067,-2.3028,-2.2778,-2.1889,-2.16,-2.1293,-2.0615,-2.0385,-2.0308,-2.0308,-2.0308,-2.0308,-2.0308,-2.0308,-2.0308,-2.0308,-2.0308,-2.0308,-2.0308,-2.0308,-2.0308,-2.0308,-2.0308,-2.0308,-2.0308,-2.0308,-2.0308,-2.0308,-2.1235,-2.2081,-2.2797,-2.3817,-2.4639,-2.5308,-2.5308,-2.5308,-2.4111,-2.3879,-2.3595,-2.3595,-2.4373,-2.5187,-2.554,0.0,0.0,0.0,-2.8846,-2.946,-3.0733,-3.1525,-3.2288,-3.3305,-3.4023,-3.4503,-3.4457,-3.3903,-3.3578,-3.3764,-3.3548,-3.3342,-3.3202,-3.32,-3.29,-3.2242,-3.1576,-3.119,-3.119,-3.0835,-2.9939,-2.8433,-2.7993,-2.7435,-2.6725,-2.6924,-2.6597,-2.5732,-2.5914,-2.5551,-2.4699,-2.4761,-2.4863,-2.4991,-2.5095,-2.5226,-2.5328,-2.4934,-2.4787,-2.475,-2.4355,-2.419,-2.419,-2.419,-2.419,-2.419,-2.419,-2.419,-2.4273,-2.4688,-2.4912,-2.4938,-2.4521,-2.4419,-2.4436,-2.441,-2.4419,-2.4479,-2.461,-2.4167,-2.3714,-2.3774,-2.2908,-2.2072,-2.2072,-2.1727,-2.1262,-2.0855,-2.0778,-2.0644,-2.0257,-2.0212,-2.0244,-2.0256,-2.0249,-2.0261,-2.0308,-2.0308,-2.0308,-2.0308,-2.0308,-2.0308,-2.0308,-2.0308,-2.0308,-2.0308,-2.0308,-2.0308,-2.0308,-2.0308,-2.0308,-2.0308,-2.1096,-2.1716,-2.212,-2.3451,-2.4298,-2.4697,-2.5096,-2.5308,-2.4844,-2.4321,-2.3849,-2.3999,-2.4822,-2.5644,-2.5794,-2.6746,0.0,-2.8263,-2.8502,-2.8951,-3.0103,-3.0823,-3.1555,-3.2377,-3.338,-3.3918,-3.3544,-3.338,-3.3261,0.0,-3.3115,0.0,-3.2675,-3.2784,0.0,-3.1842,-3.128,-3.0954,-3.0954,-3.0108,-2.9041,-2.7841,-2.7655,-2.73,-2.6725,-2.6705,-2.6131,-2.4962,-2.492,-2.4279,-2.3135,-2.3271,-2.345,-2.3639,-2.3774,-2.3966,-2.4161,-2.417,-2.418,-2.419,-2.419,-2.419,-2.419,-2.419,-2.419,-2.419,-2.419,-2.419,-2.419,-2.419,-2.4266,-2.4349,-2.4294,-2.4331,-2.4349,-2.4294,-2.4331,-2.4375,-2.4488,-2.39,-2.3193,-2.2931,-2.1945,-2.1051,-2.1051,-2.0527,-2.0045,-2.0045,-2.0045,-2.0045,-2.0045,-2.0093,-2.0145,-2.0148,-2.0178,-2.0203,-2.0285,-2.0308,-2.0308,-2.0308,-2.0308,-2.0308,-2.0308,-2.0308,-2.0308,-2.0308,-2.0308,-2.0308,-2.0308,-2.0308,-2.0308,-2.0308,-2.0923,-2.1331,-2.1504,-2.2874,-2.3725,-2.4129,-2.4755,-2.5135,-2.5674,-2.5008,-2.4649,-2.5247,-2.551,-2.5764,-2.6363,0.0,-2.7615,-2.7675,-2.8173,-2.8816,-2.9535,-3.0178,-3.1016,-3.2302,-3.2617,-3.2886,-3.3425,-3.2976,-3.2706,-3.2998,0.0,0.0,-3.1521,-3.2057,-3.1996,-3.0912,-3.044,-3.019,-3.019,-2.8804,-2.7959,-2.7807,-2.7165,-2.6759,-2.6691,-2.6113,-2.5475,-2.4802,-2.4218,-2.3582,-2.2927,-2.3065,-2.3247,-2.344,-2.3573,-2.3785,0.0,-2.4084,-2.4151,-2.419,-2.419,-2.419,-2.419,-2.419,-2.419,-2.419,-2.419,-2.419,-2.419,-2.419,-2.4199,-2.4209,-2.4209,-2.4209,-2.4209,-2.4209,-2.4209,-2.4237,-2.4312,-2.3242,-2.182,-2.0477,-2.0059,-1.9951,-1.9951,-1.9875,-1.9838,-1.9838,-1.9838,-1.9838,-1.9838,-1.9877,-1.9941,-2.0007,-2.0073,-2.0165,-2.0281,-2.0308,-2.0308,-2.0308,-2.0308,-2.0308,-2.0308,-2.0308,-2.0308,-2.0308,-2.0308,-2.0308,-2.0308,-2.0308,-2.0308,-2.0308,-2.0365,-2.0769,-2.1504,-2.1658,-2.2547,-2.411,-2.4187,-2.4601,-2.6654,-2.6,-2.5477,-2.5664,-2.597,-2.6273,-2.6527,-2.7121,-2.76,-2.76,-2.7809,-2.8334,-2.9412,-2.9816,-3.0372,-3.1675,-3.2228,-3.2437,-3.2303,-3.2392,-3.2436,-3.2308,-3.2331,0.0,0.0,0.0,-3.1649,-3.0432,-2.9321,-2.872,-2.872,-2.8128,-2.7604,-2.7165,-2.6843,-2.6691,-2.6691,-2.598,-2.5299,-2.4611,-2.3908,-2.3187,-2.2538,-2.2672,-2.2833,-2.2995,-2.3259,-2.3535,0.0,-2.3945,-2.4074,-2.419,-2.419,-2.419,-2.419,-2.419,-2.419,-2.419,-2.419,-2.419,-2.419,-2.419,-2.419,-2.419,-2.419,-2.419,-2.419,-2.419,-2.419,-2.4209,-2.4229,-2.3137,-2.1615,-2.0094,-1.9732,-1.9732,-1.9732,-1.9732,-1.9732,-1.9732,-1.9732,-1.9732,-1.9732,-1.98,-1.9858,-1.9939,-2.0011,-2.0083,-2.0225,-2.0249,-2.0261,-2.0308,-2.0308,-2.0308,-2.0308,-2.0308,-2.0308,-2.0308,-2.0308,-2.0308,-2.0308,-2.0308,-2.0308,-2.0308,-2.0308,-2.0462,-2.0769,-2.125,-2.212,-2.3336,-2.386,-2.4529,-2.7868,-2.7111,-2.6451,-2.6502,-2.641,-2.6408,-2.6821,-2.7121,-2.736,-2.7555,-2.76,-2.8004,-2.9352,-2.9606,-3.0013,-3.1286,-3.1899,-3.2034,-3.157,-3.1914,-3.2092,-3.1758,0.0,-3.1454,-3.0783,-3.0958,-3.0744,-2.9848,-2.8551,-2.7705,-2.7486,-2.7469,-2.7249,-2.6708,-2.6691,-2.6691,-2.6691,-2.5744,-2.5,-2.4491,-2.3528,-2.2801,-2.231,-2.2419,-2.2548,-2.2691,-2.2998,-2.3336,0.0,-2.3806,-2.3996,-2.419,-2.419,-2.419,-2.419,-2.419,-2.419,-2.419,-2.419,-2.419,-2.419,-2.419,-2.4043,-2.3859,-2.3859,-2.4006,-2.419,-2.419,-2.4025,-2.374,-2.3235,-2.2338,-2.1218,-1.9894,-1.958,-1.958,-1.958,-1.958,-1.958,-1.958,-1.958,-1.958,-1.958,-1.9635,-1.9713,-1.98,-1.9885,-1.9991,-2.0111,-2.015,-2.0199,-2.0285,-2.0308,-2.0308,-2.0308,-2.0308,-2.0308,-2.0308,-2.0308,-2.0308,-2.0308,-2.0308,-2.0308,-2.0308,-2.0308,-2.0308,-2.0308,-2.0865,-2.1716,-2.2816,-2.3432,-2.4274,-2.9317,-2.8309,-2.7605,-2.806,-2.6862,-2.5959,-2.7285,-2.7091,-2.6806,-2.7465,-2.76,-2.8004,-2.9352,-2.9606,-3.0013,-3.1286,-3.1511,-3.1511,-3.1511,-3.1511,-3.1511,0.0,-3.0926,-3.0458,-3.0324,-2.9546,-2.9022,-2.9006,-2.8264,0.0,-2.6742,-2.6708,-2.6708,-2.6691,-2.6691,-2.6691,-2.6691,-2.5235,-2.4508,-2.4474,-2.3004,-2.2296,-2.2296,-2.238,-2.2474,-2.2619,-2.2893,-2.3188,0.0,-2.3714,-2.3966,-2.419,-2.419,-2.419,-2.419,-2.419,-2.419,-2.419,-2.419,-2.419,-2.419,-2.419,-2.3657,-2.3006,-2.3006,-2.3566,-2.419,-2.419,-2.3639,-2.2639,-2.097,-2.0529,-2.0309,-1.9499,-1.9297,-1.9297,-1.9297,-1.9297,-1.9297,-1.9297,-1.9297,-1.9297,-1.9297,-1.9357,-1.9445,-1.9576,-1.9713,-1.9851,-1.9969,-2.0069,-2.0142,-2.0281,-2.0308,-2.0308,-2.0308,-2.0308,-2.0308,-2.0308,-2.0308,-2.0308,-2.0308,-2.0308,-2.0308,-2.0308,-2.0308,-2.0308,-2.0308,-2.0308,-2.1177,-2.2797,-2.2816,-2.3716,-2.9704,-2.9166,-2.8714,-2.8693,-2.809,-2.7594,-2.7932,-2.7773,-2.7599,-2.772,-2.765,-2.8004,-2.9352,-2.9606,-3.0013,-3.1286,-3.1511,-3.1511,-3.1511,-3.1511,0.0,-3.1511,-3.0827,-3.0371,0.0,0.0,-2.8458,-2.8955,-2.7791,-2.6945,-2.6708,-2.6691,-2.6691,-2.6691,-2.6691,-2.6454,-2.5947,-2.4998,-2.4254,-2.3746,-2.2767,-2.2296,-2.2296,-2.2324,-2.2349,-2.2405,-2.2672,-2.298,-2.3305,-2.3555,-2.3886,-2.419,-2.419,-2.419,-2.419,-2.419,-2.419,-2.419,-2.419,-2.3841,-2.3373,-2.3373,-2.2832,-2.218,-2.218,-2.2363,-2.2565,-2.2565,-2.2382,-2.1914,-2.0786,-2.0503,-2.0309,-1.9499,-1.9297,-1.9297,-1.9297,-1.9297,-1.9297,-1.9297,-1.9297,-1.9297,-1.9297,-1.9353,-1.9431,-1.9525,-1.9648,-1.9788,-1.9918,-1.9981,-2.0079,-2.0149,-2.0195,-2.0244,-2.0304,-2.0308,-2.0308,-2.0308,-2.0308,-2.0308,-2.0308,-2.0308,-2.0308,-2.0308,-2.0308,-2.0308,-2.0308,-2.0308,-2.1158,-2.2816,-2.3413,-2.4274,-3.0305,-2.9962,-2.9633,-2.9371,-2.8861,-2.8428,-2.8528,-2.815,-2.7826,-2.7929,-2.775,-2.8004,-2.9352,-2.9606,-3.0013,-3.1286,-3.1511,-3.1511,-3.1511,0.0,0.0,-3.0823,-3.0506,0.0,0.0,-2.8558,-2.8075,-2.8498,-2.7402,-2.6691,-2.6691,-2.6691,-2.6691,-2.6691,-2.6691,-2.6471,-2.6031,-2.527,-2.4541,-2.3814,-2.3071,-2.2567,-2.2296,-2.2296,-2.2296,-2.231,-2.2579,-2.2892,0.0,-2.35,-2.3837,-2.419,-2.419,-2.419,-2.419,-2.419,-2.419,-2.419,-2.419,-2.3878,-2.3391,-2.3098,-2.2217,-2.1253,-2.0949,-2.1298,-2.1721,-2.14,-2.1308,-2.1106,-2.028,-2.0052,-1.9932,-1.9426,-1.9297,-1.9297,-1.9297,-1.9297,-1.9297,-1.9297,-1.9297,-1.9297,-1.9297,-1.9331,-1.9379,-1.942,-1.9532,-1.9648,-1.9775,-1.9847,-1.9915,-1.9981,-2.004,-2.0112,-2.0188,-2.0222,-2.0265,-2.0308,-2.0308,-2.0308,-2.0308,-2.0308,-2.0308,-2.0308,-2.0308,-2.0308,-2.0308,-2.0596,-2.1466,-2.2816,-2.3682,-2.4529,0.0,-3.0654,-3.0288,-3.0075,-2.9281,-2.864,-2.9053,-2.8348,0.0,-2.8154,-2.79,-2.8045,-2.9367,-2.9606,-3.0013,-3.1286,-3.1511,-3.1511,-3.1511,-3.1466,0.0,0.0,-2.9985,-2.9714,-2.8411,-2.804,-2.7858,-2.7787,-2.7114,-2.6691,-2.6691,-2.6691,-2.6691,-2.6691,-2.6691,-2.6674,-2.6623,-2.5947,-2.522,-2.4491,-2.3814,-2.3088,-2.2381,-2.2381,-2.2347,0.0,-2.2579,-2.2892,-2.3212,-2.35,-2.3837,-2.419,-2.419,-2.419,-2.419,-2.419,-2.419,-2.419,-2.419,-2.4153,-2.3969,-2.3098,-2.1777,-2.0346,-1.9528,-2.038,-2.1445,-2.0639,-2.0419,-2.0236,-1.9499,-1.9297,-1.9297,-1.9297,-1.9297,-1.9297,-1.9297,-1.9297,-1.9297,-1.9297,-1.9297,-1.9297,-1.9297,-1.9297,-1.9297,-1.9297,-1.9357,-1.9456,-1.9587,-1.9649,-1.9713,-1.9786,-1.9843,-1.9915,-1.9993,-2.0114,-2.0211,-2.0308,-2.0308,-2.0308,-2.0308,-2.0308,-2.0308,-2.0308,-2.0308,-2.0308,-2.0308,-2.1058,-2.1889,-2.2816,-2.3624,-2.4471,-3.1504,0.0,-3.0572,-3.0426,-3.0084,-2.9751,0.0,-2.9243,-2.8816,-2.8622,0.0,-2.8288,-2.9516,-2.9675,-3.0013,-3.1286,-3.1511,-3.1511,-3.1511,-3.1047,-3.0447,-2.9696,-2.9511,-2.9095,-2.8173,-2.7827,-2.766,-2.7643,-2.701,-2.6657,-2.6691,-2.6691,-2.6691,-2.6691,-2.6691,-2.642,-2.5862,-2.5693,-2.522,-2.4491,-2.4321,-2.3864,-2.3139,-2.3139,-2.2835,-2.231,-2.2579,-2.2892,-2.3212,-2.35,-2.3837,-2.419,-2.419,-2.419,-2.419,-2.419,-2.419,-2.419,-2.419,-2.3804,-2.3043,-2.1575,-2.0823,-2.0346,-1.9528,-1.9572,-1.9848,-1.9646,-1.9583,-1.9536,-1.9352,-1.9297,-1.9297,-1.9297,-1.9297,-1.9297,-1.9297,-1.9297,-1.9297,-1.9297,-1.9297,-1.9297,-1.9297,-1.9297,-1.9297,-1.9297,-1.9364,-1.9424,-1.9506,-1.9585,-1.9647,-1.9713,-1.9776,-1.9854,-1.9918,-2.006,-2.0174,-2.0285,-2.0308,-2.0308,-2.0308,-2.0308,-2.0308,-2.0308,-2.0308,-2.0308,-2.0308,-2.0481,-2.135,-2.2797,-2.3009,-2.3889,-3.1747,-3.1329,-3.0895,-3.0834,-3.0733,-3.0609,-3.0363,-3.0027,0.0,0.0,0.0,-2.8583,-2.9735,-2.9753,-3.0013,-3.1286,-3.1511,-3.1391,-3.1077,-3.0746,-3.0163,-2.925,-2.9115,-2.8621,-2.7382,-2.7333,-2.7215,-2.6889,-2.6617,-2.6521,-2.6691,-2.6691,-2.6691,-2.6691,-2.6691,-2.6505,-2.6116,-2.6099,-2.5727,-2.5,-2.5,-2.4441,-2.3393,-2.3393,-2.3004,-2.231,-2.2555,-2.2846,-2.3177,-2.3439,-2.3782,-2.4103,-2.4151,-2.417,-2.419,-2.419,-2.419,-2.419,-2.419,-2.3676,-2.2859,-2.1942,-2.1135,-2.0419,-1.9987,-1.9583,-1.9297,-1.9297,-1.9297,-1.9297,-1.9297,-1.9297,-1.9297,-1.9297,-1.9297,-1.9297,-1.9297,-1.9297,-1.9297,-1.9297,-1.9297,-1.9426,-1.9785,-1.9858,-1.9858,-1.9858,-2.0223,-2.0365,-2.0007,-2.0343,-2.0614,-2.0659,-2.0726,-2.0644,-2.0333,-2.0446,-2.045,-2.0275,-2.0253,-2.0261,-2.0308,-2.0308,-2.0308,-2.0308,-2.0308,-2.0308,-2.0308,-2.0308,-2.1158,-2.2797,-2.2797,-2.3697,-3.1893,-3.1606,-3.1326,-3.1224,-3.119,-3.1151,-3.0952,0.0,0.0,0.0,0.0,0.0,-2.9898,-2.9818,0.0,-3.1286,-3.1511,0.0,-3.0597,-3.0417,-2.9924,-2.8742,-2.8736,-2.8179,-2.651,-2.6767,-2.6709,-2.5967,-2.6119,-2.6365,-2.6641,-2.6657,-2.6674,-2.6691,-2.6691,-2.6691,-2.6691,-2.6691,-2.6387,-2.5778,-2.5778,-2.5,-2.3577,-2.3577,-2.3105,-2.231,-2.2501,0.0,-2.3067,-2.3336,-2.3642,-2.3947,-2.4036,-2.4113,-2.419,-2.419,-2.419,-2.419,-2.419,-2.3749,-2.3153,-2.3043,-2.2034,-2.0859,-2.0749,-2.0225,-1.9646,-1.9517,-1.9389,-1.9297,-1.9297,-1.9297,-1.9297,-1.9297,-1.9297,-1.9297,-1.9297,-1.9297,-1.9297,-1.9297,-1.9297,-1.9572,-2.0364,-2.0503,-2.0503,-2.0503,-2.1235,-2.15,-2.0621,-2.1253,-2.1794,-2.1794,-2.1854,-2.1594,-2.0856,-2.0904,-2.0744,-2.0183,-2.0178,-2.023,-2.0308,-2.0308,-2.0308,-2.0308,-2.0308,-2.0308,-2.0308,-2.0308,-2.1158,-2.2797,-2.2797,-2.3697,-3.2056,-3.2044,-3.1989,-3.136,-3.119,-3.1151,-3.0952,0.0,0.0,0.0,0.0,0.0,0.0,-2.978,-3.0013,0.0,0.0,-3.1271,-3.0597,-3.0058,-2.9472,-2.8682,-2.8252,-2.7491,-2.626,-2.6459,-2.6351,-2.5556,-2.5791,-2.61,-2.6435,-2.6555,-2.664,-2.6691,-2.6691,-2.6691,-2.6691,-2.6691,-2.664,-2.6522,-2.6522,-2.576,-2.4321,-2.4321,-2.3594,-2.231,0.0,-2.2611,-2.2789,-2.3121,-2.344,-2.3764,-2.3886,-2.4036,-2.419,-2.419,-2.419,-2.419,-2.419,-2.4116,-2.3896,-2.3226,-2.2822,-2.2492,-2.1804,-2.1519,-2.1262,-2.0511,-1.9822,-1.9297,-1.9297,-1.9297,-1.9297,-1.9297,-1.9297,-1.9297,-1.9297,-1.9297,-1.9297,-1.9297,-1.9297,-1.9572,-2.0364,-2.0503,-2.0503,-2.0503,-2.1235,-2.15,-2.0621,-2.1253,-2.1794,-2.1794,-2.18,-2.1527,-2.0774,-2.0844,-2.0633,-1.9993,-2.006,-2.0174,-2.0285,-2.0308,-2.0308,-2.0308,-2.0308,-2.0308,-2.0308,-2.0308,-2.1158,-2.2797,-2.2797,-2.3697,-3.2092,-3.1859,-3.1633,-3.1275,-3.1799,-3.233,-3.2085,-3.1734,0.0,0.0,0.0,0.0,0.0,0.0,-3.0013,-3.1286,-3.1511,-3.1152,-3.0148,-2.9759,-2.9232,-2.8173,-2.7845,-2.7199,-2.5953,-2.607,-2.5843,-2.4922,-2.523,-2.5682,-2.6156,-2.6348,-2.6504,-2.6691,-2.6691,-2.6691,-2.6691,-2.6691,-2.6691,-2.6691,-2.6302,-2.5541,-2.4491,-2.4085,-2.3325,-2.231,0.0,-2.2521,-2.2673,-2.2977,-2.3283,-2.3599,-2.3785,-2.3996,-2.419,-2.419,-2.419,-2.419,-2.419,-2.419,-2.4135,-2.3768,-2.3354,-2.2933,-2.2556,-2.1822,-2.1015,-2.0621,-2.0236,-1.9858,-1.9407,-1.9297,-1.9297,-1.9297,-1.9297,-1.9297,-1.9297,-1.9297,-1.9297,-1.9297,-1.9656,-2.0225,-2.1051,-2.1557,-2.1703,-2.1272,-2.2281,-2.2639,-2.1363,-2.2299,-2.3098,-2.3098,-2.3097,-2.2609,-2.141,-2.1377,-2.1013,-2.0029,-2.0069,-2.0174,-2.0238,-2.0285,-2.0308,-2.0308,-2.0308,-2.0285,-2.0257,-2.0245,-2.1105,-2.2757,-2.2757,-2.3664,-3.2092,-3.1738,-3.1464,-3.1464,0.0,-3.2849,-3.2746,-3.237,0.0,0.0,0.0,0.0,0.0,-3.0473,-3.0357,-3.1346,-3.1376,-3.0896,-2.9771,-2.9472,-2.8933,-2.7735,-2.76,-2.7076,-2.5734,-2.5763,-2.5439,-2.441,-2.4759,-2.5288,-2.5905,-2.6155,-2.6418,-2.6691,-2.6522,-2.6437,-2.6437,-2.6268,-2.6268,-2.6437,-2.5879,-2.5118,-2.422,-2.3661,-2.3004,-2.231,-2.2349,-2.2432,-2.2555,-2.2829,-2.3128,-2.3448,-2.3671,-2.3927,-2.419,-2.419,-2.419,-2.419,-2.419,-2.419,-2.419,-2.419,-2.3786,-2.3244,-2.3061,-2.2107,-2.1006,-2.0613,-2.0503,-2.0309,-1.9517,-1.9297,-1.9297,-1.9297,-1.9297,-1.9352,-1.9528,-1.9426,-1.9352,-1.9528,-2.0071,-2.0786,-2.1647,-2.2464,-2.274,-2.1923,-2.3171,-2.363,-2.2014,-2.3208,-2.419,-2.419,-2.419,-2.3557,-2.194,-2.1695,-2.1139,-2.0001,-2.006,-2.0165,-2.0171,-2.0257,-2.0308,-2.0308,-2.0308,-2.0261,-2.0203,-2.0169,-2.1009,-2.2676,-2.2681,-2.3615,-3.2092,-3.2116,-3.2226,-3.2226,-3.1802,-3.1449,-3.1809,-3.1435,0.0,-3.1124,0.0,0.0,0.0,-3.1086,-3.1391,-3.1496,-3.0972,-3.0342,-2.9696,-2.9056,-2.8397,-2.769,-2.76,-2.7076,-2.5734,-2.5731,-2.5334,-2.4212,-2.4574,-2.5075,-2.5701,-2.6028,-2.6365,-2.6691,-2.6048,-2.5693,-2.5693,-2.4998,-2.4998,-2.5693,-2.5642,-2.4864,-2.3477,-2.341,-2.3004,-2.2296,-2.231,-2.231,-2.2338,-2.2605,-2.2917,-2.3247,-2.3511,-2.3847,-2.419,-2.419,-2.419,-2.419,-2.419,-2.419,-2.419,-2.419,-2.4153,-2.3969,-2.3226,-2.2914,-2.2492,-2.0951,-2.0503,-2.0309,-1.9517,-1.9297,-1.9297,-1.9297,-1.9297,-1.9499,-2.0254,-1.9822,-1.9517,-2.0272,-2.0456,-2.0786,-2.1647,-2.2464,-2.274,-2.1923,-2.3171,-2.363,-2.2014,-2.3208,-2.419,-2.419,-2.419,-2.3548,-2.1946,-2.1182,-2.0493,-1.9769,-1.9904,-2.0036,-2.0096,-2.0237,-2.0308,-2.0308,-2.0308,-2.0273,-2.0197,-2.0073,-2.0914,-2.2607,-2.2604,-2.3528,-3.2092,-3.1807,-3.1633,-3.1633,-3.1413,0.0,0.0,-3.2464,-3.1942,-3.2127,-3.1205,0.0,0.0,0.0,-3.0776,-3.0387,-3.0103,-2.9714,-2.9071,-2.8757,-2.8353,-2.7675,-2.76,-2.7076,-2.5734,-2.5661,-2.5152,-2.3872,-2.4224,-2.4739,-2.5351,-2.5775,-2.6008,-2.6015,-2.5761,-2.5389,-2.4915,-2.4643,-2.4406,-2.4239,-2.4239,-2.3934,-2.3376,-2.2936,-2.2564,-2.2296,-2.2296,-2.2296,-2.2324,-2.2538,-2.2833,-2.3182,-2.3573,-2.3837,-2.4016,-2.4064,-2.4094,-2.4151,-2.418,-2.419,-2.419,-2.419,-2.419,-2.4135,-2.3841,-2.3052,-2.2116,-2.1492,-2.0556,-1.9675,-1.9389,-1.9297,-1.9297,-1.9297,-1.9675,-2.0126,-2.0437,-2.0684,-2.0784,-2.0548,-2.1336,-2.1997,-2.1831,-2.2868,-2.329,-2.1996,-2.3171,-2.363,-2.2014,-2.3208,-2.419,-2.419,-2.3749,-2.3199,-2.2592,-2.1332,-2.0494,-2.0329,-2.0075,-1.9962,-2.0046,-2.0171,-2.0233,-2.0233,-2.0233,-2.018,-2.0084,-1.9986,-2.0787,-2.2413,-2.2468,-2.3415,-3.2161,-3.179,-3.1478,-3.1258,0.0,0.0,-3.2862,-3.2617,-3.2206,-3.2441,-3.1445,-3.0372,-2.9953,0.0,0.0,-2.9681,-2.94,-2.9116,-2.8667,-2.8412,-2.8124,-2.7645,-2.7405,-2.6851,-2.5719,-2.5397,-2.4822,-2.3684,-2.4036,-2.4558,-2.5163,-2.5645,-2.5804,-2.5609,-2.5372,-2.4898,-2.4152,-2.3915,-2.3545,-2.3054,-2.3054,-2.3054,-2.3038,-2.2533,-2.2296,-2.2296,-2.2296,-2.2296,-2.231,-2.2501,-2.2773,-2.3103,-2.3473,-2.3671,-2.3764,-2.3858,-2.3966,-2.4046,-2.4161,-2.419,-2.4153,-2.3896,-2.3988,-2.4098,-2.3612,-2.2859,-2.2069,-2.1528,-2.0766,-2.0031,-1.9748,-1.9675,-1.9748,-2.0013,-2.0501,-2.097,-2.1226,-2.1565,-2.1629,-2.1033,-2.184,-2.2446,-2.1886,-2.2923,-2.3456,-2.2336,-2.3327,-2.3712,-2.2354,-2.3364,-2.419,-2.419,-2.3712,-2.3281,-2.3024,-2.1722,-2.0846,-2.0686,-2.0116,-1.9822,-1.9934,-2.006,-2.0143,-2.0162,-2.0143,-2.0074,-1.9971,-1.9851,-2.0621,-2.2205,-2.226,-2.3219,-3.2301,-3.2151,-3.2124,-3.1396,0.0,0.0,-3.1705,-3.1489,-3.1466,-3.1742,-3.1097,-3.0492,-3.0492,-2.9983,0.0,-2.9592,-2.9011,-2.8592,-2.8592,-2.8034,-2.76,-2.7585,-2.7001,-2.6333,-2.5659,-2.4993,-2.4321,-2.3655,-2.4036,-2.4558,-2.5163,-2.5645,-2.5805,-2.5593,-2.488,-2.4135,-2.3393,-2.2651,-2.2296,-2.2296,-2.2296,-2.2296,-2.2296,-2.2296,-2.2296,-2.2296,-2.2296,-2.2296,-2.231,-2.2446,-2.2694,-2.3005,-2.3135,-2.3288,-2.3414,-2.361,-2.3785,-2.3927,-2.4141,-2.419,-2.4061,-2.3263,-2.3547,-2.3878,-2.229,-2.2354,-2.2639,-2.0988,-2.1143,-2.161,-2.0749,-2.0521,-2.0731,-2.1592,-2.1812,-2.2033,-2.2822,-2.2373,-2.1812,-2.1794,-2.1812,-2.1812,-2.1794,-2.2464,-2.3006,-2.2988,-2.3676,-2.3914,-2.3116,-2.3712,-2.419,-2.419,-2.419,-2.3878,-2.3079,-2.2263,-2.1462,-2.0649,-1.9904,-1.9589,-1.9788,-1.9936,-2.0026,-2.0108,-2.0026,-1.9977,-1.9904,-1.9701,-2.042,-2.2002,-2.2003,-2.297,-3.2511,-3.2375,-3.2307,-3.148,0.0,0.0,0.0,-3.1534,0.0,0.0,-3.0054,-2.9714,-2.925,-2.9011,0.0,-2.8274,-2.8034,-2.7899,-2.7899,-2.772,-2.742,-2.6956,-2.6707,-2.6153,-2.5008,-2.4724,-2.4321,-2.3655,-2.4036,-2.4558,-2.5163,-2.5645,-2.5573,-2.4847,-2.4609,-2.3898,-2.2649,-2.2398,-2.2296,-2.2296,-2.2296,-2.2296,-2.2296,-2.2296,-2.2296,-2.2296,-2.2296,-2.2296,-2.231,-2.2501,-2.2659,-2.2799,-2.2935,-2.3109,-2.3289,-2.3495,-2.3671,-2.3876,-2.4103,-2.419,-2.4061,-2.3263,-2.3153,-2.3263,-2.2795,-2.2428,-2.2171,-2.2235,-2.2042,-2.1867,-2.218,-2.2254,-2.218,-2.1867,-2.2226,-2.2721,-2.2951,-2.3254,-2.3153,-2.2014,-2.2263,-2.2281,-2.108,-2.2052,-2.2804,-2.2244,-2.3309,-2.4116,-2.3878,-2.4043,-2.419,-2.419,-2.419,-2.4098,-2.3859,-2.2584,-2.1692,-2.1462,-2.0126,-1.9471,-1.9725,-1.987,-1.9923,-1.9882,-1.9923,-1.9868,-1.9751,-1.9596,-2.0063,-2.1096,-2.171,-2.2637,-3.2766,-3.2613,0.0,-3.2012,-3.2295,-3.261,-3.2097,0.0,0.0,0.0,-2.9397,-2.9071,-2.8667,-2.8368,-2.8079,-2.766,-2.76,-2.76,-2.76,-2.7375,-2.7061,-2.6632,-2.6123,-2.5495,-2.4679,-2.435,-2.4044,-2.3625,-2.3994,-2.4477,-2.5063,-2.5255,-2.5037,-2.44,-2.4143,-2.3465,-2.2313,-2.2296,-2.2296,-2.2296,-2.2296,-2.2296,-2.2296,-2.2296,-2.2296,-2.2296,-2.2296,-2.2296,-2.231,-2.2432,-2.2501,-2.2555,-2.2619,-2.2803,-2.3028,-2.3283,-2.3533,-2.3774,-2.4084,-2.419,-2.4006,-2.2887,-2.2731,-2.2878,-2.2217,-2.2125,-2.2299,-2.2483,-2.263,-2.2786,-2.2951,-2.3244,-2.3345,-2.2877,-2.3125,-2.3492,-2.3492,-2.3621,-2.3345,-2.2051,-2.1914,-2.1685,-2.0668,-2.1336,-2.207,-2.2244,-2.3364,-2.419,-2.419,-2.419,-2.419,-2.419,-2.419,-2.4061,-2.3749,-2.2547,-2.1647,-2.1308,-2.0335,-1.9862,-2.0054,-2.0188,-2.0383,-2.067,-2.0708,-2.0681,-2.0562,-2.0119,-2.0328,-2.1142,-2.1313,-2.1925,-3.3029,-3.2915,-3.3052,-3.279,-3.3087,0.0,-3.2765,-3.1684,-3.0572,-2.9678,0.0,-2.8502,-2.8502,-2.8019,-2.76,-2.76,-2.76,-2.757,-2.751,-2.6986,-2.6542,-2.6422,-2.5337,-2.459,-2.4515,-2.3969,-2.358,-2.352,-2.3819,-2.4189,-2.4654,-2.4481,-2.4287,-2.4078,-2.3551,-2.2967,-2.2313,-2.2296,-2.2296,-2.2296,-2.2296,-2.2296,-2.2296,-2.2296,-2.2296,-2.2296,-2.2296,-2.2296,-2.2296,-2.2296,-2.2296,-2.2296,-2.2296,-2.246,-2.2734,-2.308,-2.3369,-2.366,-2.4054,-2.418,-2.3923,-2.229,-2.2272,-2.2593,-2.108,-2.1685,-2.2767,-2.218,-2.3079,-2.4025,-2.3299,-2.3657,-2.419,-2.419,-2.419,-2.4171,-2.4116,-2.3529,-2.2731,-2.1849,-2.1051,-2.0493,-2.0401,-2.0456,-2.1043,-2.2657,-2.3511,-2.3969,-2.3969,-2.3969,-2.3969,-2.3969,-2.3969,-2.3694,-2.2951,-2.2152,-2.1382,-2.0658,-2.0548,-2.0601,-2.0815,-2.0871,-2.1235,-2.1975,-2.1993,-2.197,-2.1898,-2.1027,-2.0978,-2.1666,-2.0951,-2.1068,-3.3237,-3.3493,0.0,0.0,-3.3371,-3.3698,-3.3047,-3.199,-3.0664,-2.9128,-2.8289,-2.7824,-2.7824,-2.7705,-2.76,-2.76,-2.76,-2.742,-2.6896,-2.6701,-2.6213,-2.5158,-2.4784,-2.4395,-2.3879,-2.3684,-2.34,-2.2927,-2.3126,-2.3151,-2.2954,-2.3222,-2.3282,-2.3026,-2.3049,-2.2832,-2.2313,-2.2296,-2.2296,-2.2296,-2.2296,-2.2296,-2.2296,-2.2296,-2.2296,-2.2296,-2.2296,-2.2296,-2.2296,-2.2296,-2.2296,-2.2296,-2.2296,-2.246,-2.2734,-2.308,-2.3364,-2.3631,-2.3935,-2.4036,-2.378,-2.2173,-2.1789,-2.1925,-2.1612,-2.1776,-2.229,-2.3391,-2.3933,-2.4153,-2.3988,-2.4061,-2.419,-2.419,-2.419,-2.4025,-2.3391,-2.3116,-2.2566,-2.1061,-2.0639,-2.0309,-1.9675,-2.0071,-2.0841,-2.1904,-2.2216,-2.2326,-2.2326,-2.2326,-2.2326,-2.2326,-2.2326,-2.2253,-2.2069,-2.1272,-2.0996,-2.15,-2.0878,-2.1098,-2.2437,-2.1957,-2.1737,-2.1918,-2.1914,-2.1898,-2.1824,-2.1618,-2.1272,-2.0786,-2.129,-2.1336,-3.3394,0.0,0.0,-3.3711,0.0,-3.4459,-3.3889,-3.2579,-3.1116,-2.9812,-2.8541,-2.7675,-2.7625,-2.76,-2.76,-2.76,-2.76,-2.736,-2.6677,-2.6318,-2.5749,-2.4724,-2.4321,-2.3977,-2.3625,-2.3325,-2.3047,-2.2718,-2.2531,-2.2387,-2.2312,-2.2386,-2.248,-2.2605,-2.2495,-2.2389,-2.2296,-2.2296,-2.2296,-2.2296,-2.2296,-2.2296,-2.2296,-2.2296,-2.2296,-2.2296,-2.2296,-2.2296,-2.2296,-2.2296,-2.2296,-2.2296,-2.2296,-2.246,-2.2734,-2.308,-2.3347,-2.3589,-2.3792,-2.3865,-2.3593,-2.1987,-2.178,-2.2054,-2.1384,-2.173,-2.2464,-2.2932,-2.3612,-2.4116,-2.3731,-2.3914,-2.4098,-2.3731,-2.3639,-2.3511,-2.3098,-2.2364,-2.1538,-2.0676,-2.0181,-1.9785,-1.937,-1.9968,-2.0658,-2.1106,-2.1537,-2.1794,-2.1794,-2.1794,-2.1794,-2.1794,-2.2143,-2.2208,-2.1831,-2.1749,-2.173,-2.1794,-2.1749,-2.2089,-2.2969,-2.2996,-2.3004,-2.3005,-2.3004,-2.2986,-2.2941,-2.2556,-2.2134,-2.1685,-2.1345,-2.1007,-3.3509,0.0,-3.3932,-3.4584,-3.5054,0.0,-3.4793,-3.3246,-3.1654,-3.0839,-2.9173,-2.7815,-2.7625,-2.76,-2.76,-2.76,-2.76,-2.733,-2.6527,-2.5959,-2.5315,-2.4515,-2.3939,-2.3595,-2.3595,-2.3062,-2.2643,-2.2538,-2.1954,-2.1655,-2.1763,-2.1572,-2.1698,-2.2216,-2.1913,-2.193,-2.2296,-2.2296,-2.2296,-2.2296,-2.2296,-2.2296,-2.2296,-2.2296,-2.2296,-2.2296,-2.2296,-2.2296,-2.2296,-2.2296,-2.2296,-2.2296,-2.2296,-2.246,-2.2721,-2.3056,-2.3295,-2.3453,-2.3591,-2.3657,-2.3404,-2.1954,-2.2026,-2.2451,-2.1285,-2.1905,-2.2896,-2.2363,-2.3171,-2.4043,-2.3373,-2.3694,-2.4025,-2.3373,-2.3098,-2.2914,-2.2639,-2.1483,-2.0456,-2.0327,-1.9767,-1.9297,-1.9297,-1.9858,-2.0291,-2.0291,-2.0904,-2.1372,-2.1372,-2.1372,-2.1427,-2.1555,-2.2171,-2.2373,-2.1831,-2.2409,-2.2575,-2.2033,-2.263,-2.3061,-2.3189,-2.3859,-2.419,-2.419,-2.419,-2.419,-2.419,-2.3529,-2.3134,-2.2969,-2.1575,-2.0835,-3.3661,0.0,-3.4677,0.0,-3.5688,-3.5464,0.0,0.0,-3.1907,0.0,-2.9447,-2.8039,-2.7675,-2.76,-2.76,-2.76,-2.76,-2.7165,-2.5914,-2.5674,-2.5151,-2.3879,-2.3655,-2.3595,-2.3595,-2.3062,-2.2463,-2.1874,-2.1216,-2.061,-2.0065,-2.0316,-2.0703,-2.1199,-2.1418,-2.1781,-2.2296,-2.2296,-2.2296,-2.2296,-2.2296,-2.2296,-2.2296,-2.2296,-2.2296,-2.2296,-2.2296,-2.2296,-2.2296,-2.2296,-2.2296,-2.2296,-2.2296,-2.2432,-2.2659,-2.2998,-2.3133,-2.3193,-2.3371,-2.3447,-2.3304,-2.2436,-2.2368,-2.263,-2.2648,-2.2822,-2.3116,-2.3712,-2.4025,-2.4171,-2.4061,-2.4116,-2.4171,-2.4061,-2.3511,-2.2602,-2.1153,-2.0658,-2.0291,-1.9601,-1.937,-1.9297,-1.9297,-1.9389,-1.9462,-1.9462,-1.9554,-1.9627,-1.9627,-1.9627,-1.9895,-2.0603,-2.0768,-2.1098,-2.1739,-2.1904,-2.2208,-2.2804,-2.2933,-2.3299,-2.4006,-2.4135,-2.419,-2.419,-2.419,-2.419,-2.419,-2.408,-2.3676,-2.2988,-2.2767,-2.1931,-3.4568,-3.5072,-3.5624,0.0,-3.6049,-3.5788,-3.5464,-3.3877,-3.2256,-3.1478,-2.9806,-2.8286,-2.771,-2.76,-2.76,-2.76,-2.7285,-2.6692,-2.5749,-2.5277,-2.4679,-2.3714,-2.3595,-2.3595,-2.3595,-2.2697,-2.2029,-2.1724,-2.0722,-2.0004,-1.9723,-2.008,-2.0512,-2.0991,-2.1323,-2.1751,-2.2296,-2.2296,-2.2296,-2.2296,-2.2296,-2.2296,-2.2296,-2.2296,-2.2296,-2.2296,-2.2296,-2.2296,-2.2296,-2.2296,-2.2296,-2.2296,-2.2296,-2.2391,-2.2565,-2.2798,-2.2905,-2.294,-2.2987,-2.3079,-2.3064,-2.2362,-2.2608,-2.3146,-2.3032,-2.3299,-2.3657,-2.3547,-2.3859,-2.4098,-2.3639,-2.3859,-2.408,-2.3639,-2.3263,-2.2547,-2.0859,-2.0503,-2.0254,-1.9462,-1.9656,-1.9968,-1.9968,-2.038,-2.0692,-2.0692,-2.0692,-2.0692,-2.0692,-2.0692,-2.0839,-2.118,-2.163,-2.2052,-2.2446,-2.2887,-2.329,-2.3657,-2.3676,-2.3823,-2.419,-2.419,-2.419,-2.419,-2.419,-2.419,-2.419,-2.419,-2.4025,-2.3657,-2.3208,-2.2611,-3.533,-3.5783,-3.6096,-3.6477,-3.6412,-3.6135,0.0,0.0,-3.2574,-3.1835,-3.0164,-2.8583,-2.785,-2.765,-2.754,-2.7375,-2.6941,-2.6303,-2.5457,-2.4918,-2.435,-2.3684,-2.3595,-2.3535,-2.3385,-2.2353,-2.162,-2.1455,-2.0348,-1.9708,-1.9708,-2.008,-2.0512,-2.0991,-2.1323,-2.1751,-2.2296,-2.2296,-2.2296,-2.2296,-2.2296,-2.2296,-2.2296,-2.2296,-2.2296,-2.2296,-2.2296,-2.2296,-2.2296,-2.2296,-2.2296,-2.2296,-2.2296,-2.238,-2.2484,-2.263,-2.2699,-2.2725,-2.2682,-2.2803,-2.289,-2.2447,-2.2894,-2.3563,-2.3361,-2.3731,-2.4061,-2.3465,-2.3749,-2.4061,-2.3465,-2.3749,-2.4043,-2.3456,-2.3299,-2.2786,-2.0914,-2.0346,-2.0071,-1.9675,-2.0089,-2.0566,-2.0786,-2.1363,-2.1794,-2.1794,-2.1794,-2.1794,-2.1794,-2.1794,-2.1886,-2.2088,-2.2648,-2.3079,-2.3281,-2.3859,-2.419,-2.419,-2.419,-2.419,-2.419,-2.419,-2.419,-2.419,-2.419,-2.419,-2.419,-2.419,-2.419,-2.419,-2.3584,-2.3189,-3.5472,-3.5618,-3.5716,-3.6779,-3.6816,0.0,0.0,0.0,-3.2857,-3.2124,-3.0437,-2.8858,-2.8128,-2.7765,-2.739,-2.6761,-2.6617,-2.6138,-2.4844,-2.4634,-2.435,-2.3684,-2.3595,-2.337,-2.2808,-2.2119,-2.144,-2.0793,-2.0094,-1.9708,-1.9708,-2.008,-2.0512,-2.0991,-2.1323,-2.1751,-2.2296,-2.2296,-2.2296,-2.2296,-2.2296,-2.2296,-2.2296,-2.2296,-2.2296,-2.2296,-2.2296,-2.2296,-2.2296,-2.2296,-2.2296,-2.2296,-2.2296,-2.2352,-2.2419,-2.2569,-2.2582,-2.2511,-2.2579,-2.2699,-2.285,-2.3064,-2.3345,-2.3682,-2.4029,-2.4171,-2.419,-2.4153,-2.4171,-2.419,-2.4153,-2.4171,-2.419,-2.4153,-2.4135,-2.3474,-2.1025,-1.9895,-1.9583,-2.0309,-2.0474,-2.0768,-2.1592,-2.1776,-2.1794,-2.1794,-2.1794,-2.1794,-2.1794,-2.1794,-2.2088,-2.2859,-2.2988,-2.3299,-2.4061,-2.4171,-2.419,-2.419,-2.419,-2.419,-2.419,-2.419,-2.419,-2.419,-2.419,-2.419,-2.419,-2.419,-2.419,-2.419,-2.4153,-2.3731,-3.5247,-3.5533,0.0,-3.6663,-3.6593,-3.632,-3.6267,-3.5138,-3.378,-3.2572,-3.116,-2.9639,-2.7992,-2.7354,-2.6969,-2.6656,-2.5884,-2.5143,-2.4664,-2.4231,-2.3879,-2.3625,-2.3595,-2.3355,-2.2763,-2.2104,-2.1425,-2.0748,-2.0079,-1.9708,-1.9708,-2.008,-2.0512,-2.0991,-2.1323,-2.1751,-2.2296,-2.2784,-2.2784,-2.2296,-2.2784,-2.2767,-2.2296,-2.2296,-2.2296,-2.2296,-2.2296,-2.2296,-2.2296,-2.2296,-2.2296,-2.2296,-2.2296,-2.231,-2.2338,-2.2377,-2.2377,-2.238,-2.2391,-2.2555,-2.2786,-2.3105,-2.338,-2.3581,-2.3471,-2.3786,-2.408,-2.3584,-2.3804,-2.419,-2.419,-2.419,-2.419,-2.419,-2.3804,-2.3189,-2.2309,-2.1473,-2.0986,-2.1272,-2.174,-2.2199,-2.252,-2.2997,-2.3336,-2.3336,-2.3336,-2.3336,-2.3336,-2.3336,-2.3456,-2.3749,-2.3768,-2.3896,-2.4171,-2.419,-2.419,-2.419,-2.419,-2.419,-2.419,-2.419,-2.419,-2.419,-2.419,-2.419,-2.419,-2.419,-2.419,-2.419,-2.419,-2.4043,-3.5041,-3.5308,0.0,0.0,0.0,-3.6309,-3.6252,-3.5362,-3.4184,-3.2977,-3.1588,-2.999,-2.807,-2.7234,-2.6633,-2.6045,-2.5173,-2.453,-2.4291,-2.3879,-2.3595,-2.3595,-2.3595,-2.3266,-2.2448,-2.1949,-2.1321,-2.0438,-1.9944,-1.9708,-1.9708,-2.008,-2.0562,-2.115,-2.1554,-2.193,-2.2296,-2.3038,-2.3038,-2.2296,-2.3054,-2.3004,-2.2296,-2.2296,-2.2296,-2.2296,-2.2296,-2.2296,-2.2296,-2.2296,-2.2296,-2.2296,-2.2296,-2.2296,-2.2296,-2.2296,-2.2296,-2.2296,-2.2296,-2.2474,-2.2747,-2.3087,-2.338,-2.3581,-2.3434,-2.3786,-2.408,-2.3547,-2.3786,-2.419,-2.419,-2.419,-2.419,-2.419,-2.3786,-2.3391,-2.3391,-2.2556,-2.1886,-2.2161,-2.263,-2.3098,-2.3354,-2.3859,-2.419,-2.419,-2.419,-2.419,-2.419,-2.419,-2.419,-2.419,-2.419,-2.419,-2.419,-2.419,-2.419,-2.419,-2.419,-2.419,-2.419,-2.419,-2.419,-2.419,-2.419,-2.419,-2.419,-2.419,-2.419,-2.419,-2.419,-2.419,0.0,0.0,0.0,0.0,0.0,0.0,-3.6003,0.0,-3.4032,-3.3334,-3.1666,-2.9927,-2.8478,-2.7522,-2.6449,-2.4912,-2.4612,-2.4358,-2.3721,-2.3616,-2.3616,-2.3616,-2.3616,-2.3122,-2.1864,-2.1744,-2.119,-1.9828,-1.9738,-1.9723,-1.9708,-2.0098,-2.0696,-2.1493,-2.2034,-2.2296,-2.2296,-2.3054,-2.3054,-2.2296,-2.3071,-2.3038,-2.2296,-2.2296,-2.2296,-2.2296,-2.2296,-2.2296,-2.2296,-2.2296,-2.2296,-2.2296,-2.2296,-2.2296,-2.2296,-2.2296,-2.2296,-2.2296,-2.2296,-2.2474,-2.2747,-2.3087,-2.338,-2.3682,-2.4047,-2.4171,-2.419,-2.4171,-2.4171,-2.419,-2.419,-2.419,-2.419,-2.419,-2.419,-2.419,-2.419,-2.2969,-2.2106,-2.2878,-2.3043,-2.3281,-2.4061,-2.419,-2.419,-2.419,-2.419,-2.419,-2.419,-2.419,-2.419,-2.419,-2.419,-2.419,-2.419,-2.419,-2.419,-2.419,-2.419,-2.419,-2.419,-2.419,-2.419,-2.419,-2.419,-2.419,-2.419,-2.419,-2.419,-2.419,-2.419,-2.419,-3.4171,0.0,0.0,0.0,0.0,0.0,0.0,0.0,-3.4442,-3.3304,-3.2389,-3.1083,-2.8664,-2.831,-2.7862,-2.6119,-2.5019,-2.4328,-2.413,-2.4114,-2.4114,-2.4114,-2.4114,-2.3779,-2.2939,-2.2802,-2.218,0.0,-2.0649,-2.0434,-1.995,-2.0614,-2.1245,-2.1706,-2.2092,-2.2296,-2.2296,-2.3562,-2.3562,-2.2313,-2.3594,-2.3528,-2.2296,-2.2296,-2.2296,-2.2296,-2.2296,-2.2296,-2.2296,-2.2296,-2.2296,-2.2296,-2.2296,-2.2296,-2.2296,-2.2296,-2.2296,-2.2296,-2.2296,-2.2474,-2.2747,-2.3087,-2.338,-2.3563,-2.3398,-2.3749,-2.408,-2.3511,-2.3749,-2.419,-2.419,-2.419,-2.419,-2.419,-2.419,-2.419,-2.419,-2.3841,-2.3602,-2.3823,-2.3878,-2.3933,-2.4153,-2.419,-2.419,-2.419,-2.419,-2.419,-2.419,-2.419,-2.419,-2.419,-2.419,-2.419,-2.419,-2.419,-2.419,-2.419,-2.419,-2.419,-2.419,-2.419,-2.419,-2.419,-2.419,-2.419,-2.419,-2.419,-2.419,-2.419,-2.419,-2.419,-3.3895,-3.3807,-3.3917,-3.438,0.0,0.0,-3.5077,-3.4918,-3.4426,-3.3439,-3.2706,-3.1485,-2.9022,-2.8793,-2.8384,-2.6632,-2.5647,-2.5096,-2.5116,-2.4872,-2.4679,-2.4679,-2.4679,-2.4397,-2.3728,-2.3565,-2.2867,-2.1329,-2.1197,-2.0975,-2.0405,-2.1039,-2.1553,-2.1825,-2.2152,-2.2296,-2.2296,-2.346,-2.346,-2.2313,-2.3477,-2.3427,-2.2296,-2.2296,-2.2296,-2.2296,-2.2296,-2.2296,-2.2279,-2.1972,-2.2023,-2.2296,-2.2296,-2.2296,-2.2296,-2.2296,-2.2296,-2.2296,-2.2296,-2.2474,-2.2747,-2.3087,-2.338,-2.3581,-2.3526,-2.3823,-2.4098,-2.3639,-2.3841,-2.419,-2.419,-2.419,-2.419,-2.419,-2.419,-2.419,-2.419,-2.419,-2.419,-2.419,-2.419,-2.419,-2.419,-2.419,-2.419,-2.419,-2.419,-2.419,-2.419,-2.419,-2.419,-2.419,-2.419,-2.419,-2.419,-2.419,-2.419,-2.419,-2.419,-2.419,-2.419,-2.419,-2.419,-2.419,-2.419,-2.419,-2.419,-2.419,-2.419,-2.419,-2.419,-2.419,-3.3868,-3.3807,-3.3807,-3.3807,-3.4284,0.0,-3.4444,-3.4232,-3.3932,-3.3401,-3.2511,-3.1255,-2.9436,-2.9055,-2.8524,-2.6945,-2.6589,-2.6439,-2.6302,-2.5783,-2.541,-2.5407,-2.5471,-2.5265,-2.4577,-2.4342,-2.3528,-2.1905,-2.1648,-2.1381,-2.099,-2.14,-2.1735,-2.1928,-2.2163,-2.2296,-2.2296,-2.3105,-2.3105,-2.2313,-2.3122,-2.3088,-2.2296,-2.2296,-2.2296,-2.2296,-2.2296,-2.2296,-2.2245,-2.1583,-2.1701,-2.2279,-2.2212,-2.2243,-2.2296,-2.2296,-2.2296,-2.2296,-2.2296,-2.2474,-2.273,-2.2987,-2.3309,-2.3664,-2.3964,-2.4135,-2.419,-2.419,-2.419,-2.419,-2.419,-2.419,-2.419,-2.419,-2.419,-2.419,-2.419,-2.419,-2.419,-2.419,-2.419,-2.419,-2.419,-2.419,-2.419,-2.419,-2.419,-2.419,-2.419,-2.419,-2.419,-2.419,-2.419,-2.419,-2.419,-2.419,-2.419,-2.419,-2.419,-2.419,-2.419,-2.419,-2.419,-2.419,-2.419,-2.419,-2.419,-2.419,-2.419,-2.419,-2.419,-2.419,-3.3873,-3.3807,-3.3807,-3.3807,-3.3903,0.0,-3.3153,-3.2871,-3.2494,-3.1538,-3.1058,-3.0434,-2.9255,-2.9479,-2.9569,-2.864,-2.8376,-2.7788,-2.6334,-2.648,-2.6719,-2.6659,-2.7166,-2.7248,-2.6512,-2.6273,-2.5426,-2.3719,-2.2489,-2.1675,-2.1402,-2.1658,-2.1928,-2.214,-2.224,-2.2296,-2.2296,-2.3613,-2.3613,-2.2313,-2.3646,-2.3594,-2.2296,-2.2296,-2.2296,-2.2296,-2.2296,-2.2296,-2.2279,-2.2127,-2.2161,-2.2229,-2.1647,-2.1786,-2.2296,-2.2296,-2.2296,-2.2296,-2.2296,-2.2474,-2.2643,-2.2335,-2.2841,-2.3545,-2.3306,-2.3694,-2.419,-2.419,-2.419,-2.419,-2.419,-2.419,-2.419,-2.419,-2.419,-2.419,-2.419,-2.419,-2.419,-2.419,-2.419,-2.419,-2.419,-2.419,-2.419,-2.419,-2.419,-2.419,-2.419,-2.419,-2.419,-2.419,-2.419,-2.419,-2.419,-2.419,-2.419,-2.419,-2.419,-2.419,-2.419,-2.419,-2.419,-2.419,-2.419,-2.419,-2.419,-2.419,-2.419,-2.419,-2.419,-2.419,-3.3847,-3.3807,-3.3807,-3.3807,-3.3807,0.0,0.0,-3.3108,-3.2753,-3.1773,-3.1433,-3.0927,-2.9508,-2.9558,-2.9561,-2.882,-2.8902,-2.8712,-2.7684,-2.7606,-2.7729,-2.7985,-2.8315,-2.8398,-2.8033,-2.7481,-2.643,-2.4684,-2.3156,-2.228,-2.2236,-2.216,-2.2152,-2.224,-2.2282,-2.2482,-2.2852,-2.3579,-2.3579,-2.2868,-2.3596,-2.3359,-2.2296,-2.2296,-2.2296,-2.2296,-2.2296,-2.2296,-2.2262,-2.1904,-2.1972,-2.2262,-2.1887,-2.1972,-2.2296,-2.2296,-2.2296,-2.2296,-2.2296,-2.2474,-2.2695,-2.2611,-2.3048,-2.3599,-2.3599,-2.3878,-2.419,-2.419,-2.419,-2.419,-2.419,-2.419,-2.419,-2.419,-2.419,-2.419,-2.419,-2.419,-2.419,-2.419,-2.419,-2.419,-2.419,-2.419,-2.419,-2.419,-2.419,-2.419,-2.419,-2.419,-2.419,-2.419,-2.419,-2.419,-2.419,-2.419,-2.419,-2.419,-2.419,-2.419,-2.419,-2.419,-2.419,-2.419,-2.419,-2.419,-2.419,-2.419,-2.419,-2.419,-2.419,-2.419,-3.3618,-3.3678,-3.3752,-3.3605,-3.3697,-3.3752,0.0,0.0,0.0,-3.2133,-3.1851,-3.1315,-2.9697,-2.9399,-2.9268,-2.8807,-2.9121,-2.9476,-2.955,-2.9171,0.0,-2.9291,-2.9423,-2.9439,-2.9268,-2.8222,-2.6933,-2.5392,-2.3984,-2.3205,-2.3278,-2.2921,-2.2733,-2.2733,-2.2733,-2.3004,-2.3611,-2.3748,-2.3748,-2.3613,-2.3613,-2.3224,-2.2513,-2.2364,-2.2296,-2.2296,-2.2296,-2.2296,-2.2245,-2.1651,-2.1752,-2.2279,-2.2127,-2.2161,-2.2296,-2.2296,-2.2296,-2.2296,-2.2296,-2.2474,-2.273,-2.2916,-2.32,-2.3575,-2.4039,-2.419,-2.419,-2.419,-2.419,-2.419,-2.419,-2.419,-2.419,-2.419,-2.419,-2.419,-2.419,-2.419,-2.419,-2.419,-2.419,-2.419,-2.419,-2.419,-2.419,-2.419,-2.419,-2.419,-2.419,-2.419,-2.419,-2.419,-2.419,-2.419,-2.419,-2.419,-2.419,-2.419,-2.419,-2.419,-2.419,-2.419,-2.419,-2.419,-2.419,-2.419,-2.419,-2.419,-2.419,-2.419,-2.419,-2.419,-3.2926,-3.3256,-3.3623,-3.2913,-3.3275,-3.3605,-3.2894,0.0,-3.2294,-3.0742,0.0,-3.0149,-2.9228,0.0,0.0,-2.9893,-2.9947,-3.0326,-3.1502,-3.1491,-3.1174,-3.0576,-3.0982,-3.1009,-3.0321,-2.8526,-2.7114,-2.6383,-2.5463,-2.4729,-2.4268,-2.4259,-2.4254,-2.4254,-2.4254,-2.4288,-2.4372,-2.5017,-2.5017,-2.4372,-2.4372,-2.4,-2.3241,-2.2598,-2.2296,-2.2296,-2.2296,-2.2296,-2.2296,-2.2212,-2.2212,-2.2229,-2.158,-2.1718,-2.2296,-2.2296,-2.2296,-2.2296,-2.2296,-2.2474,-2.2643,-2.2265,-2.2553,-2.3198,-2.3978,-2.419,-2.419,-2.419,-2.419,-2.419,-2.419,-2.419,-2.419,-2.419,-2.419,-2.419,-2.419,-2.419,-2.419,-2.419,-2.419,-2.419,-2.419,-2.419,-2.419,-2.419,-2.419,-2.419,-2.419,-2.419,-2.419,-2.419,-2.419,-2.419,-2.419,-2.419,-2.419,-2.419,-2.419,-2.419,-2.419,-2.419,-2.419,-2.419,-2.419,-2.419,-2.419,-2.419,-2.419,-2.419,-2.419,-2.419,-3.2693,-3.2839,-3.3023,-3.2674,-3.3201,-3.3715,-3.3366,-3.3319,-3.3028,-3.1937,0.0,0.0,0.0,0.0,0.0,0.0,-3.1102,-3.1768,-3.2233,-3.2589,-3.2519,-3.1826,0.0,0.0,-3.057,-2.9165,-2.8222,-2.7971,-2.6791,-2.5967,-2.5762,-2.5372,-2.4948,-2.4508,-2.4491,-2.4711,-2.5118,-2.5456,-2.5439,-2.5118,-2.4694,-2.4118,-2.3376,-2.2649,-2.2296,-2.2296,-2.2296,-2.2296,-2.2296,-2.2296,-2.2296,-2.2262,-2.1955,-2.204,-2.2296,-2.2296,-2.2324,-2.2349,-2.2391,-2.2623,-2.29,-2.3001,-2.3337,-2.3768,-2.4098,-2.419,-2.419,-2.419,-2.419,-2.419,-2.419,-2.419,-2.419,-2.419,-2.419,-2.419,-2.419,-2.419,-2.419,-2.419,-2.419,-2.419,-2.419,-2.419,-2.419,-2.419,-2.419,-2.419,-2.419,-2.419,-2.419,-2.419,-2.419,-2.419,-2.419,-2.419,-2.419,-2.419,-2.419,-2.419,-2.419,-2.419,-2.419,-2.419,-2.419,-2.419,-2.419,-2.419,-2.419,-2.419,-2.419,-2.419,-3.1995,-3.2252,-3.2546,-3.2326,-3.2889,-3.3476,-3.3476,-3.3542,-3.3375,-3.2674,-3.2757,0.0,0.0,0.0,-3.1781,-3.1435,0.0,-3.295,-3.2956,-3.3368,0.0,0.0,0.0,0.0,0.0,-3.0069,-2.9444,-2.9408,-2.8167,-2.7403,-2.7351,-2.6623,-2.5964,-2.5406,-2.5218,-2.5371,-2.5896,-2.5896,-2.5896,-2.5896,-2.4948,-2.422,-2.3663,-2.2733,-2.2296,-2.2296,-2.2296,-2.2296,-2.2296,-2.2296,-2.2296,-2.2296,-2.2296,-2.2296,-2.2296,-2.2296,-2.2349,-2.2446,-2.2521,-2.2833,-2.3265,-2.3689,-2.3996,-2.419,-2.419,-2.419,-2.419,-2.419,-2.419,-2.419,-2.419,-2.419,-2.419,-2.419,-2.419,-2.419,-2.419,-2.419,-2.419,-2.419,-2.419,-2.419,-2.419,-2.419,-2.419,-2.419,-2.419,-2.419,-2.419,-2.419,-2.419,-2.419,-2.419,-2.419,-2.419,-2.419,-2.419,-2.419,-2.419,-2.419,-2.419,-2.419,-2.419,-2.419,-2.419,-2.419,-2.419,-2.419,-2.419,-2.419,-2.419,-2.419,-3.0485,-3.1408,-3.2399,-3.1623,-3.2045,-3.2638,-3.2638,-3.2753,-3.2643,-3.1961,-3.2558,-3.2985,-3.2289,-3.2166,-3.243,-3.3195,-3.3294,0.0,0.0,-3.4105,0.0,0.0,0.0,0.0,0.0,-3.1236,-3.0592,0.0,-2.9692,-2.9158,-2.9036,-2.8199,-2.7722,-2.7689,-2.7012,-2.664,-2.6657,-2.6657,-2.6657,-2.664,-2.5185,-2.4491,-2.4406,-2.297,-2.2296,-2.2296,-2.2296,-2.2296,-2.2296,-2.2296,-2.2296,-2.2296,-2.2296,-2.2296,-2.2296,-2.2296,-2.2377,-2.2511,-2.2652,-2.3117,-2.3692,-2.3855,-2.4026,-2.419,-2.419,-2.419,-2.419,-2.419,-2.419,-2.419,-2.419,-2.419,-2.419,-2.419,-2.419,-2.419,-2.419,-2.419,-2.419,-2.419,-2.419,-2.419,-2.419,-2.419,-2.419,-2.419,-2.419,-2.419,-2.419,-2.419,-2.419,-2.419,-2.419,-2.419,-2.419,-2.419,-2.419,-2.419,-2.419,-2.419,-2.419,-2.419,-2.419,-2.419,-2.419,-2.419,-2.419,-2.419,-2.419,-2.419,-2.419,-2.419,-3.0265,-3.0595,-3.0962,-3.0668,-3.1201,-3.1953,-3.2472,-3.2293,-3.2125,-3.2582,-3.2518,-3.2206,-3.1534,-3.2345,-3.3034,-3.2777,-3.362,-3.4333,0.0,-3.4291,0.0,0.0,0.0,0.0,0.0,0.0,-3.1301,-3.1673,-3.0786,0.0,-3.0035,-2.9577,-2.8855,-2.7841,-2.7553,-2.7199,-2.6691,-2.6691,-2.6691,-2.6674,-2.5202,-2.4491,-2.444,-2.297,-2.2296,-2.2296,-2.2296,-2.2296,-2.2296,-2.2296,-2.2296,-2.2296,-2.2296,-2.2296,-2.2296,-2.2296,-2.2405,-2.2632,-2.3079,-2.3495,-2.3847,-2.3996,-2.4103,-2.419,-2.419,-2.419,-2.419,-2.419,-2.419,-2.419,-2.419,-2.419,-2.419,-2.419,-2.419,-2.419,-2.419,-2.419,-2.419,-2.419,-2.419,-2.419,-2.419,-2.419,-2.419,-2.419,-2.419,-2.4392,-2.4934,-2.4989,-2.5209,-2.5731,-2.5786,-2.5786,-2.5786,-2.5301,-2.4768,-2.4226,-2.419,-2.419,-2.419,-2.419,-2.419,-2.419,-2.419,-2.419,-2.419,-2.419,-2.419,-2.419,-2.419,-2.419,-2.9347,-2.9347,-2.9347,-2.9347,-2.9953,-3.076,-3.1555,-3.1446,-3.1453,-3.2434,-3.2305,-3.1878,-3.1496,-3.2618,-3.3449,-3.2968,-3.4024,-3.486,0.0,-3.4526,0.0,0.0,0.0,0.0,0.0,-3.2174,-3.1831,-3.2432,-3.1757,0.0,0.0,-3.0509,-2.9608,-2.83,-2.796,-2.7435,-2.6725,-2.6691,-2.6691,-2.6691,-2.5456,-2.4745,-2.4457,-2.3241,-2.255,-2.2296,-2.2296,-2.2296,-2.2296,-2.2296,-2.2296,-2.2296,-2.2296,-2.2296,-2.2296,-2.2296,-2.2525,-2.2879,-2.3365,-2.3739,-2.4016,-2.4103,-2.4161,-2.419,-2.419,-2.419,-2.419,-2.419,-2.419,-2.419,-2.419,-2.419,-2.419,-2.419,-2.419,-2.419,-2.419,-2.419,-2.419,-2.419,-2.419,-2.419,-2.419,-2.419,-2.419,-2.419,-2.4428,-2.4805,-2.5319,-2.565,-2.6025,-2.6528,-2.6602,-2.6484,-2.619,-2.5705,-2.5062,-2.4245,-2.419,-2.419,-2.419,-2.419,-2.419,-2.419,-2.419,-2.419,-2.419,-2.419,-2.419,-2.419,-2.419,-2.419]},{"header":{"parameterUnit":"m.s-1","parameterCategory":1,"la1":30.6,"la2":29.2853,"lo1":-89.7004,"lo2":-87.6739,"dy":0.0162,"dx":0.0183,"nx":112,"ny":82,"refTime":"2026-04-22T12:00:00:Z","depth":0,"parameterNumber":3,"parameterNumberName":"V-component_of_WINDS"},"data":[0.0,0.0,0.0,0.0,0.0,0.0,0.0,0.0,0.0,0.0,0.0,0.0,0.0,0.0,0.0,0.0,0.0,0.0,0.0,0.0,0.0,0.0,0.0,0.0,0.0,0.0,0.0,0.0,0.0,0.0,0.0,0.0,0.0,0.0,0.0,0.0,0.0,0.0,0.0,0.0,0.0,0.0,0.0,0.0,0.0,0.0,0.0,0.0,0.0,0.0,0.0,0.0,0.0,0.0,0.0,0.0,0.0,0.0,0.0,0.0,0.0,0.0,0.0,0.0,0.0,0.0,0.0,0.0,0.0,0.0,0.0,0.0,0.0,0.0,0.0,0.0,0.0,0.0,0.0,0.0,0.0,0.0,0.0,0.0,0.0,0.0,0.0,0.0,0.0,0.0,-0.1803,-0.3164,-0.5224,-0.6532,-0.6539,-0.6775,-0.7214,-0.7888,0.0,0.0,0.0,0.0,0.0,0.0,0.0,0.0,0.0,0.0,0.0,0.0,0.0,0.0,0.0,0.0,0.0,0.0,0.0,0.0,0.0,0.0,0.0,0.0,0.0,0.0,0.0,0.0,0.0,0.0,0.0,0.0,0.0,0.0,0.0,0.0,0.0,0.0,0.0,0.0,0.0,0.0,0.0,0.0,0.0,0.0,0.0,0.0,0.0,0.0,0.0,0.0,0.0,0.0,0.0,0.0,0.0,0.0,0.0,0.0,0.0,0.0,0.0,0.0,0.0,0.0,0.0,0.0,0.0,0.0,0.0,0.0,0.0,0.0,0.0,0.0,0.0,0.0,0.0,0.0,0.0,0.0,0.0,0.0,0.0,0.0,0.0,0.0,0.0,0.0,0.0,0.0,0.0,0.0,0.0,0.0,0.0,0.0,0.0,0.0,0.0,0.0,0.0,0.0,-0.204,-0.399,-0.5586,-0.6453,-0.6349,-0.6488,-0.6845,-0.7528,0.0,0.0,0.0,0.0,0.0,0.0,0.0,0.0,0.0,0.0,0.0,0.0,0.0,0.0,0.0,0.0,0.0,0.0,0.0,0.0,0.0,0.0,0.0,0.0,0.0,0.0,0.0,0.0,0.0,0.0,0.0,0.0,0.0,0.0,0.0,0.0,0.0,0.0,0.0,0.0,0.0,0.0,0.0,0.0,0.0,0.0,0.0,0.0,0.0,0.0,0.0,0.0,0.0,0.0,0.0,0.0,0.0,0.0,0.0,0.0,0.0,0.0,0.0,0.0,0.0,0.0,0.0,0.0,0.0,0.0,0.0,0.0,0.0,0.0,0.0,0.0,0.0,0.0,0.0,0.0,0.0,0.0,0.0,0.0,0.0,0.0,0.0,0.0,0.0,0.0,0.0,0.0,0.0,0.0,0.0,0.0,0.0,0.0,0.0,0.0,0.0,0.0,0.0,-0.1697,-0.2928,-0.4387,-0.5778,-0.6536,-0.6426,-0.6474,-0.6803,-0.7454,-0.8663,0.0,0.0,0.0,0.0,0.0,0.0,0.0,0.0,0.0,0.0,0.0,0.0,0.0,0.0,0.0,0.0,0.0,0.0,0.0,0.0,0.0,0.0,0.0,0.0,0.0,0.0,0.0,0.0,0.0,0.0,0.0,0.0,0.0,0.0,0.0,0.0,0.0,0.0,0.0,0.0,0.0,0.0,0.0,0.0,0.0,0.0,0.0,0.0,0.0,0.0,0.0,0.0,0.0,0.0,0.0,0.0,0.0,0.0,0.0,0.0,0.0,0.0,0.0,0.0,0.0,0.0,0.0,0.0,0.0,0.0,0.0,0.0,0.0,0.0,0.0,0.0,0.0,0.0,0.0,0.0,0.0,0.0,0.0,0.0,0.0,0.0,0.0,0.0,0.0,0.0,0.0,0.0,0.0,0.0,0.0,0.0,0.0,0.0,0.0,0.0,0.0,0.0,-0.2483,-0.3684,-0.4606,-0.5904,-0.6654,-0.6576,-0.6532,-0.6781,-0.7518,-0.8646,0.0,0.0,0.0,0.0,0.0,0.0,0.0,0.0,0.0,0.0,0.0,0.0,0.0,0.0,0.0,0.0,0.0,0.0,0.0,0.0,0.0,0.0,0.0,0.0,0.0,0.0,0.0,0.0,0.0,0.0,0.0,0.0,0.0,0.0,0.0,0.0,0.0,0.0,0.0,0.0,0.0,0.0,0.0,0.0,0.0,0.0,0.0,0.0,0.0,0.0,0.0,0.0,0.0,0.0,0.0,0.0,0.0,0.0,0.0,0.0,0.0,0.0,0.0,0.0,0.0,0.0,0.0,0.0,0.0,0.0,0.0,0.0,0.0,0.0,0.0,0.0,0.0,0.0,0.0,0.0,0.0,0.0,0.0,0.0,0.0,0.0,0.0,0.0,0.0,0.0,0.0,0.0,0.0,0.0,0.0,0.0,0.0,0.0,0.0,0.0,0.0,0.0,-0.2522,-0.3728,-0.4608,-0.5904,-0.6698,-0.6685,-0.6556,-0.6827,-0.7617,-0.8687,0.0,0.0,0.0,0.0,0.0,0.0,0.0,0.0,0.0,0.0,0.0,0.0,0.0,0.0,0.0,0.0,0.0,0.0,0.0,0.0,0.0,0.0,0.0,0.0,0.0,0.0,0.0,0.0,0.0,0.0,0.0,0.0,0.0,0.0,0.0,0.0,0.0,0.0,0.0,0.0,0.0,0.0,0.0,0.0,0.0,0.0,0.0,0.0,0.0,0.0,0.0,0.0,0.0,0.0,0.0,0.0,0.0,0.0,0.0,0.0,0.0,0.0,0.0,0.0,0.0,0.0,0.0,0.0,0.0,0.0,0.0,0.0,0.0,0.0,0.0,0.0,0.0,0.0,0.0,0.0,0.0,0.0,0.0,0.0,0.0,0.0,0.0,0.0,0.0,0.0,0.0,0.0,0.0,0.0,0.0,0.0,0.0,0.0,0.0,0.0,0.0,0.0,-0.2309,-0.3448,-0.4367,-0.5673,-0.6549,-0.6632,-0.6615,-0.6898,-0.7477,0.0,0.0,0.0,0.0,0.0,0.0,0.0,0.0,0.0,0.0,0.0,0.0,0.0,0.0,0.0,0.0,0.0,0.0,0.0,0.0,0.0,0.0,0.0,0.0,0.0,0.0,0.0,0.0,0.0,0.0,0.0,0.0,0.0,0.0,0.0,0.0,0.0,0.0,0.0,0.0,0.0,0.0,0.0,0.0,0.0,0.0,0.0,0.0,0.0,0.0,0.0,0.0,0.0,0.0,0.0,0.0,0.0,0.0,0.0,0.0,0.0,0.0,0.0,0.0,0.0,0.0,0.0,0.0,0.0,0.0,0.0,0.0,0.0,0.0,0.0,0.0,0.0,0.0,0.0,0.0,0.0,0.0,0.0,0.0,0.0,0.0,0.0,0.0,0.0,0.0,0.0,0.0,0.0,0.0,0.0,0.0,0.0,0.0,0.0,0.0,0.0,0.0,-0.0893,-0.1883,-0.2906,-0.3848,-0.5228,-0.6172,-0.6437,-0.6603,-0.6901,-0.7358,0.0,0.0,0.0,0.0,0.0,0.0,0.0,0.0,0.0,0.0,0.0,0.0,0.0,0.0,0.0,0.0,0.0,0.0,0.0,0.0,0.0,0.0,0.0,0.0,0.0,0.0,0.0,0.0,0.0,0.0,0.0,0.0,0.0,0.0,0.0,0.0,0.0,0.0,0.0,0.0,0.0,0.0,0.0,0.0,0.0,0.0,0.0,0.0,0.0,0.0,0.0,0.0,0.0,0.0,0.0,0.0,0.0,0.0,0.0,0.0,0.0,0.0,0.0,0.0,0.0,0.0,0.0,0.0,0.0,0.0,0.0,0.0,0.0,0.0,0.0,0.0,0.0,0.0,0.0,0.0,0.0,0.0,0.0,0.0,0.0,0.0,0.0,0.0,0.0,0.0,0.0,0.0,0.0,0.0,0.0,0.0,0.0,0.0,0.0,0.0,0.0,0.0,-0.0649,-0.1326,-0.2148,-0.3086,-0.4512,-0.5583,-0.6035,-0.6446,-0.6867,0.0,0.0,0.0,0.0,0.0,0.0,0.0,0.0,0.0,0.0,0.0,0.0,0.0,0.0,0.0,0.0,0.0,0.0,0.0,0.0,0.0,0.0,0.0,0.0,0.0,0.0,0.0,0.0,0.0,0.0,0.0,0.0,0.0,0.0,0.0,0.0,0.0,0.0,0.0,0.0,0.0,0.0,0.0,0.0,0.0,0.0,0.0,0.0,0.0,0.0,0.0,0.0,0.0,0.0,0.0,0.0,0.0,0.0,0.0,0.0,0.0,0.0,0.0,0.0,0.0,0.0,0.0,0.0,0.0,0.0,0.0,0.0,0.0,0.0,0.0,0.0,0.0,0.0,0.0,0.0,0.0,0.0,0.0,0.0,0.0,0.0,0.0,0.0,0.0,0.0,0.0,0.0,0.0,0.0,0.0,0.0,0.0,0.0,0.0,0.0,0.0,0.0,0.0,-0.0467,-0.0965,-0.1613,-0.2417,-0.3623,-0.4577,-0.5121,-0.5794,-0.6366,-0.6708,0.0,0.0,0.0,0.0,0.0,0.0,0.0,0.0,0.0,0.0,0.0,0.0,0.0,0.0,0.0,0.0,0.0,0.0,0.0,0.0,0.0,0.0,0.0,0.0,0.0,0.0,0.0,0.0,0.0,0.0,0.0,0.0,0.0,0.0,0.0,0.0,0.0,0.0,0.0,0.0,0.0,0.0,0.0,0.0,0.0,0.0,0.0,0.0,0.0,0.0,0.0,0.0,0.0,0.0,0.0,0.0,0.0,0.0,0.0,0.0,0.0,0.0,0.0,0.0,0.0,0.0,0.0,0.0,0.0,0.0,0.0,0.0,0.0,0.0,0.0,0.0,0.0,0.0,0.0,0.0,0.0,0.0,0.0,0.0,0.0,0.0,0.0,0.0,0.0,0.0,0.0,0.0,0.0,0.0,0.0,0.0,0.0,0.0,0.0,0.0,0.0,0.0,-0.0213,-0.0484,-0.0897,-0.1523,-0.2462,-0.3371,-0.408,-0.5007,-0.5723,-0.6077,0.0,0.0,0.0,0.0,0.0,0.0,0.0,0.0,0.0,0.0,0.0,0.0,0.0,0.0,0.0,0.0,0.0,0.0,0.0,0.0,0.0,0.0,0.0,0.0,0.0,0.0,0.0,0.0,0.0,0.0,0.0,0.0,0.0,0.0,0.0,0.0,0.0,0.0,0.0,0.0,0.0,0.0,0.0,0.0,0.0,0.0,0.0,0.0,0.0,0.0,0.0,0.0,0.0,0.0,0.0,0.0,0.0,0.0,0.0,0.0,0.0,0.0,0.0,0.0,0.0,0.0,0.0,0.0,0.0,0.0,0.0,0.0,0.0,0.0,0.0,0.0,0.0,0.0,0.0,0.0,0.0,0.0,0.0,0.0,0.0,0.0,0.0,0.0,0.0,0.0,0.0,0.0,0.0,0.0,0.0,0.0,0.0,0.0,0.0,0.0,0.0,0.0,0.0,0.0,-0.0179,-0.0624,-0.1292,-0.2074,-0.2938,-0.4103,-0.4958,-0.5354,0.0,0.0,0.0,0.0,0.0,0.0,0.0,0.0,0.0,0.0,0.0,0.0,0.0,0.0,0.0,0.0,0.0,0.0,0.0,0.0,0.0,0.0,0.0,0.0,0.0,0.0,0.0,0.0,0.0,0.0,0.0,0.0,0.0,0.0,0.0,0.0,0.0,0.0,0.0,0.0,0.0,0.0,0.0,0.0,0.0,0.0,0.0,0.0,0.0,0.0,0.0,0.0,0.0,0.0,0.0,0.0,0.0,0.0,0.0,0.0,0.2182,0.171,0.0,0.0,0.0,0.0,0.0,0.0,0.0,0.0,0.0,0.0,0.0,0.0,0.0,0.0,0.0,0.0,0.0,0.0,0.0,0.0,0.0,0.0,0.0,0.0,0.0,0.0,0.0,0.0,0.0,0.0,0.0,0.0,0.0,0.0,0.0,0.0,0.0,0.0,0.0,0.0,0.0,0.0,-0.0128,-0.0427,-0.0938,-0.1478,-0.2106,-0.3198,-0.4052,-0.4454,-0.5024,0.0,0.0,0.0,0.0,0.0,0.0,0.0,0.0,0.0,0.0,0.0,0.0,0.0,0.0,0.0,0.0,0.0,0.0,0.0,0.0,0.0,0.0,0.0,0.0,0.0,0.0,0.0,0.0,0.0,0.0,0.0,0.0,0.0,0.0,0.0,0.0,0.0,0.0,0.0,0.0,0.0,0.0,0.0,0.0,0.0,0.0,0.0,0.0,0.0,0.0,0.0,0.0,0.0,0.0,0.0,0.0,0.0,0.0,0.0,0.3353,0.2733,0.0,0.0,0.0,0.0,0.0,0.0,0.0,0.0,0.0,0.0,0.0,0.0,0.0,0.0,0.0,0.0,0.0,0.0,0.0,0.0,0.0,0.0,0.0,0.0,0.0,0.0,0.0,0.0,0.0,0.0,0.0,0.0,0.0,0.0,0.0,0.0,0.0,0.0,0.0,0.0,0.0,0.0,-0.0042,-0.021,-0.0421,-0.075,-0.1222,-0.2112,-0.2863,-0.3441,-0.4272,0.0,0.0,0.0,0.0,0.0,0.0,0.0,0.0,0.0,0.0,0.0,0.0,0.0,0.0,0.0,0.0,0.0,0.0,0.0,0.0,0.0,0.0,0.0,0.0,0.0,0.0,0.0,0.0,0.0,0.0,0.0,0.0,0.0,0.0,0.0,0.0,0.0,0.0,0.0,0.0,0.0,0.0,0.0,0.0,0.0,0.0,0.0,0.0,0.0,0.0,0.0,0.0,0.0,0.7678,0.7521,0.7162,0.6414,0.609,0.6014,0.4666,0.4003,0.3826,0.3246,0.0,0.0,0.0,0.0,0.0,0.0,0.0,0.0,0.0,0.0,0.0,0.0,0.0,0.0,0.0,0.0,0.0,0.0,0.0,0.0,0.0,0.0,0.0,0.0,0.4817,0.4538,0.3828,0.0,0.0,0.0,0.0,0.0,0.0,0.0,0.0,0.0,0.0,0.0,0.0,0.0,0.0,0.0,0.0,-0.0165,-0.0526,-0.1131,-0.178,-0.2483,-0.3453,-0.4191,0.0,0.0,0.0,0.0,0.0,0.0,0.0,0.0,0.0,0.0,0.0,0.0,0.0,0.0,0.0,0.0,0.0,0.0,0.0,0.0,0.0,0.0,0.0,0.0,0.0,0.0,0.0,0.0,0.0,0.0,0.0,0.0,1.1363,1.0888,0.0,0.0,0.0,0.0,0.0,0.0,0.0,0.0,0.0,0.0,0.0,0.0,0.0,0.7125,0.7125,0.7125,0.7248,0.7446,0.7467,0.7366,0.7171,0.6679,0.6592,0.6851,0.644,0.0,0.4854,0.4139,0.0,0.0,0.0,0.0,0.0,0.0,0.0,0.0,0.0,0.0,0.0,0.0,0.0,0.0,0.0,0.0,0.0,0.0,0.0,0.0,0.0,0.0,0.6254,0.6234,0.6166,0.6025,0.0,0.5007,0.4109,0.3722,0.3101,0.0,0.0,0.0,0.0,0.0,0.0,0.0,0.0,0.0,0.0,0.0,0.0,-0.0079,-0.0316,-0.075,-0.1236,-0.1801,-0.2733,-0.3376,-0.365,-0.4161,0.0,0.0,0.0,0.0,0.0,0.0,0.0,0.0,0.0,0.0,0.0,0.0,0.0,0.0,0.0,0.0,0.0,0.0,0.0,0.0,0.0,0.0,0.0,0.0,0.0,0.0,0.0,0.0,0.0,1.2959,1.2878,1.2409,1.198,1.1462,0.0,0.0,0.0,0.0,0.0,0.0,0.0,0.0,0.0,0.7896,0.7363,0.7095,0.7095,0.7227,0.7305,0.7419,0.7458,0.7486,0.7406,0.7218,0.7247,0.743,0.7379,0.6933,0.6166,0.4958,0.3903,0.2892,0.0,0.0,0.0,0.0,0.0769,0.0808,0.0808,0.0803,0.0797,0.0797,0.0,0.0,0.0,0.0,0.0,0.0,0.0,0.0,0.0,0.0,0.6511,0.6511,0.6298,0.6132,0.6132,0.5645,0.5087,0.0,0.4206,0.3503,0.2771,0.0,0.0,0.0,0.0,0.0,0.0,0.0,0.0,0.0,0.0,-0.0038,-0.0115,-0.0304,-0.0556,-0.1001,-0.1707,-0.2234,-0.2586,-0.3113,-0.3413,0.0,0.0,0.0,0.0,0.0,0.0,0.0,0.0,0.0,0.0,0.0,0.0,0.0,0.0,0.0,0.0,0.0,0.0,0.0,0.0,0.0,0.0,0.0,0.0,0.0,0.0,0.0,0.0,1.4103,1.4082,1.361,1.317,1.26,0.0,0.0,0.0,0.0,0.0,0.0,1.0274,0.9628,0.9026,0.8596,0.7845,0.7448,0.736,0.7479,0.7493,0.741,0.7473,0.7482,0.7482,0.7522,0.7597,0.7699,0.774,0.7527,0.7085,0.5624,0.46,0.3752,0.2508,0.1988,0.1971,0.1971,0.1971,0.1971,0.1971,0.1971,0.1971,0.1971,0.1914,0.1845,0.1834,0.0,0.0,0.0,0.0,0.4353,0.5089,0.5857,0.645,0.6369,0.619,0.5983,0.5942,0.5854,0.5685,0.0,0.4997,0.4349,0.3559,0.0,0.0,0.0,0.0,0.0264,0.0192,0.0154,0.0116,0.0077,0.0038,0.0,0.0,0.0,-0.0144,-0.0421,-0.0909,-0.1312,-0.1679,-0.2146,-0.2412,-0.2412,0.0,0.0,0.0,0.0,0.0,0.0,0.0,0.0,0.0,0.0,0.0,0.0,0.0,0.0,0.0,0.0,0.0,0.0,0.0,0.0,0.0,0.0,0.0,0.0,0.0,0.0,0.0,0.0,0.0,1.413,1.3447,0.0,0.0,0.0,0.0,1.1929,1.1929,1.1709,1.1235,1.0593,0.999,0.9559,0.8855,0.8416,0.8157,0.7904,0.769,0.7473,0.7252,0.7119,0.7125,0.7316,0.7433,0.7446,0.7546,0.7469,0.7149,0.6163,0.541,0.483,0.3857,0.3503,0.3482,0.3482,0.3482,0.3482,0.3482,0.3482,0.3482,0.3482,0.3384,0.3297,0.3224,0.3109,0.0,0.0,0.4187,0.4776,0.5179,0.5805,0.6272,0.6088,0.6003,0.5952,0.5844,0.5701,0.5574,0.0,0.5159,0.4681,0.4075,0.0,0.233,0.1895,0.1386,0.0986,0.0768,0.0585,0.0439,0.0293,0.011,0.0,0.0,0.0,-0.0072,-0.0281,-0.063,-0.0934,-0.1144,-0.1479,-0.1648,-0.1648,-0.1648,0.0,0.0,0.0,0.0,0.0,0.0,0.0,0.0,0.0,0.0,0.0,0.0,0.0,0.0,0.0,0.0,0.0,0.0,0.0,0.0,0.0,0.0,0.0,0.0,0.0,0.0,0.0,0.0,1.4818,1.4285,0.0,1.3629,1.344,1.3349,1.3349,1.3349,1.3137,1.2662,1.1955,1.1397,1.0939,1.0274,0.971,0.9279,0.8759,0.8328,0.794,0.7363,0.7095,0.7098,0.7152,0.7278,0.7419,0.7431,0.7459,0.7402,0.6982,0.6325,0.5493,0.4809,0.4552,0.4514,0.4514,0.4514,0.4514,0.4514,0.4427,0.4357,0.424,0.4157,0.4085,0.4031,0.3977,0.4027,0.4455,0.4807,0.516,0.5589,0.5983,0.6259,0.603,0.5919,0.5844,0.5698,0.5583,0.546,0.5443,0.5388,0.5205,0.4716,0.4061,0.3453,0.3054,0.2508,0.2,0.1674,0.1273,0.091,0.0656,0.0252,0.0,0.0,0.0,-0.0035,-0.0103,-0.0205,-0.0306,-0.0404,-0.0505,-0.0577,-0.0553,-0.0553,-0.0553,0.0,0.0,0.0,0.0,0.0,0.0,0.0,0.0,0.0,0.0,0.0,0.0,0.0,0.0,0.0,0.0,0.0,0.0,0.0,0.0,0.0,0.0,0.0,0.0,0.0,1.6723,1.6167,1.5514,1.4923,1.446,1.4222,1.4124,1.4088,1.4088,1.4088,1.3913,1.3525,1.2905,1.2388,1.2057,1.1402,1.0832,1.0361,0.9715,0.9157,0.8684,0.7933,0.758,0.7448,0.7363,0.7375,0.7434,0.734,0.735,0.7438,0.7336,0.6882,0.6243,0.5843,0.5688,0.5657,0.5572,0.5559,0.5559,0.5559,0.5505,0.541,0.5298,0.5219,0.517,0.5128,0.5079,0.5085,0.5356,0.5553,0.5712,0.5983,0.6101,0.6142,0.5989,0.5837,0.5691,0.5545,0.5467,0.5395,0.5395,0.5477,0.5409,0.5102,0.4651,0.4209,0.3893,0.3395,0.2937,0.2515,0.2018,0.1523,0.11,0.0524,0.0138,0.0104,0.0034,0.0,0.0,0.0,0.0,0.0,0.0,0.0,0.0,0.0,0.0,0.0,0.0,0.0,0.0,0.0,0.0,0.0,0.0,0.0,0.0,0.0,0.0,0.0,0.0,0.0,0.0,0.0,0.0,0.0,0.0,0.0,0.0,0.0,0.0,1.8278,1.748,1.6829,1.6221,1.5311,1.465,1.444,1.4243,1.4088,1.4088,1.4088,1.3997,1.3737,1.3264,1.296,1.2747,1.2314,1.1843,1.137,1.0679,1.012,0.9646,0.8986,0.8504,0.8245,0.7981,0.772,0.7503,0.7231,0.7095,0.7095,0.7092,0.7088,0.7078,0.694,0.6886,0.6866,0.6756,0.6702,0.6702,0.6695,0.6695,0.6695,0.6688,0.6586,0.6504,0.6504,0.6409,0.63,0.63,0.63,0.63,0.63,0.6146,0.5952,0.5837,0.5694,0.5549,0.5429,0.5395,0.5392,0.5388,0.5388,0.5322,0.5156,0.4858,0.4558,0.4356,0.4056,0.0,0.3293,0.2787,0.2249,0.1715,0.0974,0.047,0.0337,0.0135,0.0,0.0,0.0,0.0,0.0,0.0,0.0,0.0,0.0,0.0,0.0,0.0,0.0,0.0,0.0,0.0,0.0,0.0,0.0,0.0,0.0,0.0,0.0,0.0,0.0,0.0,0.0,0.0,0.0,0.0,0.0,0.0,2.1097,2.1057,1.9573,1.8847,1.8158,1.7359,1.6165,1.5304,1.495,1.4419,1.4088,1.4088,1.4088,1.4088,1.3997,1.387,1.3779,1.3743,1.3568,1.3307,1.2833,1.2132,1.1526,1.1111,1.0404,0.984,0.9405,0.8846,0.8372,0.7981,0.7363,0.7095,0.7088,0.6987,0.6943,0.694,0.6903,0.6886,0.6866,0.6756,0.6702,0.6685,0.6573,0.6536,0.6559,0.6457,0.6392,0.6358,0.6358,0.633,0.63,0.63,0.63,0.63,0.63,0.6146,0.5952,0.5837,0.5694,0.5549,0.5429,0.5395,0.5361,0.5216,0.5196,0.5197,0.5305,0.5226,0.516,0.5093,0.5027,0.0,0.4395,0.3887,0.3318,0.2688,0.1682,0.0953,0.0671,0.0264,0.0,0.0,0.0,0.0,0.0,0.0,0.0,0.0,0.0,0.0,0.0,0.0,0.0,0.0,0.0,0.0,0.0,0.0,0.0,0.0,0.0,0.0,0.0,0.0,0.0,0.0,0.0,0.0,0.0,0.0,0.0,0.0,2.151,2.1627,2.083,2.0061,1.9195,1.8233,1.7025,1.6083,1.5699,1.5033,1.4622,1.4545,1.4419,1.4328,1.4243,1.4166,1.4088,1.4088,1.4088,1.3913,1.3525,1.2795,1.2271,1.1945,1.1341,1.0688,1.0142,0.9591,0.8991,0.8329,0.7515,0.7128,0.7032,0.6868,0.6834,0.0,0.0,0.0,0.0,0.0,0.6515,0.6505,0.6453,0.6422,0.6409,0.6327,0.63,0.63,0.63,0.63,0.63,0.63,0.63,0.63,0.63,0.6098,0.5911,0.5823,0.5644,0.5504,0.5416,0.5344,0.524,0.5117,0.5052,0.0,0.5162,0.5226,0.5243,0.5186,0.5226,0.5146,0.4762,0.4333,0.3816,0.3243,0.2235,0.1496,0.1166,0.0672,0.0,0.0,0.0,0.0432,0.0471,0.0477,0.0,0.0,0.0,0.0,0.0,0.0,0.0,0.0,-0.0341,-0.0346,0.0,0.0,0.0,0.0,0.0,0.0,0.0,0.0,0.0,0.0,0.0,0.0,0.0,0.0,0.0,0.0,2.1748,2.1992,2.1894,2.1075,2.0099,1.9052,1.791,1.7074,1.6632,1.6015,1.5519,1.5291,1.4985,1.4734,1.4482,1.421,0.0,0.0,0.0,1.3898,1.3639,1.2972,1.2599,1.2394,1.1976,1.1402,1.0713,1.0336,0.9654,0.8714,0.7814,0.7274,0.7064,0.6802,0.6664,0.6637,0.6559,0.6501,0.6474,0.6347,0.63,0.63,0.63,0.0,0.0,0.63,0.63,0.63,0.63,0.63,0.63,0.63,0.63,0.6296,0.6279,0.602,0.5796,0.5783,0.5597,0.5395,0.5395,0.524,0.5093,0.5076,0.4961,0.4887,0.487,0.4968,0.5032,0.4908,0.4995,0.4966,0.4684,0.4363,0.403,0.3572,0.0,0.0,0.1786,0.1321,0.1045,0.1049,0.1109,0.1205,0.127,0.1275,0.1296,0.1296,0.1054,0.0843,0.0595,0.0445,0.0237,0.0,0.0,0.0,0.0,0.0,0.0,0.0,0.0,0.0,0.0,0.0,0.0,0.0,0.0,0.0,0.0,0.0,0.0,2.2197,2.2617,2.2656,2.1982,2.1724,2.1255,2.0329,1.9285,1.843,1.798,1.7334,1.6772,1.6419,1.5835,1.5345,1.4999,1.4145,1.3686,1.3686,1.35,1.334,1.3293,1.316,1.3054,1.3008,0.0,0.0,1.208,1.1508,1.0724,0.9837,0.8574,0.7802,0.7428,0.681,0.6491,0.6392,0.6477,0.6443,0.6337,0.631,0.63,0.63,0.63,0.63,0.63,0.63,0.63,0.63,0.63,0.63,0.0,0.63,0.63,0.6272,0.6105,0.5939,0.5772,0.5657,0.5528,0.5395,0.5395,0.524,0.5066,0.4951,0.484,0.4697,0.46,0.4779,0.4921,0.4891,0.4911,0.4921,0.486,0.4796,0.461,0.4238,0.3664,0.3141,0.2762,0.2254,0.1945,0.1965,0.2119,0.2224,0.2237,0.2347,0.2374,0.2374,0.2034,0.1607,0.1153,0.0836,0.0447,0.0,0.0,0.0,0.0,0.0,0.0,0.0,0.0,0.0,0.0,0.0,0.0,0.0,0.0,2.0381,2.082,0.0,2.2266,2.248,2.2818,2.2877,2.2295,2.2021,2.1559,2.0579,1.9778,1.9164,1.8838,1.8318,1.7836,1.7383,1.6572,1.5878,1.5364,1.4296,1.3654,1.3534,1.332,1.3213,1.3213,1.306,1.3018,1.3018,1.3018,1.2744,1.2254,1.1877,1.1194,1.03,0.9119,0.8374,0.7942,0.7257,0.6943,0.688,0.6844,0.6634,0.63,0.63,0.63,0.63,0.63,0.63,0.63,0.63,0.63,0.63,0.63,0.63,0.63,0.63,0.6245,0.6129,0.6013,0.5864,0.5677,0.5606,0.5504,0.5395,0.5395,0.5186,0.4972,0.4901,0.4731,0.458,0.4505,0.4617,0.4691,0.4691,0.4755,0.4775,0.4701,0.4691,0.4603,0.4339,0.3929,0.36,0.3309,0.289,0.2671,0.2697,0.2806,0.288,0.2892,0.3015,0.3115,0.3115,0.2792,0.2397,0.1849,0.151,0.1091,0.0539,0.0539,0.0347,0.0,0.0,0.0,0.0,0.0,0.0,0.0,0.0,2.0257,2.0312,2.0669,2.1095,2.151,2.2241,2.2784,2.284,2.305,2.3046,2.2503,2.2141,2.1522,2.0478,2.001,1.9726,1.9578,1.9189,1.8739,1.8294,1.7308,1.6472,1.5803,1.4587,1.3765,1.3531,1.3216,1.3033,1.3033,1.2824,1.2697,1.2697,1.2697,1.2494,1.2046,1.196,1.1427,1.0587,0.9526,0.8801,0.8355,0.7861,0.7677,0.7639,0.7416,0.6965,0.6443,0.6391,0.6338,0.63,0.63,0.63,0.6293,0.6265,0.6255,0.6248,0.6221,0.6207,0.6207,0.6207,0.6081,0.5942,0.5912,0.5769,0.5583,0.5552,0.546,0.5351,0.5351,0.5084,0.4874,0.4874,0.4653,0.4491,0.4491,0.4491,0.4491,0.4491,0.4597,0.4631,0.4505,0.4491,0.4436,0.4273,0.4076,0.3879,0.3793,0.3516,0.3391,0.3454,0.3481,0.3505,0.3565,0.37,0.3758,0.3758,0.3577,0.3197,0.2661,0.2379,0.1949,0.1411,0.1411,0.0966,2.0584,2.0736,2.0887,2.1374,2.1491,2.1396,0.0,0.0,2.1426,2.1129,2.1728,2.2443,2.2898,2.3382,2.3803,2.3978,2.3854,2.3378,2.2393,2.2038,2.1553,2.0674,2.0527,2.0479,2.045,2.0024,1.9611,1.9201,1.8158,1.72,1.645,1.4964,1.3966,1.3594,1.2801,1.2405,1.2405,1.2365,1.2351,1.2351,1.2351,1.2331,1.2254,1.1998,1.1657,1.1145,0.9824,0.8942,0.8406,0.8335,0.83,0.8264,0.7954,0.7499,0.6965,0.6684,0.6451,0.63,0.63,0.63,0.6276,0.6101,0.602,0.5993,0.5895,0.5854,0.5854,0.5854,0.584,0.5796,0.5674,0.5613,0.5555,0.5453,0.527,0.5123,0.5123,0.4925,0.4718,0.4718,0.4607,0.4491,0.4491,0.4491,0.4491,0.4491,0.4505,0.4508,0.4491,0.4491,0.4491,0.4463,0.4436,0.4405,0.4405,0.438,0.4356,0.4345,0.447,0.4523,0.4539,0.468,0.4758,0.4758,0.4548,0.4193,0.3638,0.3443,0.3049,0.2511,0.2511,0.1977,2.1145,2.1206,2.134,2.1865,2.2012,2.1995,2.2027,2.2095,2.216,2.2127,2.2578,2.3243,2.41,2.4581,2.4934,2.5094,2.4524,2.371,2.2757,2.1977,2.1269,2.0674,2.0605,2.0605,2.0605,2.0166,1.9771,1.9516,1.8397,1.7478,1.6781,1.5389,1.4402,1.3896,1.3066,1.2599,1.2489,1.2378,1.2305,1.2305,1.2305,1.2211,1.2044,1.196,1.1523,1.0794,1.0113,0.9544,0.9085,0.9085,0.9085,0.905,0.8739,0.8242,0.7642,0.6964,0.6462,0.6125,0.6125,0.6125,0.6101,0.5949,0.5895,0.5884,0.582,0.58,0.58,0.58,0.5742,0.5664,0.5606,0.5556,0.545,0.5264,0.5147,0.5076,0.4992,0.484,0.4691,0.4691,0.4597,0.4491,0.4491,0.4491,0.4491,0.4491,0.4491,0.4491,0.4491,0.4491,0.4491,0.4491,0.4491,0.4491,0.4491,0.4491,0.4491,0.4491,0.4549,0.4586,0.4586,0.4704,0.4785,0.4785,0.4653,0.4379,0.3973,0.3772,0.3505,0.3168,0.3168,0.2988,2.1282,2.1282,2.1393,2.1945,2.2083,2.2147,2.2441,2.2497,2.255,2.296,2.3373,2.3968,2.4963,2.5582,2.5965,2.5928,2.5283,2.4363,2.3306,2.2231,2.1351,2.0752,2.0644,2.0605,2.0605,2.0068,1.9671,1.9522,1.8469,1.7605,1.7081,1.6006,1.5108,1.4517,1.3526,1.2918,1.2783,1.2371,1.2225,1.2305,1.2225,1.2107,1.1899,1.1739,1.1222,1.051,1.0374,1.0137,0.9866,0.9866,0.9866,0.9832,0.9485,0.8996,0.8403,0.7668,0.6908,0.6224,0.6191,0.6113,0.6052,0.5861,0.5777,0.5735,0.5691,0.5681,0.5681,0.5681,0.5606,0.5562,0.5562,0.5446,0.527,0.5127,0.5036,0.4951,0.4877,0.4735,0.4655,0.4655,0.4566,0.4491,0.4491,0.4491,0.4491,0.4491,0.4457,0.4429,0.4429,0.4392,0.4368,0.4368,0.4368,0.4368,0.4368,0.4368,0.4368,0.4368,0.4409,0.4429,0.4429,0.4576,0.4655,0.4655,0.4628,0.452,0.4249,0.4163,0.4041,0.3872,0.3932,0.4024,2.0717,2.0717,2.0842,2.1408,2.1506,2.1628,2.2018,2.2224,2.2587,2.3475,2.4141,2.4751,2.5374,2.6288,2.6799,2.6376,2.6181,2.5596,2.4095,2.3051,2.207,2.1005,2.0731,2.0605,2.0605,1.9805,1.9307,1.9307,1.8481,1.7823,1.7489,1.6872,1.6219,1.5463,1.4038,1.3262,1.3193,1.2355,1.2024,1.2298,1.2053,1.1913,1.1886,1.1276,1.0862,1.0588,1.0588,1.0588,1.0588,1.0588,1.0588,1.0518,1.0136,0.9682,0.923,0.9014,0.8048,0.6849,0.6642,0.6459,0.6247,0.5912,0.5728,0.5569,0.5453,0.5409,0.5409,0.5409,0.5405,0.5402,0.5402,0.5254,0.5103,0.51,0.4911,0.4704,0.4697,0.4604,0.4498,0.4498,0.4494,0.4491,0.4491,0.4491,0.4491,0.4491,0.4345,0.4204,0.4204,0.4099,0.4008,0.4008,0.4008,0.4008,0.4008,0.4008,0.4008,0.4008,0.4146,0.4204,0.4204,0.4392,0.4498,0.4498,0.4619,0.4697,0.4668,0.4817,0.486,0.4867,0.5004,0.5068,2.0087,2.0087,2.0225,2.083,2.0968,2.1179,2.2051,2.2272,2.2699,2.4142,2.4604,2.5129,2.6463,2.7275,2.7726,2.7621,2.7305,2.6574,2.51,2.3645,2.241,2.143,2.0876,2.0605,2.0605,1.9795,1.9287,1.9287,1.8496,1.7906,1.7647,1.7226,1.6689,1.6053,1.4721,1.3905,1.3615,1.2694,1.2248,1.2242,1.1696,1.1384,1.1276,1.0914,1.0687,1.0593,1.0593,1.0593,1.0593,1.0593,1.0593,1.0561,1.0301,0.9977,0.9594,0.9394,0.8887,0.8186,0.7546,0.7069,0.6625,0.615,0.5769,0.5463,0.5412,0.5324,0.5209,0.5209,0.5138,0.5067,0.5067,0.503,0.4935,0.4863,0.4762,0.4663,0.459,0.4528,0.4491,0.4491,0.4491,0.4491,0.4491,0.4491,0.4423,0.4199,0.4186,0.416,0.4085,0.4028,0.3994,0.3994,0.3994,0.3994,0.3994,0.3994,0.3994,0.3994,0.4045,0.4072,0.4072,0.4213,0.4294,0.4294,0.4463,0.4566,0.4566,0.4621,0.4667,0.4769,0.4816,0.4945,1.9798,1.9798,1.9886,2.0289,2.0377,2.0679,2.1769,2.202,2.2548,2.4399,2.4788,2.5322,2.6979,2.7733,2.8175,2.8373,2.8147,2.752,2.6186,2.4615,2.3214,2.2213,2.1324,2.0809,2.0693,1.987,1.9287,1.9287,1.8496,1.794,1.7818,1.7588,1.7235,1.6733,1.5487,1.4672,1.436,1.3315,1.2554,1.2195,1.1631,1.1197,1.0861,1.068,1.0593,1.0593,1.0593,1.0593,1.0593,1.0593,1.0593,1.0593,1.0466,1.0269,1.0066,0.9939,0.9692,0.9263,0.8301,0.764,0.7087,0.6573,0.5971,0.5509,0.5473,0.5332,0.521,0.521,0.5143,0.507,0.4975,0.4907,0.4813,0.4714,0.4679,0.461,0.4511,0.4491,0.4491,0.4491,0.4491,0.4474,0.4395,0.4341,0.4222,0.3975,0.3998,0.4004,0.3883,0.3863,0.3863,0.3863,0.3863,0.3863,0.3863,0.3863,0.3863,0.3863,0.391,0.3938,0.3938,0.4058,0.4142,0.4142,0.4311,0.4385,0.4385,0.4464,0.4542,0.4638,0.4663,0.4792,1.9798,1.9798,1.9798,1.9798,1.9798,2.01,2.123,2.1493,2.2121,2.4324,2.4788,2.5322,0.0,0.0,2.8211,2.8549,2.8762,2.844,2.734,2.584,2.4498,0.0,0.0,2.1167,2.0945,1.9954,0.0,1.9287,0.0,1.8008,1.8008,1.8008,1.7837,1.7539,1.6224,1.5501,1.5416,1.407,1.2996,1.2196,1.1862,1.1307,1.0593,1.0593,1.0593,1.0593,1.0593,1.0593,1.0593,1.0579,1.0566,1.0566,1.0553,1.0546,1.0546,1.0546,1.0334,0.9945,0.8917,0.82,0.7655,0.7135,0.6407,0.573,0.5659,0.5512,0.5419,0.5423,0.5415,0.5347,0.5159,0.49,0.4677,0.4677,0.4597,0.4491,0.4491,0.4491,0.4491,0.4491,0.4484,0.4433,0.4233,0.4092,0.3944,0.3816,0.3792,0.3764,0.3621,0.3604,0.3604,0.3604,0.3604,0.3604,0.3604,0.3604,0.3604,0.3604,0.373,0.3782,0.3782,0.3927,0.3984,0.3984,0.4139,0.4197,0.4197,0.4392,0.4491,0.4494,0.4641,0.4684,1.9798,1.9798,1.9798,1.9798,1.9798,2.01,2.123,2.1493,2.2121,2.4324,2.4788,2.5322,2.6979,2.7733,2.8248,2.8762,2.9211,0.0,2.8228,2.6959,0.0,2.4457,0.0,2.169,2.1387,2.0093,0.0,1.9287,1.8496,1.8008,1.8008,1.8008,1.7906,1.7647,1.6487,1.5781,1.564,1.4087,1.2956,1.2274,1.1827,1.1262,1.0593,1.0593,1.0593,1.0593,1.0593,1.0593,1.0573,1.0321,1.0234,1.0207,1.0023,0.9936,0.9936,0.9936,0.9889,0.9748,0.9309,0.8871,0.8428,0.784,0.6989,0.6174,0.5951,0.5815,0.5702,0.5685,0.5579,0.5414,0.5168,0.4829,0.4549,0.4549,0.4518,0.4491,0.4491,0.4491,0.4491,0.4491,0.4375,0.4227,0.4078,0.4021,0.3944,0.3816,0.3792,0.3764,0.3621,0.3604,0.3604,0.3604,0.3604,0.3604,0.3604,0.3604,0.3604,0.3604,0.3634,0.3658,0.3658,0.3771,0.3849,0.3849,0.4089,0.4197,0.4197,0.4392,0.4491,0.4491,0.4532,0.461,1.9798,1.9798,1.9798,1.9798,1.9987,2.0413,2.1292,2.1681,2.2422,2.4374,2.4788,2.5322,2.6979,2.7733,2.8285,2.88,0.0,0.0,2.8944,2.7686,2.6469,0.0,2.3512,0.0,2.1693,2.0205,1.9287,1.9287,1.8496,1.8008,1.8008,1.8008,1.794,1.7852,1.6833,1.6053,1.556,1.4417,1.3356,1.241,1.1859,1.1122,1.0211,1.0211,1.0211,1.0211,1.0211,1.0211,1.0191,0.9993,0.9927,0.9913,0.9746,0.9715,0.9715,0.9715,0.9599,0.9477,0.9524,0.9285,0.8876,0.8242,0.736,0.6512,0.6409,0.6233,0.608,0.6141,0.6027,0.5823,0.5504,0.5038,0.4653,0.4601,0.4546,0.447,0.4382,0.4368,0.4348,0.428,0.4148,0.3994,0.3934,0.387,0.3799,0.3733,0.372,0.3692,0.3614,0.3604,0.3604,0.3604,0.3604,0.3604,0.3604,0.3604,0.3604,0.3604,0.3604,0.3604,0.3604,0.3679,0.372,0.372,0.3971,0.4122,0.4122,0.4385,0.4491,0.4491,0.4491,0.4535,1.9798,1.9798,1.9798,1.9798,2.0264,2.0842,2.1395,2.192,2.2774,2.4349,2.4738,2.531,2.6892,2.762,2.8197,2.8787,0.0,2.9614,2.9457,2.8235,2.705,2.632,2.4191,2.2526,2.1866,2.0276,1.9268,1.9209,1.8467,1.8008,1.8008,1.8008,1.7959,1.7842,1.7028,1.6219,1.542,1.4824,1.3906,1.2655,1.199,1.1027,0.9802,0.9795,0.9766,0.9737,0.9737,0.9708,0.9708,0.9639,0.9626,0.9619,0.9579,0.9566,0.9566,0.9566,0.9406,0.9191,0.9479,0.9399,0.9059,0.8467,0.7649,0.6914,0.6974,0.6804,0.6593,0.6723,0.6674,0.6485,0.6046,0.5456,0.4922,0.4765,0.4583,0.4395,0.422,0.4167,0.4146,0.3994,0.3883,0.3785,0.3768,0.3682,0.3604,0.3604,0.3604,0.3604,0.3604,0.3604,0.3604,0.3604,0.3604,0.3604,0.3604,0.3604,0.3604,0.3604,0.3604,0.3604,0.3604,0.3604,0.3604,0.3604,0.3849,0.3974,0.3994,0.43,0.447,0.4491,0.4491,0.4491,1.9798,1.9798,1.9798,1.9798,2.0264,2.0842,2.1395,2.192,0.0,0.0,2.4506,2.5184,2.6424,2.709,2.7758,2.8725,2.8976,2.9201,2.9678,2.87,2.7656,0.0,2.4777,2.2941,2.1813,2.0232,0.0,0.0,1.8256,1.8008,1.8008,1.8008,1.7686,1.6941,1.6455,1.5968,1.542,1.4913,1.4083,1.2908,1.243,1.1525,1.0351,1.025,1.0128,1.002,0.9904,0.0,0.9666,0.9391,0.9291,0.9264,0.9051,0.8958,0.8958,0.8958,0.8925,0.8891,0.8945,0.8925,0.8851,0.8741,0.8343,0.7902,0.7635,0.7516,0.7482,0.7509,0.7482,0.7348,0.6853,0.597,0.5169,0.4937,0.447,0.4065,0.4041,0.4035,0.3991,0.386,0.3809,0.3754,0.3658,0.3617,0.3604,0.3604,0.3604,0.3604,0.3604,0.3604,0.3604,0.3604,0.3604,0.3604,0.3604,0.3604,0.3604,0.3604,0.3604,0.3604,0.3604,0.3604,0.3604,0.3604,0.3744,0.3894,0.3994,0.4173,0.4345,0.4491,0.4491,0.4491,2.0277,2.0037,1.9798,1.9798,2.0451,2.1182,2.143,0.0,0.0,0.0,2.4205,2.472,2.5845,2.6512,2.7153,2.7946,2.8549,2.8888,2.8913,2.8448,2.7741,2.6797,2.4995,2.3346,2.2132,2.0545,1.938,1.8803,1.8277,1.8008,1.8008,1.7803,1.7285,1.6416,1.6202,1.588,1.5391,1.504,1.4254,1.304,1.2674,1.1847,1.0643,1.0447,1.0203,0.9939,0.9727,0.9494,0.9218,0.9044,0.8991,0.8978,0.8864,0.8804,0.8804,0.8804,0.8804,0.8804,0.8804,0.8804,0.8805,0.8803,0.8517,0.8193,0.8086,0.8023,0.7969,0.8049,0.8023,0.7836,0.7348,0.6476,0.5638,0.5379,0.4765,0.4265,0.4265,0.4199,0.4133,0.4077,0.4062,0.4036,0.3983,0.3906,0.3843,0.3777,0.3707,0.3641,0.3604,0.3604,0.3604,0.3604,0.3604,0.3604,0.3604,0.3604,0.3604,0.3604,0.3604,0.3604,0.3604,0.3604,0.3604,0.3604,0.3744,0.3829,0.39,0.4109,0.4257,0.4355,0.4453,0.4491,2.0893,2.0453,2.0012,2.0137,2.0828,2.1518,2.1644,2.2393,0.0,2.3715,2.3916,2.4293,2.5259,2.5921,2.6537,2.7168,2.8009,2.8461,2.8147,2.8009,2.7541,0.0,2.5181,0.0,2.2457,2.0986,0.0,1.8944,1.8242,1.7871,1.7871,1.7383,1.6809,1.6114,1.6007,1.5762,1.5391,1.5071,1.4336,1.3168,1.2869,1.2105,1.0973,1.0728,1.0379,0.9943,0.9666,0.929,0.8883,0.8857,0.8831,0.8804,0.8804,0.8804,0.8804,0.8804,0.8804,0.8804,0.8804,0.8804,0.8804,0.8804,0.8593,0.8354,0.8454,0.8407,0.8354,0.8454,0.8407,0.8215,0.7809,0.6994,0.6187,0.5717,0.5142,0.4667,0.4667,0.4598,0.4513,0.4513,0.4513,0.4513,0.4513,0.4386,0.4236,0.403,0.3877,0.3744,0.3622,0.3604,0.3604,0.3604,0.3604,0.3604,0.3604,0.3604,0.3604,0.3604,0.3604,0.3604,0.3604,0.3604,0.3604,0.3604,0.3713,0.3761,0.3792,0.4008,0.413,0.42,0.4365,0.446,2.1543,2.1031,2.0729,2.1232,2.1405,2.1619,2.2121,0.0,2.312,2.317,2.364,2.418,2.4782,2.5322,2.6025,2.7105,2.7369,2.7595,2.8047,2.767,2.7201,2.6721,0.0,0.0,2.2639,2.142,2.0188,1.8897,1.7975,1.7474,1.7474,1.6672,1.6183,1.6095,1.5684,1.5449,1.541,1.4887,1.423,1.3467,1.2945,1.2309,1.1619,1.1343,1.0964,1.0498,1.0097,0.964,0.0,0.9035,0.891,0.8804,0.8804,0.8804,0.8804,0.8804,0.8804,0.8804,0.8804,0.8804,0.8804,0.8804,0.8778,0.8752,0.8752,0.8752,0.8752,0.8752,0.8752,0.8672,0.8401,0.7664,0.6723,0.5607,0.5281,0.5229,0.5229,0.521,0.52,0.52,0.52,0.52,0.52,0.5048,0.4787,0.4413,0.4198,0.3943,0.3644,0.3604,0.3604,0.3604,0.3604,0.3604,0.3604,0.3604,0.3604,0.3604,0.3604,0.3604,0.3604,0.3604,0.3604,0.3604,0.3614,0.3686,0.3792,0.3819,0.395,0.4197,0.421,0.4338,2.1584,2.1243,2.0955,2.125,2.1647,2.2046,2.2259,2.2706,2.3108,2.3108,2.3283,2.3722,2.4625,2.4963,2.5485,2.6637,2.7102,2.7278,2.7165,2.7241,2.7097,2.6456,2.5775,0.0,0.0,0.0,2.026,1.8105,1.7143,1.6623,1.6623,1.6281,1.5977,1.5684,1.5498,1.541,1.541,1.4962,1.4423,1.3853,1.3389,1.2919,1.2397,1.215,1.176,1.1309,1.0846,1.0233,0.0,0.9342,0.9061,0.8804,0.8804,0.8804,0.8804,0.8804,0.8804,0.8804,0.8804,0.8804,0.8804,0.8804,0.8804,0.8804,0.8804,0.8804,0.8804,0.8804,0.8804,0.8752,0.858,0.7854,0.6919,0.5952,0.5728,0.5728,0.5728,0.5728,0.5728,0.5728,0.5728,0.5728,0.5728,0.5561,0.5275,0.4879,0.4574,0.4246,0.384,0.3707,0.3641,0.3604,0.3604,0.3604,0.3604,0.3604,0.3604,0.3604,0.3604,0.3604,0.3604,0.3604,0.3604,0.3604,0.3604,0.3631,0.3686,0.3771,0.39,0.4089,0.4153,0.4297,2.1432,2.1229,2.1087,2.1461,2.1819,2.2159,2.2456,2.2706,2.2907,2.307,2.3108,2.3446,2.4575,2.4788,2.5184,2.6311,2.6826,2.6939,2.6549,2.6839,2.6869,2.6355,0.0,2.4964,2.3408,2.1677,1.9681,1.7363,1.6525,1.6036,1.5909,1.5899,1.5732,1.542,1.541,1.541,1.541,1.4863,1.4434,1.4104,1.3584,1.3164,1.2881,1.2652,1.2338,1.1907,1.1435,1.0727,0.0,0.9588,0.9211,0.8804,0.8804,0.8804,0.8804,0.8804,0.8804,0.8804,0.8804,0.8804,0.8804,0.8804,0.8751,0.8684,0.8684,0.8738,0.8804,0.8804,0.8744,0.8611,0.8342,0.7774,0.7125,0.6464,0.6291,0.6291,0.6291,0.6291,0.6291,0.6291,0.6291,0.6291,0.6291,0.612,0.5863,0.5491,0.5096,0.4661,0.4114,0.3917,0.3766,0.3622,0.3604,0.3604,0.3604,0.3604,0.3604,0.3604,0.3604,0.3604,0.3604,0.3604,0.3604,0.3604,0.3604,0.3604,0.3604,0.3703,0.3829,0.3998,0.4105,0.428,2.1154,2.1043,2.123,2.217,2.1947,2.1782,2.2844,2.2681,2.2443,2.2995,2.3108,2.3446,2.4575,2.4788,2.5184,2.6311,2.6499,2.6499,2.6499,2.6499,2.6499,0.0,2.595,2.5108,2.3905,2.0833,1.8312,1.6831,1.6318,0.0,1.5439,1.542,1.542,1.541,1.541,1.541,1.541,1.4533,1.4114,1.4094,1.3281,1.2905,1.2905,1.2759,1.2554,1.2249,1.1728,1.0998,0.0,0.9762,0.929,0.8804,0.8804,0.8804,0.8804,0.8804,0.8804,0.8804,0.8804,0.8804,0.8804,0.8804,0.8611,0.8402,0.8402,0.8577,0.8804,0.8804,0.8604,0.8268,0.7658,0.7497,0.7417,0.7073,0.7,0.7,0.7,0.7,0.7,0.7,0.7,0.7,0.7,0.6831,0.6577,0.6243,0.5793,0.5226,0.4496,0.422,0.3961,0.3644,0.3604,0.3604,0.3604,0.3604,0.3604,0.3604,0.3604,0.3604,0.3604,0.3604,0.3604,0.3604,0.3604,0.3604,0.3604,0.3604,0.3734,0.3994,0.3998,0.4182,2.0367,2.066,2.1054,2.1573,2.1848,2.2097,2.2518,2.2591,2.265,2.2902,2.3047,2.3446,2.4575,2.4788,2.5184,2.6311,2.6499,2.6499,2.6499,2.6499,0.0,2.6499,2.5243,2.3782,0.0,0.0,1.7999,1.6801,1.6045,1.5557,1.542,1.541,1.541,1.541,1.541,1.5273,1.498,1.4397,1.3968,1.3675,1.3145,1.2905,1.2905,1.2856,1.2774,1.2676,1.215,1.1426,1.0559,1.009,0.9439,0.8804,0.8804,0.8804,0.8804,0.8804,0.8804,0.8804,0.8804,0.8677,0.8536,0.8536,0.831,0.8045,0.8045,0.8112,0.8185,0.8185,0.8119,0.7976,0.7591,0.7513,0.7417,0.7073,0.7,0.7,0.7,0.7,0.7,0.7,0.7,0.7,0.7,0.6901,0.6738,0.6462,0.6077,0.5604,0.4966,0.4705,0.4451,0.4122,0.3994,0.3843,0.3626,0.3604,0.3604,0.3604,0.3604,0.3604,0.3604,0.3604,0.3604,0.3604,0.3604,0.3604,0.3604,0.3604,0.3731,0.3998,0.4102,0.428,1.9353,1.9879,2.0366,2.0709,2.1017,2.1373,2.1791,2.1993,2.2183,2.2616,2.2927,2.3446,2.4575,2.4788,2.5184,2.6311,2.6499,2.6499,2.6499,0.0,0.0,2.5921,2.4648,0.0,0.0,1.9308,1.78,1.6578,1.582,1.541,1.541,1.541,1.541,1.541,1.541,1.5283,1.5029,1.459,1.4133,1.3714,1.332,1.3062,1.2905,1.2905,1.2905,1.2881,1.2323,1.1601,0.0,1.0218,0.951,0.8804,0.8804,0.8804,0.8804,0.8804,0.8804,0.8804,0.8804,0.8691,0.8543,0.8435,0.8114,0.7736,0.7599,0.7726,0.7879,0.7789,0.7756,0.7682,0.7381,0.7323,0.7255,0.7046,0.7,0.7,0.7,0.7,0.7,0.7,0.7,0.7,0.7,0.6964,0.6886,0.6711,0.6441,0.6077,0.5577,0.5318,0.5058,0.4705,0.4535,0.4298,0.3924,0.3748,0.3619,0.3604,0.3604,0.3604,0.3604,0.3604,0.3604,0.3604,0.3604,0.3604,0.3604,0.3655,0.3785,0.3998,0.4149,0.4297,0.0,1.8831,1.9342,1.9671,1.9704,1.9914,2.0819,2.1024,0.0,2.2145,2.2744,2.3428,2.4587,2.4788,2.5184,2.6311,2.6499,2.6499,2.6499,2.6461,0.0,0.0,2.4173,2.2749,2.0172,1.8958,1.7705,1.6246,1.5694,1.541,1.541,1.541,1.541,1.541,1.541,1.54,1.5371,1.498,1.4561,1.4104,1.3714,1.333,1.2954,1.2954,1.2935,0.0,1.2323,1.1601,1.0762,1.0218,0.951,0.8804,0.8804,0.8804,0.8804,0.8804,0.8804,0.8804,0.8804,0.8791,0.8724,0.8435,0.7953,0.743,0.7108,0.7393,0.7779,0.7538,0.7457,0.739,0.7073,0.7,0.7,0.7,0.7,0.7,0.7,0.7,0.7,0.7,0.7,0.7,0.7,0.7,0.7,0.7,0.6831,0.6605,0.627,0.6007,0.5723,0.5394,0.5178,0.4896,0.4478,0.4001,0.37,0.3604,0.3604,0.3604,0.3604,0.3604,0.3604,0.3604,0.3604,0.3604,0.3604,0.3737,0.386,0.3998,0.4139,0.4287,1.7373,0.0,1.8965,1.9198,1.9444,1.9738,0.0,2.0619,2.108,2.1667,0.0,2.3164,2.4439,2.4736,2.5184,2.6311,2.6499,2.6499,2.6499,2.6109,2.5548,2.4863,2.3951,2.2528,2.0469,1.9304,1.8048,1.6528,1.591,1.5546,1.541,1.541,1.541,1.541,1.541,1.5254,1.4932,1.4834,1.4561,1.4104,1.4007,1.3743,1.3359,1.3359,1.3184,1.2881,1.2323,1.1601,1.0762,1.0218,0.951,0.8804,0.8804,0.8804,0.8804,0.8804,0.8804,0.8804,0.8804,0.8664,0.8415,0.7879,0.7605,0.743,0.7108,0.71,0.72,0.7126,0.7128,0.7086,0.702,0.7,0.7,0.7,0.7,0.7,0.7,0.7,0.7,0.7,0.7,0.7,0.7,0.7,0.7,0.7,0.6929,0.6759,0.6456,0.634,0.6147,0.5863,0.5647,0.5366,0.4966,0.4355,0.3899,0.3622,0.3604,0.3604,0.3604,0.3604,0.3604,0.3604,0.3604,0.3604,0.3604,0.3634,0.3765,0.3994,0.4031,0.4212,1.6925,1.7725,1.8472,1.8573,1.8741,1.8942,1.9297,1.9781,0.0,0.0,0.0,2.2736,2.4079,2.4581,2.5184,2.6311,2.6499,2.6399,2.6135,2.5799,2.531,2.4544,2.3788,2.2563,2.0587,1.9632,1.84,1.6639,1.6112,1.5739,1.541,1.541,1.541,1.541,1.541,1.5303,1.5078,1.5068,1.4853,1.4434,1.4434,1.4111,1.3506,1.3506,1.3281,1.2881,1.2406,1.1735,1.0931,1.0405,0.9699,0.8982,0.891,0.8857,0.8804,0.8804,0.8804,0.8804,0.8804,0.8617,0.8348,0.8013,0.7718,0.7457,0.7275,0.7128,0.7,0.7,0.7,0.7,0.7,0.7,0.7,0.7,0.7,0.7,0.7,0.7,0.7,0.7,0.7,0.7046,0.7201,0.7228,0.7228,0.7228,0.7311,0.7262,0.6987,0.703,0.7023,0.6888,0.6684,0.6361,0.583,0.5264,0.4581,0.3781,0.3685,0.3641,0.3604,0.3604,0.3604,0.3604,0.3604,0.3604,0.3604,0.3604,0.3731,0.3994,0.3994,0.4178,1.6647,1.743,1.8086,1.8027,1.8008,1.8076,1.8414,0.0,0.0,0.0,0.0,0.0,2.3782,2.4471,0.0,2.6311,2.6499,0.0,2.5674,2.5523,2.5109,2.4117,2.3635,2.2616,2.0665,1.9942,1.8789,1.6782,1.6361,1.5999,1.5497,1.5468,1.5439,1.541,1.541,1.541,1.541,1.541,1.5234,1.4883,1.4883,1.4434,1.3578,1.3578,1.334,1.2881,1.2505,0.0,1.125,1.0727,1.0035,0.9283,0.9106,0.8956,0.8804,0.8804,0.8804,0.8804,0.8804,0.8644,0.8456,0.8415,0.8047,0.7618,0.7578,0.7361,0.7126,0.708,0.7033,0.7,0.7,0.7,0.7,0.7,0.7,0.7,0.7,0.7,0.7,0.7,0.7,0.71,0.7437,0.7513,0.7513,0.7513,0.7729,0.7799,0.7531,0.7736,0.7905,0.7905,0.7739,0.7356,0.6726,0.6242,0.5437,0.4152,0.3877,0.3704,0.3604,0.3604,0.3604,0.3604,0.3604,0.3604,0.3604,0.3604,0.3731,0.3994,0.3994,0.4178,1.6202,1.7444,1.8422,1.8105,1.8008,1.8076,1.8414,0.0,0.0,0.0,0.0,0.0,0.0,2.4549,2.5184,0.0,0.0,2.6298,2.5674,2.5222,2.4675,2.4067,2.3393,2.2411,2.0888,2.0349,1.9321,1.7401,1.6909,1.6428,1.5845,1.572,1.5575,1.541,1.541,1.541,1.541,1.541,1.5381,1.5312,1.5312,1.4835,1.4007,1.4007,1.3588,1.2881,0.0,1.2181,1.1674,1.1183,1.0498,0.9692,0.9439,0.9106,0.8804,0.8804,0.8804,0.8804,0.8804,0.8778,0.8697,0.8482,0.8335,0.8214,0.7936,0.7806,0.7712,0.7491,0.7214,0.7,0.7,0.7,0.7,0.7,0.7,0.7,0.7,0.7,0.7,0.7,0.7,0.71,0.7437,0.7513,0.7513,0.7513,0.7729,0.7799,0.7531,0.7736,0.7905,0.7905,0.7773,0.7491,0.6976,0.6572,0.5916,0.4985,0.4355,0.3899,0.3622,0.3604,0.3604,0.3604,0.3604,0.3604,0.3604,0.3604,0.3731,0.3994,0.3994,0.4178,1.6088,1.7253,1.8217,1.8057,1.8359,1.8807,1.9184,1.9685,0.0,0.0,0.0,0.0,0.0,0.0,2.5184,2.6311,2.6499,2.6197,2.5297,2.4971,2.4474,2.364,2.321,2.2521,2.1299,2.0876,1.9964,1.8232,1.7667,1.7039,1.6265,1.6028,1.5768,1.541,1.541,1.541,1.541,1.541,1.541,1.541,1.5186,1.4746,1.4104,1.387,1.3467,1.2881,0.0,1.2387,1.2024,1.1519,1.0795,0.9987,0.964,0.9211,0.8804,0.8804,0.8804,0.8804,0.8804,0.8804,0.8784,0.8651,0.8529,0.8375,0.821,0.7943,0.7649,0.7531,0.739,0.7228,0.704,0.7,0.7,0.7,0.7,0.7,0.7,0.7,0.7,0.7,0.7154,0.7361,0.7662,0.7873,0.7926,0.7742,0.811,0.8212,0.7776,0.8116,0.8378,0.8378,0.8321,0.8062,0.7529,0.7205,0.6424,0.4924,0.4312,0.3899,0.366,0.3622,0.3604,0.3604,0.3604,0.3622,0.3663,0.3729,0.3912,0.4218,0.4218,0.4359,1.6088,1.7188,1.812,1.812,0.0,1.9157,1.9676,2.0326,0.0,0.0,0.0,0.0,0.0,2.512,2.5473,2.6361,2.6386,2.5925,2.4926,2.4675,2.4224,2.3221,2.3108,2.2669,2.1594,2.1285,2.0508,1.8943,1.8321,1.7584,1.6662,1.6304,1.5912,1.541,1.5312,1.5264,1.5264,1.5166,1.5166,1.5264,1.4941,1.4502,1.3948,1.3627,1.3281,1.2881,1.2774,1.2627,1.2406,1.1852,1.1124,1.0287,0.9865,0.9335,0.8804,0.8804,0.8804,0.8804,0.8804,0.8804,0.8804,0.8804,0.8657,0.8489,0.8422,0.8074,0.7672,0.7553,0.7513,0.7417,0.708,0.7,0.7,0.7,0.7,0.702,0.7108,0.7046,0.702,0.7108,0.733,0.7591,0.7852,0.8176,0.8277,0.7952,0.8405,0.8571,0.7985,0.8418,0.8804,0.8804,0.8804,0.8545,0.7904,0.7603,0.6741,0.5033,0.4355,0.3943,0.3807,0.3663,0.3604,0.3604,0.3604,0.3641,0.3744,0.3921,0.4203,0.4536,0.4511,0.4617,1.6088,1.7392,1.8559,1.8559,1.8315,1.834,1.9302,2.0123,0.0,2.2355,0.0,0.0,0.0,2.5911,2.6399,2.6487,2.6047,2.546,2.4863,2.4381,2.3828,2.3183,2.3108,2.2669,2.1594,2.1353,2.0699,1.9259,1.8602,1.7886,1.7011,1.6542,1.5999,1.541,1.5039,1.4834,1.4834,1.4397,1.4397,1.4834,1.4805,1.4355,1.3555,1.3516,1.3281,1.2905,1.2881,1.2881,1.2832,1.2274,1.1551,1.0686,1.0192,0.9484,0.8804,0.8804,0.8804,0.8804,0.8804,0.8804,0.8804,0.8804,0.8791,0.8724,0.8482,0.8368,0.8214,0.7651,0.7513,0.7417,0.708,0.7,0.7,0.7,0.7,0.7073,0.7397,0.7214,0.708,0.7404,0.7471,0.7591,0.7852,0.8176,0.8277,0.7952,0.8405,0.8571,0.7985,0.8418,0.8804,0.8804,0.8804,0.8512,0.7771,0.7293,0.6708,0.595,0.494,0.4282,0.4089,0.3774,0.3604,0.3604,0.3604,0.3689,0.388,0.4198,0.4565,0.496,0.4882,0.4947,1.6088,1.7225,1.8217,1.8217,1.8091,0.0,0.0,2.1335,2.2418,2.3665,2.449,0.0,0.0,0.0,2.5824,2.5498,2.5259,2.4933,2.4393,2.413,2.3791,2.317,2.3108,2.2669,2.1594,2.1437,2.0919,1.9679,1.9054,1.8348,1.7424,1.6899,1.6133,1.5058,1.4873,1.4658,1.4385,1.4192,1.4055,1.3994,1.3994,1.3818,1.3496,1.3242,1.3027,1.2905,1.2905,1.2905,1.2856,1.2397,1.176,1.0964,1.0097,0.951,0.9159,0.9087,0.9008,0.891,0.8831,0.8804,0.8804,0.8804,0.8804,0.8784,0.8677,0.839,0.8049,0.7822,0.7482,0.7161,0.7033,0.7,0.7,0.7,0.7161,0.735,0.7464,0.7528,0.7539,0.7504,0.7792,0.8033,0.7919,0.8323,0.8477,0.7979,0.8405,0.8571,0.7985,0.8418,0.8804,0.8804,0.8644,0.8444,0.8167,0.7633,0.7132,0.6704,0.552,0.47,0.4421,0.4012,0.3796,0.3796,0.3796,0.3968,0.4338,0.4683,0.5111,0.5614,0.5472,0.546,1.6123,1.7216,1.8174,1.8047,0.0,0.0,2.0385,2.1742,2.3025,2.4225,2.5069,2.5485,2.5134,0.0,0.0,2.485,2.4669,2.4431,2.4054,2.3841,2.3547,2.3145,2.2945,2.2481,2.1581,2.1358,2.0828,1.9874,1.9291,1.859,1.766,1.7095,1.6202,1.4823,1.4648,1.4375,1.3909,1.3773,1.3594,1.3311,1.3311,1.3311,1.3301,1.3042,1.2905,1.2905,1.2905,1.2905,1.2881,1.2505,1.1918,1.1175,1.0328,0.9865,0.9692,0.9458,0.929,0.908,0.8883,0.8804,0.8791,0.8697,0.8731,0.8771,0.8565,0.8292,0.8005,0.7836,0.7533,0.7266,0.7188,0.7161,0.7188,0.7259,0.7462,0.7658,0.7752,0.7849,0.7846,0.7655,0.7949,0.817,0.7939,0.8343,0.8537,0.813,0.849,0.8631,0.8136,0.8504,0.8804,0.8804,0.8631,0.8502,0.8409,0.7933,0.7484,0.7173,0.615,0.5334,0.4901,0.4355,0.4052,0.4056,0.4052,0.429,0.4748,0.5226,0.5743,0.6315,0.6121,0.6086,1.6193,1.7411,1.85,1.8081,0.0,0.0,1.962,2.104,2.2548,2.3757,2.4847,2.5586,2.5586,2.5159,0.0,2.4775,2.4343,2.3991,2.3991,2.3471,2.3108,2.3095,2.2606,2.2096,2.1531,2.1018,2.0453,1.9849,1.9291,1.859,1.766,1.7095,1.6164,1.4851,1.4328,1.3899,1.3506,1.3111,1.2905,1.2905,1.2905,1.2905,1.2905,1.2905,1.2905,1.2905,1.2905,1.2905,1.2881,1.2603,1.2067,1.1376,1.0973,1.0644,1.0364,0.9961,0.964,0.9335,0.8936,0.8804,0.8758,0.8496,0.8571,0.8691,0.8085,0.8136,0.8268,0.7665,0.7695,0.7839,0.7578,0.752,0.7571,0.7832,0.7912,0.7992,0.8335,0.8143,0.7912,0.7905,0.7912,0.7912,0.7905,0.8176,0.8402,0.8395,0.8617,0.8704,0.8442,0.8631,0.8804,0.8804,0.8804,0.8691,0.8429,0.8103,0.7732,0.7338,0.6805,0.62,0.5534,0.4809,0.4417,0.4412,0.4417,0.4635,0.5101,0.5836,0.6487,0.699,0.6858,0.6831,1.5857,1.7033,1.8139,1.7856,0.0,0.0,0.0,2.0971,0.0,0.0,2.483,2.4933,2.4544,2.4343,0.0,2.3672,2.3471,2.3358,2.3358,2.3208,2.2957,2.2569,2.241,2.1945,2.1031,2.0792,2.0453,1.9849,1.9291,1.859,1.766,1.7095,1.6019,1.4346,1.4172,1.3763,1.3076,1.2964,1.2905,1.2905,1.2905,1.2905,1.2905,1.2905,1.2905,1.2905,1.2905,1.2905,1.2881,1.2505,1.2175,1.1868,1.156,1.1209,1.0829,1.0277,0.9865,0.9465,0.8982,0.8804,0.8758,0.8496,0.8456,0.8496,0.8297,0.8163,0.807,0.812,0.8023,0.7932,0.81,0.8127,0.81,0.7932,0.809,0.827,0.8382,0.8464,0.8398,0.7985,0.8103,0.811,0.7698,0.8053,0.8328,0.8096,0.8484,0.8778,0.8691,0.8751,0.8804,0.8804,0.8804,0.8771,0.8684,0.8192,0.7842,0.7732,0.7176,0.6562,0.589,0.5231,0.4944,0.5026,0.4944,0.5161,0.5734,0.6179,0.664,0.7059,0.7133,0.7056,1.5323,1.6528,0.0,1.7745,1.8318,1.9257,2.0646,0.0,0.0,0.0,2.4612,2.4393,2.4054,2.3803,2.3509,2.3158,2.3108,2.3108,2.3108,2.292,2.2656,2.2347,2.192,2.1393,2.0754,2.0478,2.0175,1.9823,1.9344,1.8697,1.7836,1.7115,1.5989,1.4337,1.408,1.3616,1.2915,1.2905,1.2905,1.2905,1.2905,1.2905,1.2905,1.2905,1.2905,1.2905,1.2905,1.2905,1.2881,1.2627,1.2505,1.2406,1.2249,1.1902,1.1418,1.0703,1.0141,0.9666,0.9035,0.8804,0.8738,0.833,0.8301,0.8355,0.8114,0.808,0.8116,0.8183,0.8237,0.8265,0.8382,0.8489,0.8497,0.8298,0.8417,0.855,0.855,0.8597,0.8497,0.7999,0.7976,0.7919,0.7574,0.7792,0.806,0.8096,0.8504,0.8804,0.8804,0.8804,0.8804,0.8804,0.8804,0.8758,0.8644,0.8179,0.7852,0.7756,0.7402,0.6985,0.654,0.598,0.5797,0.6,0.5938,0.6102,0.6557,0.678,0.7074,0.7409,0.7391,0.723,1.4748,1.6009,1.7297,1.7665,1.8625,0.0,2.2152,2.2914,2.3459,2.4519,0.0,2.3916,2.3916,2.3459,2.3108,2.3108,2.3108,2.3083,2.3032,2.2594,2.2272,2.2171,2.1307,2.0679,2.0616,2.0112,1.9786,1.9736,1.9374,1.8814,1.8036,1.7102,1.5961,1.4611,1.4046,1.3461,1.2915,1.2905,1.2905,1.2905,1.2905,1.2905,1.2905,1.2905,1.2905,1.2905,1.2905,1.2905,1.2905,1.2905,1.2905,1.2905,1.2905,1.2578,1.1993,1.1133,1.0466,0.9891,0.9113,0.8831,0.8737,0.8141,0.8134,0.8279,0.7698,0.7919,0.8315,0.8045,0.8372,0.8744,0.8509,0.8611,0.8804,0.8804,0.8804,0.8798,0.8778,0.8564,0.8301,0.7925,0.7662,0.7484,0.745,0.7471,0.7685,0.8275,0.8557,0.8724,0.8724,0.8724,0.8724,0.8724,0.8724,0.8624,0.8382,0.8063,0.7782,0.7544,0.7504,0.7473,0.7396,0.6933,0.6823,0.714,0.7146,0.7218,0.7433,0.7498,0.7635,0.7859,0.7651,0.7383,1.4323,1.5796,0.0,0.0,1.9073,2.0853,2.1977,2.2451,2.295,2.3958,2.3684,2.3296,2.3296,2.3195,2.3108,2.3108,2.3108,2.2957,2.2518,2.2355,2.1995,2.1157,2.0842,2.0515,2.0037,1.9874,1.9635,1.9196,1.8895,1.8333,1.7376,1.6717,1.5778,1.4493,1.4159,1.3651,1.2915,1.2905,1.2905,1.2905,1.2905,1.2905,1.2905,1.2905,1.2905,1.2905,1.2905,1.2905,1.2905,1.2905,1.2905,1.2905,1.2905,1.2578,1.1993,1.1133,1.0525,1.0061,0.9368,0.9106,0.9009,0.8401,0.8201,0.8116,0.7893,0.7899,0.8085,0.8485,0.8711,0.8791,0.8731,0.8758,0.8804,0.8804,0.8804,0.8744,0.8543,0.8442,0.8241,0.7692,0.7538,0.7417,0.7161,0.733,0.7611,0.7945,0.8059,0.8099,0.8099,0.8099,0.8099,0.8099,0.8099,0.8072,0.8005,0.7742,0.7642,0.7799,0.7625,0.7705,0.8139,0.7561,0.7299,0.7494,0.7385,0.7433,0.7648,0.7762,0.7742,0.7591,0.7749,0.7503,1.3747,0.0,0.0,1.8303,0.0,2.122,2.1903,2.2078,2.24,2.3449,2.3319,2.3017,2.3078,2.3108,2.3108,2.3108,2.3108,2.2907,2.2385,2.2083,2.1606,2.0792,2.0453,2.0163,1.9823,1.9572,1.9296,1.902,1.8573,1.8007,1.7315,1.6603,1.5704,1.468,1.4125,1.3553,1.2905,1.2905,1.2905,1.2905,1.2905,1.2905,1.2905,1.2905,1.2905,1.2905,1.2905,1.2905,1.2905,1.2905,1.2905,1.2905,1.2905,1.2578,1.1993,1.1133,1.0609,1.0257,0.9673,0.9491,0.9383,0.8772,0.8552,0.8438,0.7889,0.7909,0.8176,0.8318,0.8565,0.8778,0.8637,0.8704,0.8771,0.8637,0.8604,0.8557,0.8435,0.8167,0.7866,0.7551,0.737,0.7201,0.7026,0.7268,0.7544,0.7682,0.7812,0.7905,0.7905,0.7905,0.7905,0.7905,0.8032,0.8083,0.7919,0.7916,0.7909,0.7905,0.7916,0.8067,0.8389,0.82,0.8118,0.8175,0.8118,0.8111,0.8237,0.8154,0.8056,0.7919,0.7769,0.7439,1.32,0.0,1.6641,1.9269,2.0494,0.0,2.1794,2.1746,2.1908,2.2976,2.2998,2.2878,2.3078,2.3108,2.3108,2.3108,2.3108,2.2882,2.2259,2.1782,2.1242,2.0616,2.0087,1.9798,1.9798,1.9309,1.8958,1.887,1.8259,1.7732,1.735,1.6515,1.5692,1.4879,1.4095,1.3406,1.2905,1.2905,1.2905,1.2905,1.2905,1.2905,1.2905,1.2905,1.2905,1.2905,1.2905,1.2905,1.2905,1.2905,1.2905,1.2905,1.2905,1.2578,1.2017,1.1183,1.077,1.0565,1.0105,0.995,0.9844,0.9262,0.9039,0.8872,0.7932,0.8,0.8362,0.8112,0.8405,0.8751,0.8536,0.8624,0.8744,0.8536,0.8435,0.8368,0.8268,0.7846,0.7471,0.7424,0.7194,0.7,0.7,0.7228,0.741,0.741,0.7609,0.7752,0.7752,0.7752,0.7772,0.7819,0.807,0.8143,0.7919,0.8156,0.8216,0.7992,0.8237,0.8422,0.8469,0.8684,0.8804,0.8804,0.8804,0.8804,0.8804,0.8564,0.8449,0.8389,0.7879,0.7455,1.2753,0.0,1.7337,0.0,2.0294,2.0838,0.0,0.0,2.1572,0.0,2.2647,2.2604,2.3017,2.3108,2.3108,2.3108,2.3108,2.2744,2.1744,2.1543,2.1104,2.0037,1.9849,1.9798,1.9798,1.9309,1.8807,1.8355,1.7802,1.7217,1.6651,1.6124,1.5495,1.4741,1.421,1.361,1.2905,1.2905,1.2905,1.2905,1.2905,1.2905,1.2905,1.2905,1.2905,1.2905,1.2905,1.2905,1.2905,1.2905,1.2905,1.2905,1.2905,1.2627,1.2175,1.1435,1.1158,1.1124,1.0651,1.0531,1.0467,0.9872,0.9437,0.9057,0.8468,0.8335,0.8442,0.8631,0.8744,0.8798,0.8758,0.8778,0.8798,0.8758,0.8557,0.8255,0.7725,0.7544,0.741,0.7134,0.7026,0.7,0.7,0.7033,0.706,0.706,0.7093,0.712,0.712,0.712,0.7241,0.7524,0.7584,0.7705,0.7885,0.7945,0.8083,0.8328,0.8375,0.8509,0.8738,0.8784,0.8804,0.8804,0.8804,0.8804,0.8804,0.8764,0.8617,0.8395,0.8315,0.7928,1.3443,1.5295,1.7135,0.0,1.9726,2.0196,2.0838,2.0862,2.1047,2.2092,2.2106,2.2199,2.2944,2.3108,2.3108,2.3108,2.2844,2.2397,2.1606,2.1257,2.0754,1.9899,1.9798,1.9798,1.9798,1.9045,1.8444,1.8229,1.7388,1.6785,1.6513,1.6044,1.5457,1.4732,1.4247,1.3658,1.2905,1.2905,1.2905,1.2905,1.2905,1.2905,1.2905,1.2905,1.2905,1.2905,1.2905,1.2905,1.2905,1.2905,1.2905,1.2905,1.2905,1.27,1.2348,1.1742,1.1576,1.1594,1.1367,1.1225,1.1032,1.0368,0.9918,0.9499,0.8669,0.8509,0.8611,0.8571,0.8684,0.8771,0.8604,0.8684,0.8764,0.8604,0.8496,0.8234,0.7618,0.7513,0.7397,0.706,0.7154,0.7268,0.7268,0.7393,0.7506,0.7506,0.7506,0.7506,0.7506,0.7506,0.7559,0.7709,0.7899,0.8053,0.817,0.833,0.8477,0.8611,0.8617,0.8671,0.8804,0.8804,0.8804,0.8804,0.8804,0.8804,0.8804,0.8804,0.8744,0.8611,0.8476,0.823,1.3961,1.5373,1.6545,1.8236,1.9006,1.9569,0.0,0.0,2.0552,2.1574,2.1615,2.1784,2.2805,2.3047,2.3058,2.292,2.2556,2.2071,2.1408,2.0955,2.0478,1.9874,1.9798,1.9748,1.9623,1.8756,1.8141,1.8003,1.7074,1.65,1.65,1.6044,1.5457,1.4732,1.4247,1.3658,1.2905,1.2905,1.2905,1.2905,1.2905,1.2905,1.2905,1.2905,1.2905,1.2905,1.2905,1.2905,1.2905,1.2905,1.2905,1.2905,1.2905,1.2759,1.2495,1.2064,1.1974,1.2051,1.1965,1.1776,1.1475,1.0737,1.0283,0.982,0.8792,0.8637,0.8758,0.8569,0.8644,0.8758,0.8569,0.8644,0.8751,0.8537,0.8509,0.8322,0.7638,0.743,0.733,0.7161,0.7337,0.7511,0.7591,0.7776,0.7905,0.7905,0.7905,0.7905,0.7905,0.7905,0.7939,0.8012,0.8243,0.8429,0.8502,0.8684,0.8804,0.8804,0.8804,0.8804,0.8804,0.8804,0.8804,0.8804,0.8804,0.8804,0.8804,0.8804,0.8804,0.8804,0.8584,0.8469,1.3705,1.4708,1.5576,1.7346,1.8256,0.0,0.0,0.0,2.0135,2.1212,2.1263,2.1451,2.2525,2.2939,2.2932,2.2406,2.2334,2.1933,2.0893,2.0717,2.0478,1.9874,1.9798,1.961,1.9096,1.8519,1.799,1.7486,1.6861,1.65,1.65,1.6044,1.5457,1.4732,1.4247,1.3658,1.2905,1.2905,1.2905,1.2905,1.2905,1.2905,1.2905,1.2905,1.2905,1.2905,1.2905,1.2905,1.2905,1.2905,1.2905,1.2905,1.2905,1.2808,1.2652,1.2382,1.2357,1.2446,1.2323,1.2101,1.1769,1.1032,1.0424,0.984,0.9014,0.8798,0.8804,0.8791,0.8798,0.8804,0.8791,0.8798,0.8804,0.8791,0.8784,0.8544,0.7678,0.7241,0.7128,0.7417,0.7477,0.7584,0.7832,0.7899,0.7905,0.7905,0.7905,0.7905,0.7905,0.7905,0.8012,0.8348,0.8395,0.8509,0.8758,0.8798,0.8804,0.8804,0.8804,0.8804,0.8804,0.8804,0.8804,0.8804,0.8804,0.8804,0.8804,0.8804,0.8804,0.8804,0.8791,0.8637,1.2916,1.3818,0.0,1.5847,1.6773,1.7715,1.9031,1.9478,1.9848,2.0701,2.0968,2.1141,2.1527,2.2053,2.243,2.2318,2.1719,2.1144,2.0742,2.0377,2.0037,1.9823,1.9798,1.9597,1.9058,1.8506,1.7978,1.7448,1.6848,1.65,1.65,1.6044,1.5457,1.4732,1.4247,1.3658,1.2905,1.3154,1.3154,1.2905,1.3154,1.3145,1.2905,1.2905,1.2905,1.2905,1.2905,1.2905,1.2905,1.2905,1.2905,1.2905,1.2905,1.2881,1.2832,1.2725,1.2725,1.2759,1.27,1.2406,1.1893,1.1082,1.044,0.9828,0.8834,0.8657,0.8764,0.8584,0.8664,0.8804,0.8804,0.8804,0.8804,0.8804,0.8664,0.8469,0.8147,0.7816,0.7612,0.7742,0.794,0.8107,0.8196,0.837,0.8465,0.8465,0.8465,0.8465,0.8465,0.8465,0.8537,0.8644,0.8651,0.8697,0.8798,0.8804,0.8804,0.8804,0.8804,0.8804,0.8804,0.8804,0.8804,0.8804,0.8804,0.8804,0.8804,0.8804,0.8804,0.8804,0.8804,0.8751,1.2452,1.3201,0.0,0.0,0.0,1.6643,1.8074,1.8654,1.9144,2.0011,2.0318,2.0467,2.0676,2.1039,2.1423,2.1709,2.1169,2.0629,2.0427,2.0037,1.9798,1.9798,1.9798,1.9522,1.8795,1.8417,1.789,1.7149,1.6735,1.65,1.65,1.6044,1.539,1.4502,1.3931,1.3406,1.2905,1.3301,1.3301,1.2905,1.3311,1.3281,1.2905,1.2905,1.2905,1.2905,1.2905,1.2905,1.2905,1.2905,1.2905,1.2905,1.2905,1.2905,1.2905,1.2905,1.2905,1.2905,1.2905,1.2554,1.1968,1.1074,1.044,0.9828,0.882,0.8657,0.8764,0.8571,0.8657,0.8804,0.8804,0.8804,0.8804,0.8804,0.8657,0.8543,0.8543,0.821,0.7939,0.8039,0.8237,0.8435,0.8529,0.8684,0.8804,0.8804,0.8804,0.8804,0.8804,0.8804,0.8804,0.8804,0.8804,0.8804,0.8804,0.8804,0.8804,0.8804,0.8804,0.8804,0.8804,0.8804,0.8804,0.8804,0.8804,0.8804,0.8804,0.8804,0.8804,0.8804,0.8804,0.8804,0.0,0.0,0.0,0.0,0.0,0.0,1.6884,0.0,1.7952,1.91,1.931,1.9435,1.9941,1.9904,1.9976,2.0536,2.0652,2.0439,1.986,1.9773,1.9773,1.9773,1.9773,1.9359,1.8306,1.8205,1.7741,1.66,1.6525,1.6513,1.65,1.6022,1.521,1.4025,1.3272,1.2905,1.2905,1.3311,1.3311,1.2905,1.332,1.3301,1.2905,1.2905,1.2905,1.2905,1.2905,1.2905,1.2905,1.2905,1.2905,1.2905,1.2905,1.2905,1.2905,1.2905,1.2905,1.2905,1.2905,1.2554,1.1968,1.1074,1.044,0.984,0.9021,0.8798,0.8804,0.8798,0.8798,0.8804,0.8804,0.8804,0.8804,0.8804,0.8804,0.8804,0.8804,0.8332,0.8019,0.8355,0.8415,0.8502,0.8758,0.8804,0.8804,0.8804,0.8804,0.8804,0.8804,0.8804,0.8804,0.8804,0.8804,0.8804,0.8804,0.8804,0.8804,0.8804,0.8804,0.8804,0.8804,0.8804,0.8804,0.8804,0.8804,0.8804,0.8804,0.8804,0.8804,0.8804,0.8804,0.8804,1.21,0.0,0.0,0.0,0.0,0.0,0.0,0.0,1.6798,1.7615,1.8232,1.8538,1.8437,1.8871,1.9149,1.8977,1.9241,1.9395,1.9237,1.9225,1.9225,1.9225,1.9225,1.8957,1.8287,1.8301,1.7921,0.0,1.6833,1.6695,1.63,1.5288,1.4398,1.3729,1.3176,1.2905,1.2905,1.3603,1.3603,1.2915,1.3588,1.3584,1.2905,1.2905,1.2905,1.2905,1.2905,1.2905,1.2905,1.2905,1.2905,1.2905,1.2905,1.2905,1.2905,1.2905,1.2905,1.2905,1.2905,1.2554,1.1968,1.1074,1.044,0.982,0.8806,0.8644,0.8764,0.8557,0.8644,0.8804,0.8804,0.8804,0.8804,0.8804,0.8804,0.8804,0.8804,0.8677,0.8591,0.8671,0.8691,0.8711,0.8791,0.8804,0.8804,0.8804,0.8804,0.8804,0.8804,0.8804,0.8804,0.8804,0.8804,0.8804,0.8804,0.8804,0.8804,0.8804,0.8804,0.8804,0.8804,0.8804,0.8804,0.8804,0.8804,0.8804,0.8804,0.8804,0.8804,0.8804,0.8804,0.8804,1.2003,1.2305,1.2345,1.2556,0.0,0.0,1.4172,1.4912,1.5689,1.6536,1.7116,1.7407,1.7266,1.7644,1.7823,1.7336,1.7545,1.8025,1.8627,1.853,1.8429,1.8429,1.8429,1.8218,1.7678,1.7798,1.7586,1.6701,1.6711,1.6424,1.5693,1.4663,1.3897,1.3539,1.3113,1.2905,1.2905,1.3545,1.3545,1.2915,1.3555,1.3525,1.2905,1.2905,1.2905,1.2905,1.2905,1.2905,1.2895,1.2686,1.2715,1.2905,1.2905,1.2905,1.2905,1.2905,1.2905,1.2905,1.2905,1.2554,1.1968,1.1074,1.044,0.9828,0.8854,0.8671,0.8771,0.8604,0.8677,0.8804,0.8804,0.8804,0.8804,0.8804,0.8804,0.8804,0.8804,0.8804,0.8804,0.8804,0.8804,0.8804,0.8804,0.8804,0.8804,0.8804,0.8804,0.8804,0.8804,0.8804,0.8804,0.8804,0.8804,0.8804,0.8804,0.8804,0.8804,0.8804,0.8804,0.8804,0.8804,0.8804,0.8804,0.8804,0.8804,0.8804,0.8804,0.8804,0.8804,0.8804,0.8804,0.8804,1.2077,1.2305,1.2305,1.2305,1.2648,0.0,1.3438,1.3918,1.4535,1.5486,1.5813,1.6011,1.6066,1.623,1.6179,1.5635,1.574,1.6401,1.7867,1.7761,1.7545,1.7584,1.7629,1.7446,1.693,1.7164,1.7094,1.6432,1.635,1.5893,1.4834,1.4131,1.3647,1.3372,1.3055,1.2905,1.2905,1.334,1.334,1.2915,1.335,1.333,1.2905,1.2905,1.2905,1.2905,1.2905,1.2905,1.2876,1.2461,1.2529,1.2895,1.2856,1.2842,1.2905,1.2905,1.2905,1.2905,1.2905,1.2554,1.1959,1.1057,1.0408,0.9832,0.902,0.8784,0.8804,0.8804,0.8804,0.8804,0.8804,0.8804,0.8804,0.8804,0.8804,0.8804,0.8804,0.8804,0.8804,0.8804,0.8804,0.8804,0.8804,0.8804,0.8804,0.8804,0.8804,0.8804,0.8804,0.8804,0.8804,0.8804,0.8804,0.8804,0.8804,0.8804,0.8804,0.8804,0.8804,0.8804,0.8804,0.8804,0.8804,0.8804,0.8804,0.8804,0.8804,0.8804,0.8804,0.8804,0.8804,0.8804,1.212,1.2305,1.2305,1.2305,1.2382,0.0,1.2272,1.2577,1.3005,1.3428,1.3747,1.399,1.4111,1.4498,1.4582,1.4124,1.4303,1.5009,1.6496,1.7032,1.731,1.7437,1.7768,1.7822,1.7341,1.7596,1.7557,1.6996,1.6264,1.5354,1.4233,1.3732,1.3372,1.3172,1.3002,1.2905,1.2905,1.3633,1.3633,1.2915,1.3652,1.3588,1.2905,1.2905,1.2905,1.2905,1.2905,1.2905,1.2895,1.2807,1.2827,1.2866,1.2467,1.2578,1.2905,1.2905,1.2905,1.2905,1.2905,1.2554,1.1913,1.0833,1.0259,0.9813,0.8772,0.8624,0.8804,0.8804,0.8804,0.8804,0.8804,0.8804,0.8804,0.8804,0.8804,0.8804,0.8804,0.8804,0.8804,0.8804,0.8804,0.8804,0.8804,0.8804,0.8804,0.8804,0.8804,0.8804,0.8804,0.8804,0.8804,0.8804,0.8804,0.8804,0.8804,0.8804,0.8804,0.8804,0.8804,0.8804,0.8804,0.8804,0.8804,0.8804,0.8804,0.8804,0.8804,0.8804,0.8804,0.8804,0.8804,0.8804,1.2194,1.2305,1.2305,1.2305,1.2305,0.0,0.0,1.2337,1.2614,1.2757,1.302,1.3167,1.3099,1.3276,1.3316,1.2869,1.3209,1.3888,1.4914,1.5778,1.6497,1.6982,1.7266,1.7317,1.7053,1.713,1.7001,1.6493,1.5582,1.4747,1.4098,1.348,1.3113,1.3002,1.2929,1.3013,1.3193,1.3613,1.3613,1.3203,1.3623,1.3486,1.2905,1.2905,1.2905,1.2905,1.2905,1.2905,1.2886,1.2646,1.2686,1.2886,1.2637,1.2686,1.2905,1.2905,1.2905,1.2905,1.2905,1.2554,1.194,1.0937,1.0322,0.9835,0.8882,0.8691,0.8804,0.8804,0.8804,0.8804,0.8804,0.8804,0.8804,0.8804,0.8804,0.8804,0.8804,0.8804,0.8804,0.8804,0.8804,0.8804,0.8804,0.8804,0.8804,0.8804,0.8804,0.8804,0.8804,0.8804,0.8804,0.8804,0.8804,0.8804,0.8804,0.8804,0.8804,0.8804,0.8804,0.8804,0.8804,0.8804,0.8804,0.8804,0.8804,0.8804,0.8804,0.8804,0.8804,0.8804,0.8804,0.8804,1.2195,1.2258,1.2285,1.2231,1.2265,1.2285,0.0,0.0,0.0,1.2375,1.2506,1.2533,1.2263,1.2215,1.2123,1.1859,1.2324,1.2931,1.3623,1.4504,0.0,1.6488,1.6732,1.6783,1.6728,1.6624,1.6343,1.5866,1.506,1.4465,1.416,1.3501,1.3125,1.3125,1.3125,1.3281,1.3597,1.3711,1.3711,1.3633,1.3633,1.3408,1.2998,1.2944,1.2905,1.2905,1.2905,1.2905,1.2876,1.25,1.2559,1.2895,1.2807,1.2827,1.2905,1.2905,1.2905,1.2905,1.2905,1.2554,1.1959,1.1023,1.0269,0.9585,0.8988,0.8804,0.8804,0.8804,0.8804,0.8804,0.8804,0.8804,0.8804,0.8804,0.8804,0.8804,0.8804,0.8804,0.8804,0.8804,0.8804,0.8804,0.8804,0.8804,0.8804,0.8804,0.8804,0.8804,0.8804,0.8804,0.8804,0.8804,0.8804,0.8804,0.8804,0.8804,0.8804,0.8804,0.8804,0.8804,0.8804,0.8804,0.8804,0.8804,0.8804,0.8804,0.8804,0.8804,0.8804,0.8804,0.8804,0.8804,1.1984,1.2104,1.2238,1.202,1.2111,1.2231,1.2013,0.0,1.1834,1.1303,0.0,1.116,1.0892,0.0,0.0,1.1065,1.1421,1.2061,1.321,1.3734,1.4578,1.6172,1.6822,1.7056,1.6807,1.6761,1.6534,1.5931,1.5566,1.5043,1.4331,1.4076,1.3968,1.3968,1.3968,1.3987,1.4036,1.4443,1.4443,1.4036,1.4036,1.3821,1.3418,1.3047,1.2905,1.2905,1.2905,1.2905,1.2905,1.2856,1.2856,1.2866,1.2428,1.2539,1.2905,1.2905,1.2905,1.2905,1.2905,1.2554,1.1913,1.0799,0.9602,0.8616,0.8757,0.8804,0.8804,0.8804,0.8804,0.8804,0.8804,0.8804,0.8804,0.8804,0.8804,0.8804,0.8804,0.8804,0.8804,0.8804,0.8804,0.8804,0.8804,0.8804,0.8804,0.8804,0.8804,0.8804,0.8804,0.8804,0.8804,0.8804,0.8804,0.8804,0.8804,0.8804,0.8804,0.8804,0.8804,0.8804,0.8804,0.8804,0.8804,0.8804,0.8804,0.8804,0.8804,0.8804,0.8804,0.8804,0.8804,0.8804,1.194,1.1993,1.206,1.1933,1.2084,1.2271,1.2144,1.2045,1.1817,1.127,0.0,0.0,0.0,0.0,0.0,0.0,1.0937,1.1681,1.2494,1.3084,1.4013,1.5479,0.0,0.0,1.6598,1.6711,1.6624,1.6394,1.5781,1.5296,1.4949,1.4648,1.4367,1.4114,1.4104,1.4231,1.4502,1.4697,1.4687,1.4502,1.4221,1.389,1.3496,1.3076,1.2905,1.2905,1.2905,1.2905,1.2905,1.2905,1.2905,1.2886,1.2676,1.2725,1.2905,1.2905,1.2856,1.2774,1.27,1.2283,1.1543,1.0331,0.934,0.8651,0.8771,0.8804,0.8804,0.8804,0.8804,0.8804,0.8804,0.8804,0.8804,0.8804,0.8804,0.8804,0.8804,0.8804,0.8804,0.8804,0.8804,0.8804,0.8804,0.8804,0.8804,0.8804,0.8804,0.8804,0.8804,0.8804,0.8804,0.8804,0.8804,0.8804,0.8804,0.8804,0.8804,0.8804,0.8804,0.8804,0.8804,0.8804,0.8804,0.8804,0.8804,0.8804,0.8804,0.8804,0.8804,0.8804,0.8804,0.8804,1.1685,1.1779,1.1886,1.1806,1.1971,1.2184,1.2184,1.2002,1.1655,1.1051,1.0802,0.0,0.0,0.0,0.9679,0.9611,0.0,1.1025,1.167,1.231,0.0,0.0,0.0,0.0,0.0,1.6496,1.6616,1.6638,1.6017,1.5622,1.5672,1.5332,1.499,1.4668,1.4523,1.4611,1.4951,1.4951,1.4951,1.4951,1.4367,1.3948,1.3662,1.3125,1.2905,1.2905,1.2905,1.2905,1.2905,1.2905,1.2905,1.2905,1.2905,1.2905,1.2905,1.2905,1.2774,1.2603,1.2387,1.176,1.088,0.9873,0.9211,0.8804,0.8804,0.8804,0.8804,0.8804,0.8804,0.8804,0.8804,0.8804,0.8804,0.8804,0.8804,0.8804,0.8804,0.8804,0.8804,0.8804,0.8804,0.8804,0.8804,0.8804,0.8804,0.8804,0.8804,0.8804,0.8804,0.8804,0.8804,0.8804,0.8804,0.8804,0.8804,0.8804,0.8804,0.8804,0.8804,0.8804,0.8804,0.8804,0.8804,0.8804,0.8804,0.8804,0.8804,0.8804,0.8804,0.8804,0.8804,0.8804,1.1096,1.1471,1.1832,1.151,1.1663,1.1919,1.1919,1.1598,1.1081,1.0154,0.9876,0.9536,0.8614,0.8468,0.8538,0.8778,0.9233,0.0,0.0,1.1205,0.0,0.0,0.0,0.0,0.0,1.6217,1.6352,0.0,1.629,1.6246,1.6344,1.6158,1.6046,1.6026,1.5596,1.5381,1.5391,1.5391,1.5391,1.5381,1.4504,1.4104,1.4055,1.3262,1.2905,1.2905,1.2905,1.2905,1.2905,1.2905,1.2905,1.2905,1.2905,1.2905,1.2905,1.2905,1.2725,1.2446,1.1981,1.0965,0.9814,0.9517,0.9133,0.8804,0.8804,0.8804,0.8804,0.8804,0.8804,0.8804,0.8804,0.8804,0.8804,0.8804,0.8804,0.8804,0.8804,0.8804,0.8804,0.8804,0.8804,0.8804,0.8804,0.8804,0.8804,0.8804,0.8804,0.8804,0.8804,0.8804,0.8804,0.8804,0.8804,0.8804,0.8804,0.8804,0.8804,0.8804,0.8804,0.8804,0.8804,0.8804,0.8804,0.8804,0.8804,0.8804,0.8804,0.8804,0.8804,0.8804,0.8804,0.8804,1.1015,1.1136,1.1269,1.1162,1.1356,1.163,1.1859,1.1435,1.0905,1.0391,0.9942,0.9349,0.8486,0.8478,0.8543,0.8286,0.8773,0.936,0.0,1.0689,0.0,0.0,0.0,0.0,0.0,0.0,1.5351,1.5921,1.5983,0.0,1.6435,1.6777,1.6701,1.6114,1.5948,1.5703,1.541,1.541,1.541,1.54,1.4513,1.4104,1.4075,1.3262,1.2905,1.2905,1.2905,1.2905,1.2905,1.2905,1.2905,1.2905,1.2905,1.2905,1.2905,1.2905,1.2676,1.2224,1.1225,1.0277,0.9484,0.9211,0.8982,0.8804,0.8804,0.8804,0.8804,0.8804,0.8804,0.8804,0.8804,0.8804,0.8804,0.8804,0.8804,0.8804,0.8804,0.8804,0.8804,0.8804,0.8804,0.8804,0.8804,0.8804,0.8804,0.8804,0.8804,0.8878,0.9044,0.9064,0.9144,0.9365,0.9385,0.9385,0.9385,0.9178,0.8984,0.8818,0.8804,0.8804,0.8804,0.8804,0.8804,0.8804,0.8804,0.8804,0.8804,0.8804,0.8804,0.8804,0.8804,0.8804,1.0681,1.0681,1.0681,1.0681,1.0902,1.1196,1.1524,1.1136,1.0638,1.0343,0.9838,0.9216,0.8476,0.8436,0.834,0.7839,0.8208,0.8732,0.0,0.99,0.0,0.0,0.0,0.0,0.0,1.4073,1.4506,1.5253,1.5575,0.0,0.0,1.6911,1.688,1.6216,1.6143,1.588,1.5391,1.541,1.541,1.5371,1.4697,1.425,1.4085,1.3418,1.3052,1.2905,1.2905,1.2905,1.2905,1.2905,1.2905,1.2905,1.2905,1.2905,1.2905,1.2905,1.2421,1.1626,1.0617,0.9803,0.9159,0.8982,0.8883,0.8804,0.8804,0.8804,0.8804,0.8804,0.8804,0.8804,0.8804,0.8804,0.8804,0.8804,0.8804,0.8804,0.8804,0.8804,0.8804,0.8804,0.8804,0.8804,0.8804,0.8804,0.8804,0.8804,0.8891,0.8998,0.9184,0.9304,0.9472,0.9688,0.9715,0.9639,0.9532,0.9324,0.9091,0.8824,0.8804,0.8804,0.8804,0.8804,0.8804,0.8804,0.8804,0.8804,0.8804,0.8804,0.8804,0.8804,0.8804,0.8804]}]]